GFSCGP_2pvu_pres_000.txt.gz
Presure
213 206 211 226 218 209 206 200 199 198 197 192 193 187 143 183 187 192 186 187 185 184 188 179 173 173 173 173 182 171 185 179 167 169 184 180 181 193 199 200 195 196 190 193
208 209 208 209 208 207 201 200 199 195 195 189 189 191 189 190 187 182 181 166 172 166 169 170 178 174 181 174 188 188 179 173 163 172 180 187 184 185 187 186 196 196 194 193
202 206 204 205 196 198 202 200 195 199 195 189 169 189 187 177 181 169 188 172 160 177 162 180 183 182 172 172 172 183 176 174 171 171 172 189 178 183 175 181 184 189 184 191
201 198 200 207 198 190 203 207 196 203 197 190 188 188 186 186 164 172 189 180 178 164 169 165 173 178 178 179 179 168 180 171 175 178 177 174 179 188 181 183 184 184 186 187
197 204 204 202 191 196 205 211 200 202 195 196 192 197 185 187 178 184 177 163 172 163 159 152 144 146 176 177 180 174 164 165 171 174 178 160 171 170 178 183 197 196 193 199
201 209 212 191 199 203 201 208 202 195 192 192 198 198 141 179 166 135 184 156 137 107 163 151 160 168 164 167 169 168 169 150 145 175 146 180 179 182 175 164 178 141 192 198
199 205 195 200 204 199 206 206 206 199 188 184 175 164 174 203 158 191 175 122 155 161 171 169 151 162 161 135 169 147 156 171 179 180 182 187 193 189 181 181 184 200 196 203
195 155 190 178 194 192 195 192 193 201 191 187 187 193 195 160 174 179 177 124 136 167 175 150 126 133 176 131 156 175 171 186 189 187 183 193 203 208 211 210 203 204 208 200
200 187 195 186 188 184 190 193 193 133 191 198 192 182 182 106 170 149 115 177 176 178 164 175 170 133 145 181 162 160 183 187 202 199 192 181 195 206 212 208 206 203 204 208
186 181 182 193 188 178 175 180 188 193 193 194 170 177 110 109 184 104 177 172 177 167 139 183 162 158 123 120 186 189 192 182 192 192 196 203 204 205 208 205 214 227 230 237
184 187 180 182 181 172 177 180 185 163 191 165 151 164 167 97 172 183 168 174 177 167 176 116 118 179 181 160 185 181 189 193 198 195 204 205 203 214 227 235 244 251 268 260
182 185 188 186 176 183 175 185 188 194 192 173 167 157 165 170 173 167 173 186 182 150 183 134 172 172 195 204 206 193 206 209 200 203 203 213 224 232 248 243 238 252 265 349
188 186 185 178 184 183 188 194 195 187 177 181 183 182 187 178 173 166 163 146 173 175 124 189 139 183 182 183 190 185 208 205 220 218 223 247 248 238 249 302 346 332 326 328
189 193 181 187 189 189 178 183 181 163 157 182 183 179 178 178 165 171 138 161 182 173 179 177 151 155 184 184 192 217 218 220 223 243 240 238 238 358 350 324 304 297 294 284
176 160 188 183 179 180 181 181 184 179 180 175 174 172 169 163 156 143 175 178 170 117 178 181 187 190 202 185 212 225 231 229 248 253 282 291 322 299 302 294 301 294 289 291
180 174 176 168 181 177 174 176 174 175 169 165 166 150 100 177 177 103 135 116 180 179 187 196 207 210 223 217 224 227 241 259 248 270 306 297 294 284 299 274 262 265 268 267
174 175 170 176 162 154 168 175 160 175 169 177 168 178 168 170 104 159 184 132 195 191 202 211 223 218 218 227 245 254 221 255 284 308 276 277 266 278 271 269 303 298 286 271
179 179 176 88 160 170 183 179 169 148 174 178 174 134 181 180 100 198 190 195 203 209 217 215 210 217 228 240 196 265 273 282 304 326 263 265 269 284 280 248 282 293 276 378
179 176 175 162 179 178 172 184 179 177 174 178 143 145 138 191 198 163 191 165 208 215 209 226 227 222 223 249 270 254 282 298 304 261 253 258 261 258 283 294 394 383 394 386
189 188 186 169 168 174 167 187 157 158 185 191 159 111 139 199 194 205 196 122 216 203 221 239 233 241 244 271 256 267 295 306 273 251 250 283 273 440 393 414 404 392 382 367
190 178 151 179 180 141 186 186 178 88 196 135 162 127 176 217 173 213 174 210 219 234 179 226 252 247 269 262 262 294 295 263 254 252 276 430 401 425 410 394 384 377 365 356
173 176 181 185 194 195 191 188 119 102 225 221 211 212 218 218 196 215 220 220 225 226 224 247 238 240 277 275 291 308 295 283 278 348 412 398 419 406 392 374 372 364 353 347
175 133 193 195 190 122 130 71 219 215 216 215 195 220 217 210 213 220 220 225 225 234 242 237 251 292 282 295 298 275 279 297 391 406 424 415 400 383 366 367 358 351 347 337
192 187 125 124 193 103 203 137 204 207 206 192 219 213 208 212 214 223 218 232 237 240 253 257 295 284 302 302 279 297 381 392 419 417 405 390 374 367 363 353 343 338 342 351
115 127 105 173 153 127 132 131 147 167 211 210 206 218 211 224 222 230 230 254 258 251 289 302 294 300 286 292 331 381 400 423 408 394 380 369 369 354 344 341 345 353 351 338
96 165 220 92 201 108 202 124 130 146 172 216 220 229 232 239 241 231 255 244 249 297 294 299 318 288 301 377 378 406 418 400 382 374 365 360 346 341 347 351 341 324 314 329

GFSCGP_2pvu_pres_003.txt.gz
Presure
229 223 223 200 212 216 222 218 205 208 199 202 197 196 196 191 190 190 194 194 179 189 173 177 169 173 187 174 175 180 179 180 172 174 173 180 178 183 179 173 170 171 174 180
220 209 205 225 222 207 217 207 198 197 199 196 196 191 189 190 190 188 175 175 171 185 171 171 157 143 168 178 176 180 170 171 170 165 174 162 178 173 173 184 189 161 192 172
205 215 207 218 213 212 207 206 209 203 196 194 197 194 193 187 180 186 179 168 183 183 179 159 170 172 168 180 175 163 152 172 173 185 183 180 152 179 181 183 190 190 189 188
206 213 204 189 209 207 202 199 195 205 204 194 196 196 196 185 175 194 171 167 165 180 179 178 107 125 173 173 135 155 157 164 175 173 147 174 167 150 180 175 185 146 186 183
203 199 205 196 207 206 196 203 202 208 210 204 203 198 191 194 192 178 172 168 175 157 155 101 170 158 167 170 163 141 152 169 163 128 182 174 174 184 180 181 179 188 190 193
203 196 194 203 209 196 210 196 206 214 209 206 203 202 185 181 170 158 177 154 169 174 179 135 167 173 171 167 151 141 143 163 133 163 182 184 184 183 186 175 180 194 195 191
208 201 198 201 198 206 195 195 199 194 194 196 201 203 201 189 186 187 180 121 163 143 167 140 101 171 171 167 173 178 134 118 116 127 182 147 176 174 190 195 188 202 232 237
209 193 206 195 190 193 198 189 191 187 186 185 189 198 197 196 200 196 119 199 184 172 158 177 171 177 167 127 180 181 138 128 165 173 180 173 182 188 193 207 228 229 235 232
205 185 206 190 185 196 194 187 178 176 177 181 180 184 189 174 187 123 107 187 189 187 167 171 173 169 173 116 122 122 132 183 182 174 184 191 203 211 206 222 226 241 249 281
204 185 188 187 192 190 188 187 175 184 180 130 184 190 66 192 131 174 182 177 181 181 177 165 159 172 173 153 169 192 188 182 191 192 196 207 210 214 220 239 250 269 274 272
188 183 181 186 187 191 187 183 186 187 186 194 202 135 188 190 181 183 185 182 179 167 160 180 163 170 121 130 160 177 199 201 193 203 206 214 226 218 232 256 269 268 290 311
185 186 186 185 185 182 186 178 189 191 197 190 183 151 176 186 185 180 181 171 157 145 127 155 116 122 184 181 193 194 192 205 208 213 219 244 245 254 229 269 268 294 309 291
180 190 190 185 183 184 194 196 187 182 166 170 164 170 179 173 172 163 176 178 183 176 172 128 170 179 187 191 192 195 206 213 213 220 214 248 246 250 277 264 288 302 298 266
170 193 192 197 193 187 188 186 180 181 161 168 170 171 168 170 170 157 181 177 117 137 171 114 182 187 132 202 201 204 214 211 226 244 238 224 247 285 289 292 300 304 275 257
178 188 186 177 174 178 176 177 173 114 182 180 165 177 177 149 159 170 175 107 101 164 186 186 183 201 204 204 209 216 221 216 227 235 251 253 294 291 302 312 278 264 255 253
186 196 188 190 181 182 172 175 178 178 177 177 185 154 176 147 156 185 190 97 191 120 187 115 207 211 195 216 219 205 225 229 244 258 252 302 298 315 309 282 286 304 383 432
191 185 163 180 171 176 174 120 187 186 180 173 172 138 146 146 184 185 143 200 193 213 206 204 205 216 216 213 208 239 235 246 265 253 299 298 312 302 285 303 373 406 428 401
184 181 181 174 181 175 182 184 182 180 152 170 177 176 183 199 190 170 101 182 214 221 219 209 174 217 231 232 247 237 246 270 274 309 312 318 310 297 322 395 407 429 410 412
179 160 185 143 181 178 187 169 131 173 176 186 187 102 183 198 222 99 187 209 212 211 197 220 216 228 234 235 240 263 264 259 299 320 316 302 310 392 392 409 421 414 405 395
188 160 177 190 175 99 179 170 134 152 147 130 198 197 220 215 217 211 206 213 203 216 218 228 222 237 226 237 251 256 277 311 325 308 295 349 396 405 431 420 411 403 391 371
183 189 187 175 174 169 190 187 181 136 152 198 209 215 213 206 210 212 211 220 209 221 223 232 226 228 239 250 282 310 315 319 283 326 387 394 416 427 415 403 393 372 363 360
178 111 175 156 181 189 197 186 199 202 172 210 169 178 126 164 210 214 209 214 224 218 224 226 227 243 250 280 309 322 311 293 410 395 386 423 415 399 384 373 362 358 349 342
184 176 164 194 179 130 201 202 96 96 214 216 211 193 131 129 172 200 214 223 219 226 227 235 242 252 299 308 328 291 339 406 390 385 420 405 388 378 367 358 347 337 335 338
170 170 128 199 117 101 144 185 192 211 216 208 207 209 201 142 174 207 227 225 225 224 239 247 298 315 318 308 283 414 394 385 379 385 397 383 371 359 349 343 340 352 357 344
187 129 95 170 113 152 92 209 93 202 160 202 201 204 199 214 224 226 229 233 234 241 234 284 322 324 280 309 409 392 378 369 403 389 377 364 351 344 347 354 348 335 323 321
202 202 154 198 160 112 171 207 172 182 200 202 206 212 225 205 235 224 238 257 253 283 310 326 311 283 396 402 387 372 373 397 384 369 357 344 341 350 343 334 323 341 332 395

GFSCGP_2pvu_pres_006.txt.gz
Presure
142 177 143 215 237 212 238 225 232 218 215 207 211 205 201 196 199 196 193 198 192 180 172 192 193 193 196 177 172 178 173 174 178 163 165 159 161 167 176 182 184 186 177 173
148 211 218 221 182 209 208 217 224 208 207 206 200 205 197 193 194 186 187 186 187 178 179 171 186 174 183 183 165 149 171 179 168 153 153 177 180 183 184 182 153 192 193 152
211 221 227 213 206 215 209 219 211 209 207 202 208 197 193 194 192 189 187 173 172 180 162 170 172 155 164 134 182 170 187 185 188 157 143 181 176 182 130 143 152 141 168 181
218 220 208 206 211 197 210 216 205 204 202 207 211 204 198 190 194 189 189 184 179 185 181 179 180 165 172 102 128 180 178 172 162 161 134 138 156 132 141 154 132 147 175 178
217 206 207 210 215 198 190 214 209 206 209 209 214 216 212 203 196 199 180 185 187 192 149 165 169 181 180 175 144 170 172 171 159 178 179 169 110 111 130 182 184 175 189 190
228 205 200 204 201 191 204 212 210 200 206 202 197 198 202 203 202 195 169 164 174 184 109 123 171 170 169 173 169 174 162 166 161 171 125 171 161 179 178 188 192 199 214 222
230 221 203 202 196 191 214 213 196 203 206 184 192 192 195 191 191 188 187 188 195 195 144 156 186 95 182 169 175 164 157 123 120 127 170 156 142 190 206 197 207 215 223 208
254 223 216 207 197 196 200 187 203 190 183 183 175 188 191 200 192 201 205 155 191 139 162 118 168 184 182 180 138 124 131 122 126 166 183 154 201 202 214 215 214 145 205 232
239 228 226 211 188 194 200 187 195 195 190 180 192 195 207 205 199 191 187 184 164 145 180 180 178 172 154 169 183 178 171 155 183 185 163 208 213 206 194 215 207 204 233 249
234 236 211 196 186 190 181 189 192 186 137 191 190 186 201 174 178 129 182 184 156 176 176 177 177 182 145 110 140 180 189 190 205 195 203 206 212 148 205 227 206 238 265 274
215 188 192 193 188 188 190 187 187 188 192 189 183 185 163 175 177 178 173 169 185 179 131 139 155 108 110 183 193 204 204 209 198 202 209 205 192 207 233 249 254 264 254 284
197 194 193 193 189 189 184 191 195 122 186 169 175 166 168 174 162 162 171 176 176 154 175 152 98 183 194 179 151 200 203 206 215 222 199 224 232 237 242 184 252 285 280 295
202 197 194 192 192 190 193 191 185 178 176 173 166 179 179 169 175 182 175 180 131 139 177 94 155 192 162 198 210 204 195 201 191 215 233 232 237 237 248 271 279 296 312 319
193 200 192 189 191 177 186 164 167 175 173 167 176 178 185 179 174 181 170 131 169 186 142 172 206 198 207 186 207 207 211 215 225 229 237 232 236 242 278 297 313 317 299 282
179 174 168 174 187 181 182 135 185 177 178 176 178 183 173 122 166 169 166 200 196 130 110 184 202 198 194 211 209 216 225 228 226 225 229 239 254 315 313 330 317 286 323 348
179 179 185 183 192 182 178 134 191 182 179 187 184 169 179 183 162 177 191 199 212 206 203 202 198 207 211 206 214 225 226 231 234 243 250 254 310 322 326 284 315 357 409 398
188 185 166 186 170 177 184 186 180 177 182 175 174 164 171 159 181 104 138 205 217 212 204 210 200 202 198 219 232 232 234 235 258 261 278 320 317 287 298 336 411 399 396 419
184 184 180 177 187 183 181 176 177 160 170 165 168 149 191 179 199 194 198 211 166 210 203 204 201 212 215 225 219 228 238 252 280 307 319 302 275 332 362 409 396 422 422 417
187 189 193 189 192 192 113 174 175 173 176 178 184 181 139 197 192 194 201 202 132 127 135 210 215 214 223 226 225 250 287 281 316 322 278 292 346 419 399 382 419 407 395 382
193 186 185 185 188 102 174 177 177 184 176 176 202 197 99 196 197 206 201 204 133 144 214 211 224 220 227 234 256 294 275 322 331 274 329 442 412 391 381 408 394 378 369 362
185 192 188 174 187 175 179 192 187 133 163 162 200 197 193 213 166 209 213 206 197 216 215 221 228 225 253 262 299 290 319 307 282 350 439 408 386 397 397 382 369 361 349 346
176 182 183 126 189 185 196 197 137 200 199 197 164 188 207 189 196 202 202 200 215 213 207 223 225 238 267 289 307 310 310 279 449 420 399 384 404 389 377 364 352 345 343 346
184 195 191 189 178 195 199 195 196 94 185 201 197 209 200 191 203 212 212 217 218 210 227 223 242 249 307 309 315 324 294 429 416 397 398 399 384 371 359 349 343 348 349 342
173 188 198 191 192 200 134 192 149 194 93 191 209 190 204 210 201 212 229 219 140 228 227 242 260 314 315 320 310 318 432 411 404 406 399 383 368 352 349 342 350 345 337 347
189 191 195 146 179 145 169 136 99 176 197 193 194 205 208 200 204 227 214 225 226 238 246 295 314 324 330 289 355 435 420 407 403 391 379 363 349 345 337 349 339 341 346 337
145 164 200 120 188 102 201 162 143 107 198 197 204 202 197 210 214 229 224 230 237 248 271 326 331 300 279 410 436 421 406 399 389 371 358 349 341 339 349 332 341 339 448 438

GFSCGP_2pvu_pres_009.txt.gz
Presure
222 134 217 213 163 133 135 217 232 244 208 215 216 215 207 210 203 202 197 193 191 192 193 190 191 191 179 177 166 180 182 183 186 187 180 152 181 172 176 153 165 171 128 185
144 215 130 216 141 195 220 205 215 208 217 225 218 208 203 197 199 193 190 188 195 193 191 189 175 178 203 167 185 178 147 184 180 131 165 165 174 172 174 175 155 132 178 140
134 159 219 146 219 220 216 211 204 213 200 214 205 200 208 207 205 200 196 198 198 197 204 192 195 197 149 116 182 172 189 175 177 182 178 167 164 173 167 146 161 181 136 177
142 225 190 211 162 209 212 208 197 189 221 210 205 206 214 217 213 208 206 202 200 199 190 190 190 187 118 150 187 175 193 188 182 187 188 164 168 181 176 133 179 171 182 133
242 218 220 219 214 217 205 211 196 207 221 210 204 210 204 200 141 194 191 193 192 191 193 189 184 193 114 153 150 173 180 181 181 156 165 180 185 128 176 172 191 196 203 207
225 225 228 217 214 210 207 196 192 209 206 201 206 199 188 185 180 178 181 188 198 198 194 191 182 174 172 153 178 175 169 138 128 136 180 167 162 188 190 200 207 213 214 209
237 235 230 223 214 216 212 194 195 199 195 210 198 190 184 187 193 197 197 189 188 184 186 181 175 179 169 171 177 179 105 120 150 183 149 184 196 204 210 213 220 182 207 202
256 242 239 237 216 217 211 196 200 181 184 186 195 195 196 199 142 186 180 176 170 177 171 168 177 181 164 144 179 109 137 178 189 197 197 136 199 151 220 205 195 227 231 237
246 241 246 259 233 220 215 188 190 187 189 192 188 200 98 186 179 173 168 179 176 174 172 186 180 180 182 106 143 142 123 124 182 204 203 203 195 211 235 226 155 226 238 246
245 259 220 217 241 233 199 191 190 192 187 189 193 187 180 172 174 167 184 184 183 183 178 178 168 169 167 137 143 197 195 169 214 171 198 215 214 219 221 216 226 244 253 264
212 200 198 199 197 194 193 194 193 191 175 197 175 180 176 177 172 180 181 182 177 171 175 165 175 181 176 176 208 123 131 202 211 215 214 191 209 227 223 224 254 275 277 275
194 193 196 206 204 201 195 197 185 186 189 175 180 176 171 175 174 178 181 176 171 168 162 155 181 182 192 198 209 212 215 199 201 211 174 219 219 219 240 255 287 303 273 279
187 188 185 186 187 199 178 186 176 188 175 176 182 181 185 173 179 183 175 170 166 164 188 191 191 207 202 207 196 200 202 213 206 209 205 215 216 233 258 266 305 282 312 322
202 200 200 192 183 177 186 182 197 176 173 171 186 175 173 177 175 173 171 167 89 181 129 195 190 194 173 206 203 203 212 209 213 210 219 212 231 266 302 295 304 313 312 281
183 176 188 188 187 189 182 162 180 176 190 187 175 169 175 180 172 168 171 179 182 199 193 191 205 194 122 124 132 191 213 215 213 214 216 225 295 309 307 308 321 306 322 450
186 185 186 184 187 182 184 194 120 190 191 183 184 176 176 180 170 180 120 131 195 193 192 206 124 121 122 128 208 213 216 220 214 226 245 272 314 316 315 322 298 370 434 408
186 184 183 185 184 187 191 187 188 170 180 181 183 178 178 181 167 182 197 191 191 198 205 196 193 199 203 208 212 216 224 219 229 244 291 318 321 325 305 315 449 417 396 402
195 202 188 189 193 189 177 187 181 185 175 179 174 173 117 169 178 194 190 195 197 190 202 191 205 211 201 213 211 228 220 231 258 262 327 328 304 276 359 441 420 397 409 401
208 192 184 182 183 184 189 181 175 177 174 182 185 110 96 188 191 190 197 199 194 200 196 202 206 212 214 215 228 224 246 263 302 332 321 288 307 431 422 411 413 402 391 379
181 188 185 191 194 192 189 183 191 185 178 187 185 187 97 194 194 189 192 196 201 204 210 205 219 220 218 228 240 259 282 313 334 332 303 326 444 427 412 408 397 388 373 361
191 190 186 187 196 190 187 175 196 194 186 120 202 98 199 101 195 197 206 204 203 212 219 216 220 225 247 256 282 312 315 334 331 287 340 441 421 409 404 390 376 367 359 351
177 187 188 185 181 182 172 187 192 195 198 198 121 189 193 194 202 203 203 208 212 214 216 216 238 249 305 314 314 315 339 313 290 349 436 418 402 395 386 368 361 354 353 357
180 187 176 192 187 189 193 196 198 191 192 191 183 122 200 202 186 213 212 207 222 213 247 250 247 289 311 307 320 341 281 301 412 428 413 398 395 380 365 353 350 362 348 337
182 194 189 177 194 187 175 195 188 177 187 194 199 202 207 211 213 218 225 217 212 245 252 251 323 317 320 335 301 278 328 433 411 405 393 392 377 360 348 346 350 338 347 334
152 186 196 193 200 199 199 192 113 191 194 198 199 211 209 209 221 220 215 255 253 288 269 293 326 303 271 274 305 381 419 401 386 390 389 374 356 350 341 343 336 340 330 452
198 194 195 73 194 194 197 187 183 193 201 191 204 204 200 214 215 233 242 252 298 270 275 335 343 284 275 333 426 412 394 383 377 376 377 363 355 337 344 330 333 325 430 429

GFSCGP_2pvu_pres_012.txt.gz
Presure
231 235 233 230 172 227 227 218 220 126 141 157 208 226 226 222 216 203 199 201 202 202 201 202 204 207 206 198 201 194 194 193 125 203 193 191 186 183 182 182 178 165 170 179
232 229 221 219 218 198 138 222 224 224 157 151 207 207 218 211 201 200 201 207 210 215 218 215 204 200 199 194 184 192 199 169 109 175 178 176 182 181 175 180 172 180 142 121
226 224 231 134 151 217 174 219 183 207 176 201 201 216 207 202 204 214 224 220 209 200 194 190 191 192 198 193 195 194 186 123 185 162 183 181 183 183 179 177 188 143 164 175
162 140 135 152 198 134 216 214 215 214 206 194 213 210 202 205 215 203 189 182 181 195 198 198 201 193 189 176 181 152 184 189 184 179 181 179 179 180 146 140 138 198 202 211
132 138 214 224 223 226 221 219 212 204 195 206 217 210 208 214 200 181 179 190 195 198 191 185 179 178 179 177 166 172 177 174 173 165 151 127 112 200 170 151 200 209 173 205
232 225 223 235 220 223 221 219 207 199 193 204 200 194 208 200 185 186 180 190 191 182 179 177 168 163 172 183 182 175 179 179 179 187 112 180 191 169 203 206 205 215 198 203
248 252 249 235 242 230 216 219 213 213 200 196 189 191 196 198 193 192 191 189 180 177 171 172 182 182 172 177 178 173 179 108 98 161 153 123 188 201 207 213 215 216 215 211
235 245 257 249 241 239 230 217 219 193 197 186 189 192 188 195 195 190 182 177 172 170 174 131 133 173 176 174 170 180 101 165 193 197 202 199 211 190 192 211 219 217 216 211
238 242 259 241 236 250 266 234 226 188 194 190 192 188 194 193 180 177 179 174 179 173 180 187 174 180 177 160 179 109 108 142 191 191 159 209 200 207 205 214 217 220 217 217
211 210 202 200 199 199 221 197 207 195 192 191 194 190 198 178 178 181 176 184 179 182 181 174 182 171 171 179 175 142 196 193 190 195 200 205 203 215 212 215 212 226 216 224
194 191 199 203 181 201 197 198 195 194 187 187 191 191 176 178 184 186 188 181 177 186 181 176 171 172 180 159 193 195 191 203 196 150 204 161 197 217 215 215 219 223 228 227
191 190 186 191 194 189 178 205 184 182 186 190 176 187 177 175 183 187 177 177 177 175 174 171 170 177 180 200 190 194 138 165 127 120 126 127 220 216 214 227 224 226 238 272
195 188 197 202 197 196 177 178 186 184 191 188 176 173 168 186 187 180 180 177 174 175 175 179 130 194 194 187 199 201 198 138 181 206 204 221 216 216 223 241 230 269 291 326
186 187 180 178 175 187 191 192 189 178 179 178 182 184 189 187 182 176 174 176 174 174 182 195 195 188 195 196 194 201 202 204 204 209 213 216 217 238 248 281 306 318 341 345
192 191 191 187 184 183 183 190 192 186 166 185 179 177 177 184 178 178 177 156 174 189 199 192 194 193 192 197 200 203 207 208 214 214 225 245 251 264 280 325 327 350 330 296
190 171 198 195 195 196 201 198 197 198 181 177 186 186 181 175 179 183 180 187 185 193 190 191 191 194 198 201 207 207 208 218 217 228 255 251 270 333 324 344 346 278 453 433
202 203 204 199 189 201 192 179 186 187 192 193 187 175 185 182 186 182 185 196 170 192 189 194 190 201 203 210 214 218 220 221 256 321 323 286 331 339 339 282 348 443 422 411
196 197 197 206 190 191 188 181 181 185 187 191 186 182 178 176 191 194 101 122 188 190 190 198 201 210 208 208 224 225 239 255 352 280 328 337 289 279 310 435 433 414 404 398
207 204 155 201 192 187 188 181 180 185 185 179 169 183 176 190 194 190 97 179 119 196 201 196 205 202 216 224 204 251 264 331 274 329 348 306 280 338 434 419 410 400 393 376
203 204 197 183 179 175 182 194 179 178 180 182 185 197 185 189 105 185 190 189 194 188 195 205 222 224 226 229 252 333 268 338 347 337 273 294 363 417 408 398 396 389 372 358
176 183 183 174 163 176 175 180 178 187 184 184 194 198 198 198 197 190 188 198 205 210 205 227 232 223 239 260 274 307 346 343 280 289 311 435 411 395 392 390 387 367 358 349
193 179 189 189 180 175 195 182 189 192 95 199 196 194 198 196 192 196 204 211 207 217 225 231 256 281 277 315 351 350 299 288 300 347 421 405 391 381 380 387 367 358 351 347
192 177 184 107 187 183 180 187 196 193 197 194 199 191 192 198 200 206 210 215 218 228 242 270 289 304 333 352 285 288 283 323 435 417 402 388 384 375 384 370 356 349 342 338
172 189 180 173 193 193 193 193 199 193 191 199 203 193 201 201 213 214 214 216 240 273 290 328 321 341 331 291 293 309 356 432 411 403 457 418 386 370 372 360 346 341 336 329
152 186 189 184 191 148 82 139 191 199 204 199 196 194 201 215 214 204 228 244 270 269 335 331 315 273 309 298 320 445 422 413 492 472 435 392 371 370 359 340 340 334 329 340
190 188 192 193 163 196 189 195 195 202 198 191 203 203 204 209 227 243 268 256 273 280 340 281 319 298 291 378 436 419 488 432 389 417 395 373 363 354 342 338 328 327 320 347

GFSCGP_2pvu_pres_015.txt.gz
Presure
229 227 224 243 248 233 238 234 233 239 233 225 228 244 133 227 220 133 209 211 208 212 225 229 227 205 199 194 197 201 203 198 194 185 117 187 184 184 183 160 179 183 177 157
149 152 175 235 232 231 226 223 224 227 222 232 192 227 221 222 163 213 214 206 216 229 201 197 192 202 205 205 200 192 186 183 185 186 178 172 190 187 176 174 162 118 136 187
148 230 229 232 227 227 239 223 222 194 219 222 175 216 212 208 218 213 208 211 209 195 190 178 209 205 192 182 179 179 173 186 172 179 185 184 186 192 201 207 198 134 204 198
219 220 229 225 228 229 223 133 139 220 225 212 212 206 211 217 217 213 207 209 192 185 193 202 196 187 181 184 182 179 188 186 178 180 179 181 182 191 189 196 177 193 186 191
244 228 238 130 195 129 133 139 226 225 217 211 204 204 210 207 204 209 199 188 189 194 199 194 184 184 182 175 137 188 188 182 183 173 180 156 181 190 199 124 194 190 152 200
238 238 197 166 227 190 223 214 214 219 218 200 204 193 196 196 191 199 197 192 194 197 196 189 180 180 171 177 188 181 179 184 175 175 180 137 181 115 108 189 194 195 199 199
251 229 233 241 255 238 228 234 226 219 209 215 204 195 202 195 194 192 193 192 192 193 185 182 179 180 178 180 182 178 180 175 174 181 115 97 193 159 192 197 199 195 205 207
234 238 240 255 251 248 246 240 241 231 218 207 195 204 193 191 194 188 191 190 191 181 191 178 186 178 175 182 181 180 176 173 182 115 124 194 187 192 194 126 129 144 130 187
216 212 231 239 248 260 240 243 258 256 228 196 191 198 199 193 193 191 186 187 175 172 188 186 178 171 173 171 176 178 180 183 188 191 196 184 193 120 122 125 212 217 214 221
211 212 213 205 200 200 202 201 200 183 212 194 194 197 190 189 189 188 182 179 183 179 190 179 179 180 173 178 177 179 119 137 193 189 189 196 194 204 216 215 216 224 229 216
198 200 190 192 195 197 197 202 184 202 197 194 194 193 188 192 190 179 176 178 188 188 181 181 178 184 182 177 143 182 188 200 195 197 197 202 216 213 215 220 230 223 235 243
191 189 195 195 195 204 201 202 195 185 177 180 194 189 190 181 178 184 193 187 176 179 182 185 177 179 168 181 183 188 200 196 193 197 201 206 212 212 227 233 234 240 252 269
188 191 190 187 190 195 185 183 181 187 191 193 188 181 180 184 189 188 180 178 184 181 177 175 181 126 182 188 193 203 192 197 199 201 206 210 221 232 225 236 249 258 282 273
188 190 195 191 187 186 184 184 187 183 182 184 188 188 190 188 176 175 182 181 179 173 176 151 109 188 190 198 194 191 193 200 204 212 215 226 231 231 252 263 314 277 363 336
195 188 188 184 206 197 212 196 187 194 201 198 193 183 174 182 187 186 185 182 181 178 107 154 184 189 195 184 194 187 202 205 211 224 235 248 241 266 288 344 363 316 301 314
190 195 188 198 197 206 203 212 207 204 191 183 183 184 180 180 189 186 181 181 176 204 192 105 197 106 196 198 193 205 206 221 229 250 246 261 290 370 342 276 298 311 341 429
190 190 190 196 197 195 200 189 189 189 189 187 182 184 181 180 179 179 181 188 187 128 198 194 192 193 192 208 211 220 230 236 245 342 352 346 339 343 309 311 327 436 420 404
186 193 193 200 199 196 186 187 191 184 180 184 183 182 182 180 180 185 191 193 195 193 194 195 190 190 207 210 222 237 236 256 284 332 291 264 307 303 313 347 427 410 397 386
192 185 203 199 193 191 187 189 186 180 169 161 174 173 183 181 187 195 190 193 193 198 191 193 197 210 209 227 232 227 268 268 287 292 290 293 312 332 426 417 403 391 390 383
192 183 202 185 180 175 182 178 177 182 179 172 181 179 176 184 189 189 192 192 198 193 194 213 211 225 228 229 246 282 268 297 293 306 311 320 360 426 409 406 428 402 383 379
196 182 205 171 171 202 186 166 188 187 182 181 187 189 182 193 195 192 199 197 194 203 208 212 218 235 236 265 280 272 307 298 303 313 335 435 414 422 471 451 410 386 377 362
182 195 128 209 163 170 168 171 184 183 190 187 188 195 193 196 157 191 197 200 212 207 221 214 242 251 264 279 299 314 302 304 315 408 428 415 475 473 386 417 389 377 362 350
201 206 208 87 189 187 173 187 171 181 188 195 198 196 205 191 193 198 199 213 215 214 237 256 226 258 276 305 322 309 313 325 449 425 475 420 391 379 415 387 372 359 344 335
197 203 193 181 186 175 181 169 187 193 199 200 199 198 198 198 207 204 214 223 219 239 234 252 252 270 298 332 319 324 340 441 480 433 408 478 446 406 384 371 358 343 336 330
197 204 167 178 186 182 188 190 191 200 199 197 196 191 200 202 201 217 225 218 230 246 248 253 265 315 339 326 329 386 434 457 412 492 464 433 402 377 365 353 341 339 326 329
195 181 163 184 183 193 192 193 204 201 196 197 192 201 202 203 214 228 217 224 236 248 267 260 292 349 326 334 437 431 439 405 390 449 416 387 361 362 351 343 336 325 323 321

GFSCGP_2pvu_pres_018.txt.gz
Presure
234 233 233 230 221 223 224 222 219 215 211 241 217 241 236 229 232 235 230 219 194 229 226 203 230 205 204 197 198 212 215 205 192 184 192 180 188 182 187 186 179 175 176 164
210 226 230 242 246 240 249 244 238 236 233 231 227 223 216 222 205 214 198 210 227 208 209 225 196 203 185 182 189 204 194 189 191 181 189 193 193 190 184 187 175 162 188 175
217 226 225 232 171 145 194 226 223 222 220 222 229 223 133 234 224 214 219 225 221 213 216 209 196 193 198 201 204 196 188 183 182 182 191 185 186 191 187 173 192 183 188 194
223 220 153 147 170 232 228 231 232 227 226 151 139 228 224 216 219 214 213 212 215 203 213 192 191 200 198 211 197 182 182 181 182 185 189 190 188 185 183 101 105 184 187 204
156 223 225 225 225 235 223 231 217 141 215 147 223 228 211 202 211 206 210 215 202 198 197 191 195 203 204 191 183 183 187 182 180 178 183 179 180 181 183 188 189 191 199 196
221 223 231 236 235 236 176 180 228 226 218 212 220 216 223 211 200 202 192 194 199 160 189 197 201 202 179 189 183 183 190 183 182 181 180 183 167 166 185 191 191 197 202 180
247 253 233 233 236 241 253 249 235 230 222 229 221 218 212 202 210 199 203 196 193 191 191 197 193 183 174 181 183 188 182 182 186 184 185 158 120 181 193 104 164 201 196 200
235 197 244 248 253 253 239 243 243 243 239 238 240 225 219 202 206 185 201 191 191 193 196 187 185 182 180 190 186 183 180 178 182 182 184 187 196 193 190 203 194 200 209 212
222 213 210 210 212 205 203 201 200 218 229 223 229 228 222 191 187 197 198 192 189 191 191 178 173 187 186 183 183 183 184 180 183 185 188 193 192 201 192 201 199 208 220 225
207 208 210 211 204 205 201 202 204 202 200 199 198 200 194 187 190 188 189 189 199 191 179 187 189 189 175 183 185 176 183 178 174 190 188 197 198 189 203 204 216 225 230 239
200 201 196 194 196 189 193 191 198 193 195 193 191 204 200 184 180 189 185 178 178 188 185 183 175 185 188 188 185 183 144 160 183 188 193 197 193 204 212 220 232 240 240 238
200 192 193 194 195 200 197 193 196 197 197 191 190 180 176 191 188 189 182 190 194 188 179 193 190 189 186 183 174 103 167 147 193 199 191 200 186 212 235 245 229 247 243 269
199 191 192 193 186 189 190 190 187 186 183 182 184 185 185 180 191 190 193 187 179 185 182 184 186 184 185 187 192 185 193 194 190 201 203 213 216 230 233 244 250 274 301 286
196 194 192 192 193 195 195 195 195 192 191 189 194 192 195 204 203 186 184 188 182 184 182 179 177 181 188 166 191 192 194 203 202 210 216 220 235 243 242 279 282 303 317 309
193 189 190 190 187 191 199 205 200 204 209 202 201 202 197 189 192 187 180 185 184 176 181 183 184 189 190 191 195 200 201 207 212 220 223 245 254 261 276 337 330 318 326 341
193 191 190 191 190 194 195 203 211 210 201 194 195 188 185 186 179 192 161 175 178 181 188 183 183 192 197 197 198 193 213 214 216 236 248 268 267 281 339 338 335 335 402 429
198 196 190 191 191 186 192 199 204 206 204 188 193 192 187 181 181 185 179 182 181 173 190 186 190 194 196 187 196 210 231 218 234 244 257 277 296 338 339 336 344 435 424 469
194 194 190 185 191 192 184 197 194 186 196 206 181 181 174 185 183 184 179 175 175 185 193 191 191 198 192 204 216 226 223 230 245 270 273 323 347 344 340 431 429 451 481 428
175 195 185 177 192 180 195 189 193 200 172 173 191 183 171 171 181 181 185 190 195 192 191 199 198 202 205 211 226 236 240 254 279 276 323 345 327 337 430 421 497 405 388 403
180 188 197 188 192 187 194 169 195 194 163 178 171 166 174 174 179 177 181 196 197 200 196 200 207 203 212 228 250 248 244 290 275 299 345 317 435 434 464 421 397 389 415 395
178 178 180 150 191 191 182 204 199 129 194 177 179 180 174 182 176 191 194 200 199 201 208 209 216 222 239 230 246 245 277 288 307 339 317 449 473 426 484 485 437 408 386 365
202 215 166 195 189 200 191 198 205 190 187 188 180 176 171 186 197 199 202 202 207 210 208 213 228 237 235 253 247 250 301 321 341 319 450 453 416 464 463 430 401 378 358 353
207 213 216 187 186 198 201 207 205 180 165 171 176 190 191 206 202 196 201 210 207 215 219 234 234 227 247 240 245 324 306 336 318 444 441 405 386 441 415 389 369 358 351 346
220 204 196 197 192 199 203 209 180 195 190 189 183 201 204 199 192 206 212 210 213 228 234 225 226 231 241 249 292 311 341 321 433 444 406 384 376 371 366 367 357 348 345 334
200 177 211 204 190 151 204 187 189 189 183 180 200 202 201 192 204 203 214 218 220 226 226 228 249 246 246 283 293 332 338 453 452 413 384 373 363 371 362 353 351 347 334 329
192 198 195 205 200 189 100 193 195 196 196 198 200 204 202 203 205 214 215 212 225 233 226 247 239 239 287 301 328 342 484 455 426 390 367 360 359 371 358 354 344 336 326 322

GFSCGP_2pvu_pres_021.txt.gz
Presure
225 168 231 237 233 227 228 230 232 249 235 233 236 228 221 252 233 250 249 215 214 233 134 232 226 223 218 216 207 215 210 202 204 195 203 198 184 182 184 185 189 187 191 188
231 230 235 234 232 233 233 232 230 230 227 227 229 245 243 249 245 237 233 205 134 219 221 219 214 225 212 222 209 200 204 204 202 209 200 185 181 185 188 187 182 189 184 190
138 164 232 228 168 227 234 233 225 157 145 246 234 235 224 223 213 141 220 233 226 215 211 222 224 214 229 204 204 193 203 203 209 200 185 181 183 188 193 188 188 194 192 131
219 226 223 223 224 229 229 148 145 208 216 218 222 225 221 204 189 218 215 228 214 213 204 214 217 227 199 201 199 200 202 201 188 188 178 187 192 195 188 185 186 186 131 184
223 219 221 218 214 193 230 238 229 227 227 220 217 218 221 212 220 218 217 209 202 201 208 200 193 202 198 194 201 200 196 186 177 177 190 196 193 187 189 184 129 190 183 197
217 220 218 219 225 235 234 238 239 234 231 227 229 230 234 230 220 207 207 209 205 188 201 201 195 191 193 195 198 193 189 191 182 187 189 185 186 189 183 170 185 197 195 197
224 238 255 234 231 250 255 251 252 261 248 238 237 245 255 256 256 229 207 205 174 199 194 197 193 194 192 188 190 186 181 190 195 193 192 192 185 185 184 187 194 198 194 199
244 242 243 244 245 236 222 227 224 226 223 221 231 224 223 229 238 245 221 207 190 188 196 193 190 182 197 192 190 189 194 181 191 190 187 184 188 107 198 200 186 195 202 208
235 223 214 216 218 212 204 205 202 204 204 203 202 201 198 199 200 209 202 195 193 196 196 185 190 188 184 197 193 185 193 189 183 181 140 102 199 197 190 193 199 204 213 215
216 210 207 206 210 207 204 206 203 202 205 208 209 197 204 202 203 201 198 192 190 202 197 192 191 192 195 189 186 185 183 182 185 98 155 191 193 192 194 197 198 221 231 220
205 192 200 199 197 192 193 197 192 189 188 200 200 206 207 200 196 192 190 188 188 182 191 192 197 190 189 191 183 180 189 188 125 185 187 192 194 194 198 207 219 237 241 243
194 186 199 198 196 190 193 196 197 196 191 193 193 188 197 193 193 198 198 190 205 211 205 192 189 186 183 178 180 187 183 182 192 194 192 191 200 205 212 218 237 256 255 273
203 193 200 199 195 192 196 196 196 196 196 209 207 213 204 198 207 201 206 205 196 192 189 181 170 173 183 183 182 181 187 187 196 192 198 203 207 214 227 252 250 262 287 321
196 196 199 199 195 196 196 200 194 192 197 190 205 202 202 207 205 203 199 195 190 186 178 182 187 185 181 180 184 188 193 195 194 200 198 209 223 252 262 250 288 318 356 363
196 200 189 201 200 195 193 192 195 194 196 194 209 211 205 199 199 196 191 194 187 174 184 176 184 179 184 181 183 195 196 201 201 211 216 247 244 263 253 288 338 345 338 425
194 194 195 194 198 197 198 196 196 196 179 198 198 201 224 192 210 168 175 187 189 103 181 176 173 182 182 187 197 200 210 210 220 239 237 244 260 248 287 331 350 336 434 427
195 193 191 194 194 195 196 193 174 184 200 180 190 184 204 199 201 164 168 185 179 172 175 176 181 181 196 198 201 210 212 228 231 234 238 259 253 272 344 348 345 436 449 429
187 181 182 182 184 178 180 185 195 186 197 190 200 196 197 205 199 193 189 179 178 180 177 180 191 200 197 195 211 220 218 226 229 241 259 251 260 341 351 402 452 452 414 469
190 186 182 187 183 181 181 178 183 186 189 191 193 197 200 203 195 189 186 184 175 185 187 185 198 199 195 204 215 223 223 231 247 248 253 257 345 357 454 468 416 408 479 426
189 189 191 196 205 201 203 196 209 214 196 196 190 194 197 205 190 186 176 182 180 188 183 202 203 204 207 213 224 226 226 240 241 258 255 279 364 479 444 412 389 384 412 376
206 203 199 197 202 205 93 216 226 218 220 189 195 195 202 191 183 181 181 177 187 185 203 205 203 210 214 221 227 233 241 254 244 284 304 370 477 447 413 385 369 374 369 362
195 196 194 203 206 216 223 219 217 218 224 224 199 203 194 187 181 179 188 197 202 207 202 204 213 213 225 219 231 237 243 227 278 326 373 486 450 414 386 371 360 372 359 355
194 197 206 205 207 217 223 218 217 207 199 203 200 191 190 193 197 196 184 203 203 198 203 216 214 225 217 235 230 246 263 254 322 378 494 456 419 385 366 349 369 368 359 351
198 192 185 211 144 207 197 199 200 213 201 191 187 196 199 198 194 192 209 202 201 204 218 214 222 225 234 234 187 262 312 319 365 474 460 426 392 366 352 371 365 362 357 343
192 202 205 202 206 207 228 207 195 190 193 195 197 198 204 201 193 212 204 204 209 215 220 226 227 232 236 227 250 301 254 347 402 452 427 396 372 348 358 359 362 361 343 334
129 209 214 214 212 208 190 187 199 201 197 191 195 204 193 210 212 202 210 212 218 226 224 231 236 241 254 246 298 264 331 383 447 406 391 369 349 338 356 353 346 347 334 335

GFSCGP_2pvu_pres_024.txt.gz
Presure
222 228 230 229 224 223 226 226 227 231 234 238 242 258 248 251 252 269 243 233 261 222 225 231 170 225 225 224 206 218 201 205 215 209 211 191 201 201 206 207 206 175 185 190
226 226 223 213 221 220 220 223 229 227 224 231 232 235 239 213 232 230 222 224 229 221 244 233 209 204 208 218 211 209 219 220 221 211 197 192 201 201 204 190 182 185 187 197
219 218 217 226 230 235 235 231 231 231 229 230 229 181 144 203 226 222 220 217 212 209 210 213 222 215 205 203 214 213 208 212 200 198 195 200 200 195 192 193 192 200 195 196
234 229 230 154 161 219 224 219 217 217 223 209 156 218 223 218 220 218 216 218 220 215 216 217 214 212 209 204 206 203 199 194 194 199 201 196 193 191 189 200 195 199 197 193
222 219 221 220 217 217 216 214 217 215 218 216 220 222 231 225 216 212 220 225 223 229 223 212 209 210 212 204 199 192 194 195 192 189 197 194 192 192 186 200 185 191 148 191
216 215 215 214 211 210 211 233 233 236 237 242 244 194 237 236 231 224 217 213 215 216 215 211 213 209 210 193 200 202 193 188 195 187 188 193 187 192 189 186 158 95 133 193
197 219 218 219 238 238 244 252 250 247 250 248 243 238 232 236 239 243 249 241 235 213 207 205 208 202 193 191 188 195 193 192 189 195 194 193 184 182 184 187 157 196 204 204
214 255 242 240 240 234 230 223 218 218 215 210 211 208 212 207 210 209 210 217 220 219 219 212 200 190 187 188 191 188 188 189 201 186 184 181 191 185 103 156 193 203 199 204
231 224 235 225 222 215 213 209 206 208 206 201 201 203 203 206 207 202 200 200 207 204 197 193 192 183 188 185 198 202 202 181 174 184 186 185 114 186 140 194 195 203 204 213
218 212 216 203 208 209 200 203 202 200 197 202 198 196 196 201 205 206 201 194 191 189 188 192 197 197 209 207 189 189 181 185 191 191 184 184 187 187 194 199 205 207 210 241
214 205 203 198 194 200 198 195 195 193 198 205 207 200 199 198 199 205 215 214 212 214 213 211 211 202 196 190 182 182 185 178 190 180 189 182 192 200 203 204 219 225 234 250
197 200 198 187 187 196 199 195 201 193 199 194 195 201 196 205 200 214 212 211 211 209 204 199 198 199 194 176 179 181 179 182 181 182 185 193 202 202 199 207 235 231 245 263
191 198 203 199 192 198 201 199 195 125 204 206 194 202 198 200 196 204 204 211 206 201 197 194 172 171 186 188 180 183 187 183 181 187 196 204 203 195 221 231 233 242 267 259
191 195 198 196 193 193 193 198 200 196 193 194 192 194 190 197 201 194 191 197 202 194 196 191 196 187 194 185 191 181 181 183 182 195 204 211 208 222 225 240 247 273 268 283
194 194 195 196 196 194 194 193 197 201 198 197 197 189 187 187 198 185 199 195 197 199 201 196 193 193 192 186 177 181 188 181 198 205 207 208 221 229 244 254 265 265 319 382
191 197 197 195 193 193 193 195 195 191 187 177 181 192 199 199 193 194 197 195 195 199 206 196 192 190 180 180 186 190 180 198 206 201 215 224 229 242 251 280 267 305 437 494
196 191 185 193 196 196 191 184 184 186 188 192 191 197 209 219 228 222 189 195 192 200 202 198 188 182 181 183 183 187 198 206 201 215 228 233 249 254 279 261 390 501 503 434
192 191 192 189 189 189 188 188 187 194 201 206 208 216 230 83 222 217 189 191 197 202 199 192 187 183 184 188 181 203 206 206 216 228 230 248 261 275 268 379 495 459 425 399
189 191 192 192 192 195 197 202 201 164 200 205 213 220 220 222 221 215 207 201 198 188 186 188 189 190 193 189 211 206 210 227 229 240 240 261 252 272 314 490 459 425 393 373
204 203 205 206 206 202 195 193 194 198 205 203 212 213 218 213 192 194 203 199 191 187 190 196 196 198 209 206 205 222 224 231 241 238 257 242 270 293 489 463 420 388 366 377
195 193 196 203 203 196 193 192 199 203 210 214 213 207 195 220 188 198 197 190 188 195 193 202 205 209 202 222 218 222 229 247 261 269 262 266 284 482 466 425 391 363 374 371
194 195 202 210 207 204 145 211 200 205 202 201 208 238 202 194 189 188 193 196 189 201 199 205 196 213 219 217 224 233 249 258 241 254 299 281 460 450 403 380 366 349 362 368
195 204 177 189 95 198 207 202 200 217 211 213 220 192 187 181 191 200 200 195 204 200 205 213 217 219 221 224 234 249 254 239 262 247 312 389 468 417 381 364 352 342 363 356
191 200 202 203 199 203 208 208 218 217 222 208 190 191 183 194 197 196 204 208 202 212 215 220 223 219 225 234 244 255 244 263 275 311 365 459 445 394 370 358 346 340 357 351
186 200 201 196 209 205 204 213 203 205 202 203 201 189 189 196 203 198 205 210 213 215 219 222 216 228 231 240 256 244 255 268 310 318 431 437 405 373 366 355 348 346 354 348
195 162 187 180 210 219 185 207 198 190 190 197 200 199 202 199 202 211 214 215 211 218 223 225 233 234 238 256 252 265 287 305 309 416 440 416 381 363 371 357 349 345 345 349

GFSCGP_2pvu_pres_027.txt.gz
Presure
223 227 231 230 229 230 233 234 234 231 231 236 239 240 242 236 219 224 216 242 240 234 244 238 232 225 224 225 215 214 203 204 205 204 207 204 205 213 224 217 194 194 196 202
131 191 220 219 220 220 221 224 224 225 226 225 224 226 234 249 240 228 230 230 192 232 229 220 217 215 214 216 213 210 212 214 216 211 204 207 202 199 197 192 195 197 200 197
188 217 219 221 219 219 218 218 218 219 223 229 234 231 224 227 228 231 226 226 224 221 213 210 210 212 214 220 228 216 211 209 208 205 202 199 194 196 195 194 201 193 203 206
219 219 215 216 217 229 229 234 233 232 228 225 228 222 218 215 217 220 221 214 214 218 222 220 221 221 218 217 217 214 210 205 198 193 194 195 200 198 195 196 194 207 194 190
217 235 224 225 227 225 223 225 224 226 227 223 219 227 223 220 221 228 227 227 230 232 222 220 219 226 223 234 221 201 209 206 212 189 193 196 200 198 198 204 183 196 198 196
227 228 210 219 219 219 217 217 214 213 213 260 264 262 248 239 237 236 242 246 245 252 257 255 253 249 244 230 217 217 204 189 191 196 195 197 200 198 195 186 191 190 191 184
217 217 215 216 216 212 211 216 260 248 241 236 233 234 233 229 226 221 218 216 211 209 199 196 203 207 208 200 193 193 195 194 193 190 197 203 198 183 185 179 183 186 193 193
212 208 213 221 210 224 254 241 230 226 219 214 211 208 205 205 203 202 202 197 198 198 202 203 194 191 189 190 194 195 195 199 203 211 199 193 184 177 183 188 183 187 186 193
210 238 248 227 242 233 225 220 215 210 202 201 204 204 203 202 200 197 202 201 200 199 202 202 202 204 209 208 207 205 205 201 193 197 185 183 184 189 187 181 189 186 191 202
211 235 234 222 222 208 210 204 197 198 202 198 195 198 193 204 200 198 198 194 197 201 208 211 211 210 207 204 201 198 192 168 169 182 182 191 192 181 183 183 190 191 207 210
219 220 214 212 204 201 195 194 199 201 203 196 197 197 198 193 199 199 199 197 199 203 196 190 190 207 199 195 192 202 194 195 193 195 194 186 181 186 186 192 204 203 211 220
206 207 208 197 199 194 190 191 195 199 201 208 203 196 202 198 199 200 200 184 191 196 199 195 200 193 196 203 208 203 203 195 194 192 183 183 190 190 193 202 218 217 237 247
200 192 189 198 198 200 195 195 197 199 199 194 203 203 204 202 197 196 196 187 191 188 190 192 199 199 197 194 195 212 204 200 199 185 191 192 195 200 213 217 222 228 259 268
187 196 191 190 196 192 195 196 199 197 193 194 199 197 191 187 178 189 189 199 222 214 226 228 228 191 197 198 205 204 199 193 191 193 193 202 204 214 222 224 235 263 260 283
192 189 193 196 197 196 195 194 194 195 195 193 186 182 187 191 201 215 215 222 222 224 218 212 190 207 202 203 199 191 191 194 197 204 206 207 219 218 227 238 261 253 260 281
191 187 185 189 197 197 192 189 186 186 186 188 188 188 200 207 210 208 211 217 223 221 212 209 203 201 201 193 188 191 192 198 202 207 220 224 220 229 237 247 262 269 279 284
189 189 187 188 191 192 194 197 195 193 191 201 204 202 199 197 211 210 215 217 210 206 197 207 202 197 196 197 196 194 204 198 223 219 218 215 231 232 252 272 270 278 299 470
188 194 191 191 191 190 193 198 205 207 202 187 198 196 200 203 208 209 211 203 238 204 196 195 189 200 203 197 204 203 215 215 217 223 225 232 238 257 274 262 264 296 468 427
188 190 188 196 207 206 198 201 201 204 197 196 199 206 204 201 202 205 217 244 200 193 182 187 198 199 201 203 212 214 213 212 223 235 234 244 265 257 251 287 387 446 441 397
190 209 208 199 200 196 188 197 202 205 188 203 202 203 200 214 217 225 214 197 189 190 187 191 202 196 210 210 216 212 216 225 233 236 247 264 246 260 289 375 432 451 412 378
197 194 190 191 201 202 204 199 202 202 201 202 195 204 207 218 218 204 201 196 200 194 195 204 207 203 205 215 214 218 225 231 239 251 265 233 264 288 324 430 446 432 388 368
189 195 191 122 125 130 188 195 196 198 201 207 208 215 211 196 197 196 191 190 192 202 207 203 206 208 212 213 222 229 230 238 249 260 234 253 277 321 428 434 434 398 369 363
188 199 190 190 195 199 196 185 199 201 199 207 208 208 180 200 190 197 189 200 200 210 204 201 207 214 215 219 227 232 233 248 242 226 259 308 318 428 434 437 411 379 363 361
195 197 201 188 194 203 195 190 193 203 212 198 187 209 200 195 189 195 200 198 208 200 208 210 216 214 217 230 228 238 249 240 276 279 309 318 419 435 430 424 391 365 350 362
159 205 207 201 201 191 194 199 204 204 210 223 205 196 191 186 200 194 196 211 202 212 201 215 217 218 226 228 244 251 232 281 298 308 317 411 440 435 417 409 377 358 356 362
201 199 165 164 181 192 197 200 198 213 226 204 202 188 195 200 191 208 203 208 212 204 211 222 213 225 232 246 255 237 256 272 306 319 417 447 433 418 418 395 365 351 347 332

GFSCGP_2pvu_pres_030.txt.gz
Presure
236 230 227 221 157 234 234 235 244 236 232 236 234 219 216 229 202 204 205 209 222 208 202 209 213 209 236 229 233 257 248 222 216 215 208 202 202 205 210 203 197 203 196 193
233 141 159 226 222 154 224 227 228 227 230 237 238 237 238 235 231 231 227 236 241 240 241 224 230 232 266 260 243 227 216 210 204 210 207 207 213 213 212 203 196 190 186 197
219 224 223 221 141 227 225 221 221 221 222 222 222 222 220 220 222 223 224 225 223 221 221 232 230 223 227 198 214 211 213 213 214 213 212 212 202 201 203 201 187 190 192 195
218 221 200 141 162 219 221 222 223 218 216 216 224 225 223 224 228 232 233 227 223 232 228 215 213 214 215 220 217 219 215 214 213 213 217 210 205 205 203 189 193 191 192 196
216 215 112 137 215 218 219 234 235 231 225 222 223 222 221 218 219 223 224 219 222 237 240 242 247 249 242 241 236 231 226 222 219 214 198 196 192 192 195 199 203 208 209 196
207 217 128 219 221 227 230 229 223 218 215 213 212 211 230 249 255 253 254 248 233 219 212 210 205 205 204 209 205 193 193 189 192 193 198 202 202 205 212 215 186 202 195 197
220 156 112 227 220 218 218 216 213 216 213 245 243 239 227 222 216 210 205 206 206 202 201 201 199 192 213 212 217 225 225 223 221 217 212 207 206 205 202 190 205 207 208 199
222 200 218 220 217 216 207 207 208 236 226 217 215 214 208 205 203 200 199 197 200 208 209 202 203 200 204 206 205 201 199 196 196 194 203 206 208 207 206 205 204 193 193 190
214 208 215 214 212 211 241 237 227 220 218 212 207 199 204 194 195 197 206 201 199 201 197 195 201 200 197 200 200 194 202 200 197 205 205 205 203 206 206 200 197 194 188 185
158 187 231 242 246 235 224 222 215 211 205 199 202 198 199 201 195 198 200 198 193 192 197 196 190 184 193 192 195 193 192 200 202 197 199 197 205 201 195 192 187 189 195 195
207 218 240 235 224 224 206 205 200 192 192 193 203 202 204 203 201 198 195 197 201 198 194 192 191 188 214 216 218 224 224 214 191 191 194 195 186 190 186 191 185 201 226 235
226 214 220 208 208 201 206 197 196 194 193 201 197 197 197 193 192 200 198 191 187 178 203 220 224 225 221 221 219 211 214 210 205 203 196 191 189 190 184 204 221 213 244 248
213 203 200 198 190 199 198 201 201 198 200 202 198 198 195 195 193 188 185 191 199 211 214 219 218 218 215 223 214 204 202 198 193 194 196 197 198 220 215 220 227 242 250 243
200 198 187 195 195 194 196 197 200 201 198 198 191 189 190 191 193 196 203 206 203 208 214 214 246 236 230 216 207 198 182 191 195 197 203 215 216 228 230 231 240 246 244 254
199 191 188 190 192 197 192 197 197 199 195 192 195 196 197 203 204 205 201 196 208 211 209 214 233 230 212 202 193 186 184 187 204 209 210 215 228 226 228 238 241 240 252 288
197 195 192 192 189 186 189 192 192 188 193 193 197 206 205 200 202 203 200 209 205 202 225 224 243 208 197 191 194 187 209 205 204 215 211 218 223 218 233 238 243 246 265 290
193 192 191 194 193 193 194 190 191 194 199 204 201 200 202 199 196 200 201 204 209 228 215 199 203 200 195 192 194 203 205 206 211 212 218 217 220 229 245 243 234 245 282 301
189 188 190 190 185 187 190 204 211 205 196 195 198 194 191 189 197 208 203 217 216 216 184 198 192 191 199 201 201 207 211 201 212 213 215 233 230 243 241 234 247 260 302 403
189 187 186 191 192 191 201 196 190 196 200 210 189 195 198 208 196 203 210 211 206 178 201 192 188 200 193 201 212 210 202 203 216 221 235 244 245 241 237 283 275 287 409 460
193 194 191 189 198 194 193 192 193 197 206 185 191 195 197 200 199 206 203 221 209 200 193 199 191 195 201 213 208 202 213 214 221 235 240 244 254 242 256 269 282 355 460 444
197 196 197 197 195 121 151 192 186 197 187 188 194 190 192 199 197 201 215 228 195 186 199 191 199 201 209 205 203 213 212 211 236 241 201 252 242 248 267 302 349 361 444 432
196 195 199 196 189 187 190 201 197 184 195 200 188 189 196 200 200 206 222 209 192 195 196 201 195 207 204 207 214 213 223 235 243 195 257 242 250 289 279 330 359 442 428 421
197 200 193 189 192 201 202 198 193 197 198 191 187 195 199 203 191 209 223 197 194 193 203 198 207 204 197 215 212 228 238 247 242 256 245 252 296 270 318 364 450 434 421 415
198 190 186 190 197 196 189 192 194 192 173 188 189 200 205 214 201 216 229 193 198 200 202 212 209 204 214 215 223 240 242 228 236 217 268 293 265 320 341 401 442 427 419 404
193 172 148 199 194 190 188 193 194 183 189 189 202 203 205 208 215 224 191 201 202 204 206 212 214 211 214 226 238 247 227 224 248 293 288 263 314 338 380 381 433 426 419 391
163 193 164 187 169 193 194 183 188 191 198 203 201 201 219 224 228 193 203 204 209 207 213 217 211 187 224 237 227 245 210 252 259 271 264 313 331 356 381 366 433 428 415 372

GFSCGP_2pvu_pres_033.txt.gz
Presure
250 238 234 227 228 227 229 227 226 229 226 234 235 224 218 219 213 204 203 204 204 204 205 211 204 208 209 213 236 240 231 253 189 228 230 218 222 216 202 204 211 213 213 212
239 239 239 240 240 237 240 240 118 234 234 234 236 231 226 226 235 234 224 223 224 217 216 211 228 235 225 223 223 193 212 215 211 204 205 203 205 208 212 217 217 214 207 194
232 233 232 231 211 226 227 224 224 189 225 225 226 227 228 226 225 226 227 227 228 229 229 225 218 224 223 223 218 212 216 179 222 221 222 223 225 229 208 204 192 191 195 197
226 223 221 219 218 209 218 222 224 221 218 216 215 216 218 220 220 221 224 220 218 218 223 216 216 227 236 241 241 240 229 212 207 202 202 203 197 195 195 198 204 207 206 207
198 132 217 220 219 217 213 119 215 213 213 215 213 214 232 225 223 217 217 222 234 245 247 238 220 208 205 206 204 203 203 204 203 197 211 214 216 214 215 212 208 201 199 207
175 217 220 217 214 213 204 211 214 217 220 225 223 218 213 232 264 262 254 237 219 209 203 201 203 201 200 201 203 209 196 203 206 205 206 203 200 200 202 200 201 201 201 202
219 217 217 215 177 219 222 229 225 221 216 212 214 250 235 223 218 212 206 201 199 198 197 198 204 207 197 201 204 204 199 196 194 194 202 199 197 194 197 197 194 200 206 205
214 217 225 220 226 220 221 218 217 218 212 239 222 218 213 206 204 198 199 194 190 202 208 198 201 195 193 201 203 203 201 192 215 225 226 230 232 236 234 213 207 203 199 196
229 226 227 219 216 214 214 215 213 238 222 217 213 209 204 197 198 196 192 200 207 197 200 193 198 199 193 186 180 224 227 229 227 228 225 220 212 205 198 191 195 197 199 194
218 217 217 214 184 136 149 236 224 217 208 206 202 197 193 195 205 203 201 191 197 191 198 196 190 190 209 212 218 220 232 221 220 218 208 202 195 185 185 188 190 189 190 196
216 214 207 183 236 233 225 216 212 205 204 193 188 191 198 201 201 190 196 197 191 193 194 197 210 205 213 212 212 213 244 237 221 207 199 190 181 183 189 186 197 201 205 242
209 207 217 209 224 220 211 204 205 200 193 195 197 201 200 196 198 194 191 187 191 195 205 208 201 208 206 205 227 247 264 214 201 191 193 193 184 191 194 203 207 235 245 252
202 215 223 226 210 205 200 198 197 198 198 194 200 195 192 188 189 192 193 200 205 205 202 199 202 202 214 224 243 208 205 199 192 186 186 188 209 207 217 216 238 247 244 243
225 217 210 201 195 200 193 195 192 196 201 201 194 194 190 192 193 200 203 207 203 200 197 199 197 212 219 224 196 199 192 184 192 185 193 213 212 212 213 237 243 244 238 251
210 201 200 198 193 191 190 196 195 187 190 195 194 195 195 201 199 192 201 199 192 192 205 210 219 213 215 196 198 193 189 185 191 200 215 203 211 220 236 244 240 241 232 238
195 194 202 194 191 194 194 197 196 197 194 193 198 206 206 197 192 197 196 193 204 209 192 207 219 218 226 213 192 198 186 194 199 210 208 215 222 200 215 248 238 221 217 241
190 199 195 195 194 190 194 195 188 190 197 208 202 199 198 205 201 188 191 192 196 201 203 202 210 222 209 199 196 190 203 198 209 213 212 214 216 231 242 243 218 212 248 269
192 194 197 193 191 184 193 190 195 190 205 195 195 188 154 200 183 193 200 196 191 205 202 207 206 223 226 191 183 202 202 210 215 207 199 217 224 235 250 238 225 243 277 265
196 198 196 192 191 186 184 189 193 198 193 196 196 194 196 182 189 199 196 184 196 202 199 202 220 220 191 183 202 200 195 212 212 179 216 218 234 247 253 237 238 277 262 270
198 196 192 193 192 190 183 194 204 193 190 192 189 202 198 193 196 195 185 190 203 203 200 206 225 218 188 202 202 195 208 210 193 217 200 237 245 254 235 232 249 279 270 300
202 198 195 195 193 193 198 190 197 196 191 192 198 185 192 190 190 187 189 198 201 193 212 222 228 191 202 203 202 210 207 199 216 225 233 247 256 241 250 262 276 270 284 390
205 203 200 190 196 195 197 197 190 192 196 196 185 190 186 192 186 189 192 200 195 213 222 220 198 203 192 202 211 208 213 213 222 236 247 259 250 256 252 272 279 280 358 326
209 207 205 202 198 204 199 184 189 200 194 190 183 190 183 190 192 192 199 201 211 225 227 197 202 196 203 212 211 215 210 225 229 242 261 248 253 255 262 279 263 361 330 379
216 217 214 212 161 189 188 197 191 192 188 190 190 187 196 191 196 201 205 212 226 204 191 198 202 208 210 216 218 216 225 229 248 260 250 251 248 261 273 266 350 339 377 364
124 86 132 134 200 200 200 197 194 194 186 190 192 194 197 202 200 208 224 226 197 200 201 203 206 211 220 213 224 226 234 247 250 219 261 253 253 284 271 344 352 359 364 351
197 200 198 190 190 191 188 186 188 195 191 195 199 202 200 200 216 230 236 196 200 202 208 210 220 223 216 228 229 234 250 235 238 249 262 270 262 268 273 355 323 366 354 411

GFSCGP_2pvu_pres_036.txt.gz
Presure
168 229 226 227 228 231 232 219 228 226 225 224 219 222 211 212 211 213 211 217 213 216 211 202 204 203 204 205 204 248 200 204 219 236 239 193 134 206 199 201 209 216 213 195
237 230 142 167 181 227 165 227 226 221 219 220 221 138 221 222 220 220 219 216 218 221 227 234 219 222 230 225 223 222 223 210 211 236 215 210 205 219 233 217 217 197 201 202
235 196 141 187 227 220 224 225 224 224 227 227 228 230 229 231 235 235 235 237 228 219 215 216 219 224 225 220 220 217 230 222 229 223 219 212 202 196 198 201 205 211 208 201
233 233 233 235 232 230 230 227 229 229 229 225 185 222 231 230 226 220 216 214 211 219 223 217 215 218 232 235 227 219 213 207 203 198 199 202 200 194 199 202 201 203 203 196
231 227 228 232 229 223 217 215 212 216 221 145 220 221 218 209 208 213 222 221 217 211 216 242 230 219 212 205 202 201 203 205 202 193 194 199 203 201 193 191 196 210 235 241
217 222 223 219 216 216 210 212 213 208 214 217 214 211 216 222 221 215 228 254 237 226 216 208 203 201 201 206 210 205 197 201 202 200 196 204 216 237 241 241 238 231 208 200
220 209 218 212 194 216 208 208 211 211 211 213 222 217 211 214 233 224 217 209 206 202 199 201 192 208 204 197 203 198 193 200 192 222 223 224 229 227 224 227 212 203 198 195
208 214 213 217 209 212 214 214 218 222 222 213 202 227 226 215 209 205 201 197 197 193 204 208 199 201 202 193 194 193 198 216 218 210 217 229 253 256 217 204 199 194 193 195
214 211 213 212 222 215 216 207 210 208 205 207 227 213 211 205 199 194 194 197 201 201 197 199 200 191 193 196 215 213 214 213 217 234 241 246 216 205 198 192 194 192 190 185
200 218 223 222 213 206 214 207 177 219 232 223 215 209 201 197 192 192 194 206 195 198 194 198 191 200 210 205 204 207 204 200 204 216 211 195 193 190 189 190 185 186 191 205
222 219 211 209 214 213 217 243 235 220 212 206 204 201 191 190 190 196 196 197 196 194 187 199 205 203 201 199 195 205 205 221 207 204 185 193 190 185 184 186 185 203 207 206
214 214 215 209 209 249 234 221 214 207 206 202 198 190 196 197 193 196 196 196 190 202 201 206 197 199 193 209 212 207 219 223 202 208 211 191 193 188 186 202 211 221 210 219
164 208 207 241 205 219 214 207 202 203 202 197 198 193 190 195 195 197 195 195 205 200 192 199 194 203 209 193 190 212 216 219 211 211 203 191 197 185 213 207 209 219 223 236
207 202 219 223 210 208 204 202 201 195 188 191 193 197 194 193 199 196 201 208 196 189 198 192 189 191 193 201 205 201 205 212 221 200 197 191 189 201 204 207 217 216 231 239
207 198 210 208 200 199 195 197 190 192 192 196 187 184 187 193 194 205 202 199 208 200 187 193 197 192 190 203 203 194 215 220 211 201 190 174 203 206 207 213 218 219 238 249
197 211 209 196 197 198 193 194 189 190 191 189 192 197 198 205 199 190 189 209 198 187 190 202 190 186 200 199 198 213 229 225 203 190 191 201 206 209 210 215 196 232 249 255
205 198 199 195 197 196 195 195 195 195 193 190 185 195 198 202 193 199 191 189 194 188 198 197 185 190 202 191 208 222 220 199 195 198 203 204 207 217 213 218 232 243 255 239
197 199 196 193 197 193 197 196 194 188 189 120 188 197 193 198 195 192 206 197 194 191 196 183 189 201 193 201 217 223 205 195 194 205 206 204 214 216 224 228 234 206 260 239
195 193 199 197 192 195 193 192 196 194 191 194 195 192 198 195 189 207 190 192 191 194 187 194 199 196 200 213 221 204 197 194 201 203 206 216 218 220 228 235 254 262 261 249
199 194 193 196 196 195 192 195 192 194 193 197 198 194 191 191 203 191 196 188 195 189 193 203 193 203 205 221 211 198 199 202 203 213 216 219 224 233 242 248 247 239 275 288
199 197 197 196 194 151 197 196 194 195 193 195 192 193 189 200 194 190 186 194 189 193 203 189 200 206 225 222 199 200 200 204 212 222 224 228 231 242 213 241 256 251 269 281
201 201 202 203 204 203 202 199 197 197 196 196 196 191 201 188 193 188 187 192 195 199 191 201 209 228 209 200 203 200 204 211 223 226 229 228 240 252 270 246 267 270 269 268
207 210 211 210 212 213 100 89 208 207 204 199 202 194 190 192 189 191 192 193 195 197 202 214 235 198 198 205 208 211 213 222 227 228 236 247 257 257 247 262 261 277 280 324
197 83 88 106 202 103 217 220 214 181 200 208 194 189 186 196 191 196 192 199 198 209 232 199 198 200 206 204 211 212 214 226 230 238 247 253 256 259 258 266 288 274 285 290
126 186 198 197 197 200 201 203 201 197 184 191 200 196 193 194 192 198 203 207 223 227 202 202 203 210 210 213 220 218 231 236 240 248 255 251 251 254 264 284 304 305 327 377
190 188 195 194 197 197 201 202 198 200 201 196 193 189 193 196 201 203 212 215 201 200 202 204 211 212 215 228 233 238 239 245 252 256 246 256 252 264 277 314 338 341 383 405

GFSCGP_2pvu_pres_039.txt.gz
Presure
243 234 141 228 141 229 234 228 171 220 219 229 235 135 135 148 189 201 215 213 155 205 207 205 199 205 204 210 208 207 204 204 203 231 233 213 220 226 232 220 215 234 235 206
237 232 231 239 163 189 226 225 224 225 163 162 220 141 163 217 217 210 217 207 204 203 209 213 213 216 216 218 222 235 215 212 207 212 212 223 255 213 220 210 207 201 198 198
229 232 241 224 219 220 224 225 182 206 217 216 216 216 215 216 218 219 217 215 215 216 224 231 234 235 221 212 210 216 217 213 220 224 217 220 209 205 202 201 201 198 198 199
225 233 220 224 218 175 216 219 218 218 215 215 219 219 221 225 228 230 228 227 228 227 223 218 212 213 220 217 231 228 223 217 212 205 202 200 198 197 194 194 201 203 220 226
226 233 230 223 215 218 212 218 220 224 223 224 233 230 223 217 217 215 215 213 211 211 216 221 216 213 231 223 214 212 202 197 206 211 193 198 203 204 211 214 224 220 268 271
167 228 226 225 225 226 227 226 228 219 215 215 214 212 211 211 212 208 209 219 218 215 221 235 225 215 209 201 194 202 203 190 203 203 199 200 207 217 231 220 240 243 245 220
228 223 223 223 219 221 218 217 212 211 214 203 209 211 207 203 207 217 216 225 231 220 212 206 203 200 196 207 201 201 202 193 210 216 213 214 212 215 212 213 216 205 200 198
217 215 214 213 214 207 208 213 207 203 210 207 208 213 221 222 214 124 224 214 209 204 201 198 202 212 198 204 200 203 212 205 203 206 218 211 221 216 203 205 206 198 192 197
219 220 214 208 203 205 205 212 210 211 216 217 217 216 213 209 226 218 210 206 197 200 200 212 194 202 196 200 194 203 202 198 199 209 202 190 221 216 223 204 199 214 207 194
209 209 208 208 210 209 215 209 214 217 210 208 203 201 223 217 210 206 200 194 200 193 205 193 200 199 191 208 201 200 193 204 197 194 211 208 201 222 221 220 212 204 196 193
211 208 206 208 208 215 215 211 207 197 197 204 219 213 213 207 201 199 196 191 190 203 198 200 194 193 204 194 198 192 193 190 191 201 203 209 224 225 232 217 204 194 195 193
204 206 211 219 215 215 208 204 201 202 227 216 210 203 200 201 196 188 200 191 197 196 198 196 201 200 192 199 190 199 191 190 194 200 201 205 224 224 220 200 202 200 199 199
210 219 214 207 208 208 205 210 213 224 211 207 205 197 200 196 197 199 191 197 197 200 200 208 201 203 204 190 190 197 192 183 201 200 195 214 222 232 200 198 197 195 207 207
211 211 212 207 213 205 239 226 219 211 206 198 204 200 197 191 193 190 191 191 200 202 203 194 209 203 191 184 196 192 191 181 192 196 200 221 226 205 202 198 194 200 206 217
201 208 207 208 241 230 206 213 213 203 203 199 196 189 195 190 189 190 198 201 206 199 201 191 195 195 192 192 194 182 184 190 199 201 209 228 215 199 200 200 207 212 225 234
205 205 208 203 219 213 209 205 205 201 197 195 194 187 190 190 191 189 183 201 197 195 191 206 197 191 196 191 183 193 191 194 198 207 225 233 204 199 201 202 209 222 235 230
205 203 208 204 212 207 208 205 201 200 196 195 193 193 189 190 192 191 192 196 195 196 197 205 190 192 194 180 191 198 191 198 206 226 226 197 201 208 207 211 222 230 234 239
201 210 197 216 205 201 205 198 198 196 195 195 188 189 190 190 191 191 198 195 202 199 204 193 191 186 186 191 197 196 195 208 226 215 198 200 208 204 209 224 226 236 239 246
199 213 194 197 198 195 195 196 189 188 196 194 190 190 192 194 193 198 193 193 200 201 190 189 188 186 191 192 198 196 207 227 200 195 201 208 206 209 231 234 236 242 248 259
205 208 198 195 192 191 196 198 198 196 196 194 195 197 197 197 198 201 201 204 207 187 193 190 184 194 190 198 195 204 229 197 202 199 206 206 213 225 236 241 242 250 261 250
198 200 199 201 200 197 197 198 196 196 132 204 203 201 201 201 202 205 208 212 203 190 183 189 197 191 198 199 208 209 199 199 198 201 205 216 228 237 239 245 249 261 245 259
200 198 201 200 201 201 198 198 196 103 202 205 206 208 210 210 205 208 186 187 194 194 188 188 194 197 195 200 209 200 202 201 202 211 222 228 238 239 243 253 253 249 259 269
204 198 198 201 202 93 203 206 208 202 199 203 213 212 212 207 197 181 190 196 189 182 191 198 196 206 217 230 202 204 203 204 191 227 235 239 243 251 257 258 257 256 270 272
197 137 162 201 207 211 202 187 194 200 188 205 192 193 197 198 202 196 196 192 188 194 199 209 212 222 215 202 204 215 202 217 229 240 240 240 249 259 256 263 258 262 267 284
183 165 189 197 206 199 191 187 189 192 195 190 194 191 199 202 198 200 192 193 202 205 213 216 216 201 205 208 214 194 220 232 240 241 251 253 262 252 262 256 272 280 331 337
196 191 111 187 194 190 200 202 199 192 193 202 201 203 200 199 208 194 199 201 211 211 216 198 208 207 213 213 210 225 239 243 248 248 256 254 260 251 254 270 318 343 347 358

GFSCGP_2pvu_pres_042.txt.gz
Presure
244 241 228 225 228 226 241 233 233 139 133 137 140 131 134 152 222 218 214 160 216 215 225 224 144 211 202 203 193 194 193 197 197 201 204 204 217 223 223 219 223 256 225 219
246 236 225 226 147 226 227 133 202 139 156 152 162 230 233 190 139 141 147 196 144 204 206 167 201 200 196 202 205 212 214 219 233 228 214 214 216 219 221 230 214 207 205 205
243 233 238 229 225 225 233 224 228 140 224 220 222 177 177 220 222 222 221 212 213 209 215 210 193 202 207 212 221 232 219 213 211 215 223 226 220 213 204 199 196 199 194 191
236 235 229 227 225 233 232 217 223 233 225 143 174 220 217 218 218 216 208 216 213 214 213 216 214 216 230 223 211 212 215 230 225 218 214 208 202 197 200 206 208 203 210 219
238 248 235 226 241 219 213 221 219 219 216 213 214 220 215 215 219 218 221 223 223 225 226 219 215 212 220 219 218 234 223 214 210 202 195 199 211 214 206 216 232 232 225 230
236 227 223 215 206 214 143 207 213 211 212 213 220 222 216 221 217 210 226 211 215 210 175 220 222 242 218 225 215 207 204 198 198 207 207 216 204 196 207 222 209 222 227 225
224 226 172 172 141 213 213 210 210 215 223 224 213 208 211 206 216 206 205 209 209 218 229 234 222 211 209 203 202 198 209 209 208 209 210 205 210 208 198 204 200 201 210 233
228 219 228 221 217 216 222 222 220 224 212 206 206 208 196 198 205 207 208 212 227 223 220 208 209 203 199 199 211 208 209 206 206 214 205 198 195 208 199 190 201 210 218 226
227 227 228 220 219 218 219 214 210 206 211 204 203 205 207 201 214 211 212 217 209 216 207 207 196 194 202 199 197 206 203 211 204 206 192 203 192 193 190 200 206 203 217 234
222 219 211 214 220 210 208 207 206 207 208 205 205 210 216 215 209 212 217 215 211 207 208 192 204 200 198 205 202 211 204 203 202 193 196 200 190 196 185 192 203 206 226 238
210 212 207 207 208 207 207 209 208 209 206 208 215 213 213 208 209 213 215 209 204 205 198 204 200 203 206 201 213 203 204 210 194 192 189 193 194 191 184 196 202 213 237 224
207 207 203 204 208 208 208 208 206 209 216 212 213 207 205 223 216 212 206 200 197 194 206 199 200 196 201 213 201 193 216 190 194 191 189 194 190 198 194 200 208 234 221 202
205 203 209 209 210 211 214 213 219 216 213 213 208 226 223 215 207 198 197 193 197 205 198 193 197 194 205 205 195 195 203 198 192 195 186 186 185 200 199 205 219 231 200 203
206 205 208 207 211 213 215 211 212 209 209 211 220 221 210 206 200 197 191 193 198 193 194 194 193 200 208 200 192 214 194 191 188 187 191 183 192 200 200 216 241 201 202 201
205 206 210 218 216 208 208 210 210 206 232 225 221 213 201 198 192 190 190 191 196 200 193 194 193 202 208 203 207 201 194 191 184 190 188 193 200 201 213 225 201 204 201 184
213 210 214 210 198 210 201 205 208 232 229 216 214 198 202 197 189 189 193 195 188 190 189 188 197 201 198 202 191 191 194 183 188 185 193 198 202 205 227 201 206 197 182 205
210 216 207 197 206 203 209 205 231 217 215 203 198 200 198 199 195 195 196 192 189 192 196 196 198 196 201 203 188 190 187 189 187 193 192 200 203 222 216 186 196 197 204 221
214 211 202 203 205 204 221 215 216 213 207 198 195 194 199 197 197 196 192 193 194 193 194 197 200 201 210 196 186 190 186 192 184 195 202 208 210 222 199 202 213 205 221 242
202 207 195 203 202 213 204 193 203 198 193 189 191 192 194 193 195 197 196 195 197 199 201 203 208 215 189 190 197 193 188 195 200 207 211 227 220 203 206 214 206 225 248 248
207 203 197 205 200 210 201 195 195 194 194 196 198 189 200 200 202 205 207 206 206 209 206 181 187 180 196 193 193 187 197 198 210 212 225 207 205 210 215 212 239 244 245 253
205 203 200 203 196 204 201 200 199 201 200 162 129 200 200 206 207 202 203 214 205 199 199 204 186 195 197 187 189 198 198 208 210 218 199 211 196 217 216 240 249 251 252 271
201 202 204 196 202 199 198 198 202 202 201 201 202 207 201 198 201 195 193 193 202 200 196 192 193 197 199 191 195 197 206 209 215 203 211 211 213 222 240 246 242 254 270 258
202 205 197 194 201 159 88 201 199 200 204 204 202 182 190 189 190 194 191 198 202 186 197 201 198 196 191 193 202 206 213 213 235 211 220 213 227 237 247 245 267 265 248 259
191 202 197 196 199 202 207 203 194 201 200 199 189 191 191 193 194 189 200 186 192 199 199 192 195 192 200 204 210 220 221 222 214 221 219 230 241 252 254 271 259 278 262 260
203 204 160 197 199 204 207 191 191 190 192 190 190 192 194 190 196 198 194 193 199 197 194 193 198 203 204 218 215 245 217 217 224 228 236 242 257 261 272 248 258 261 273 271
205 205 206 204 198 206 199 190 191 190 190 195 196 189 190 202 187 197 193 201 202 207 203 204 205 215 210 238 233 214 220 228 231 239 257 261 282 264 264 251 262 272 318 376

GFSCGP_2pvu_pres_045.txt.gz
Presure
252 260 236 237 221 222 226 140 162 165 122 149 139 126 229 123 135 134 134 130 128 151 222 215 208 142 192 142 198 211 205 204 200 200 202 191 189 195 195 199 205 230 214 228
254 255 247 234 224 221 231 225 225 232 221 213 202 236 230 156 150 132 141 187 222 218 190 222 217 213 220 216 209 206 202 201 193 192 195 206 215 245 233 224 232 226 215 205
247 257 243 226 228 231 228 223 231 221 138 131 134 151 134 134 221 220 178 142 197 213 184 209 210 209 199 196 196 193 194 197 202 203 214 230 218 228 229 218 209 201 193 193
266 263 250 229 229 229 228 153 228 225 227 229 222 222 219 224 232 231 222 224 219 219 221 213 210 211 212 213 214 215 210 212 232 221 220 229 223 214 204 196 195 194 217 211
253 255 241 232 219 227 223 225 234 220 221 219 216 226 225 219 218 218 218 218 215 211 210 212 217 216 216 222 234 221 211 216 219 232 220 208 201 196 196 195 214 203 204 204
247 244 238 228 230 216 234 218 214 193 220 217 224 221 211 215 216 218 217 236 230 228 219 220 219 218 211 216 222 243 231 221 213 202 199 198 202 201 211 211 202 199 195 194
234 245 241 238 224 236 220 220 212 213 214 215 215 214 222 214 217 223 214 223 210 206 211 208 206 218 245 229 218 215 206 198 201 198 206 197 218 214 205 206 201 208 202 199
230 224 216 218 222 223 215 216 212 213 218 213 217 223 222 206 216 198 196 190 214 210 219 216 221 216 216 204 210 192 197 200 204 194 202 215 214 208 209 201 200 200 197 197
227 221 224 222 222 222 220 218 215 212 217 219 220 209 206 208 209 203 208 205 216 218 212 219 212 212 202 205 188 199 200 195 198 203 214 211 212 218 204 202 200 195 192 192
212 178 222 225 225 221 222 222 221 221 218 208 213 212 207 210 211 210 215 221 216 211 219 209 207 198 199 190 196 196 198 200 208 214 199 198 199 202 201 193 194 189 191 190
220 220 224 218 228 212 220 210 211 208 206 207 204 204 204 209 212 219 212 214 218 216 210 207 200 198 189 202 196 193 205 212 208 194 202 203 209 198 192 191 187 184 194 196
210 208 211 214 205 210 212 212 210 204 205 203 211 211 208 211 213 213 204 222 218 213 203 200 195 195 202 194 193 191 202 196 212 197 201 201 189 193 195 186 182 191 196 199
212 203 210 210 208 216 203 207 207 206 206 208 213 220 209 207 210 206 225 217 209 203 200 195 191 196 193 193 189 189 189 203 201 201 202 196 193 192 193 190 193 191 194 197
216 211 208 208 207 204 204 205 209 208 218 219 216 216 210 216 216 221 216 207 202 204 191 190 194 193 186 190 189 192 194 200 202 205 207 196 190 192 193 192 194 193 208 213
214 216 207 232 204 207 206 204 210 221 214 209 214 206 212 239 225 214 202 198 204 200 196 203 193 192 194 194 196 200 200 203 211 210 200 190 191 192 194 187 194 212 217 225
241 215 216 203 204 205 205 222 218 211 211 206 215 239 239 220 207 200 198 200 196 193 192 190 192 192 193 200 201 202 209 213 203 192 187 185 196 194 193 205 207 216 220 239
239 215 200 215 212 207 214 216 205 210 210 206 246 221 213 201 200 197 194 197 198 198 197 198 201 203 205 210 213 213 210 185 190 182 193 199 197 195 205 205 216 217 230 214
208 214 210 211 209 208 213 201 206 209 210 231 216 212 205 199 197 192 190 191 194 197 199 202 205 206 212 204 194 196 202 207 197 194 202 200 198 204 205 218 218 239 216 217
205 211 205 212 213 211 206 199 207 190 203 196 204 199 194 195 188 198 200 202 202 201 206 205 207 198 194 197 206 188 186 204 203 194 202 200 204 204 214 214 245 216 216 228
209 208 211 213 211 207 198 198 209 200 205 199 194 188 97 197 196 200 201 202 207 195 183 189 188 199 186 193 196 201 202 199 198 203 205 205 211 217 230 234 211 220 230 247
208 205 214 208 209 205 200 201 201 199 202 200 198 197 199 201 203 201 203 205 187 188 192 193 189 199 206 188 194 198 202 202 199 207 203 216 218 243 219 211 228 243 251 259
206 204 213 203 203 203 201 201 197 198 199 199 197 199 200 202 206 208 205 181 195 200 199 191 200 193 186 194 194 200 200 203 202 211 217 234 237 208 219 236 247 253 256 268
212 203 212 214 179 196 197 202 190 198 203 201 202 200 204 201 201 199 192 197 195 194 191 199 194 191 194 195 200 202 203 212 216 232 248 214 217 228 240 251 254 270 269 269
207 206 209 213 208 204 199 202 193 196 199 200 200 203 197 192 194 191 196 194 186 193 194 181 199 194 191 204 199 211 211 219 247 212 215 230 242 249 252 254 272 251 267 267
204 199 211 215 104 204 201 200 202 199 198 197 202 201 198 195 197 190 195 193 193 197 188 197 187 204 200 208 210 213 234 233 212 226 233 241 256 253 266 277 257 278 265 279
211 216 214 211 209 207 206 203 203 204 202 197 196 197 201 194 191 195 195 198 197 201 194 194 201 205 208 214 218 240 210 221 231 233 247 257 257 268 273 267 277 276 278 392

GFSCGP_2pvu_pres_048.txt.gz
Presure
255 244 257 118 161 233 228 230 190 227 134 149 229 230 115 116 125 140 130 126 143 117 138 129 128 125 124 190 231 224 205 208 227 222 181 223 208 209 202 200 192 194 187 197
253 241 268 251 245 232 199 221 221 123 228 132 121 133 130 137 128 129 162 238 231 137 129 130 135 140 197 212 215 209 203 209 218 224 206 203 198 196 196 194 198 204 204 227
237 238 269 250 238 224 215 219 207 187 223 136 222 225 227 226 132 218 233 209 176 228 217 208 209 207 216 220 178 211 210 204 206 201 201 201 197 200 201 201 207 232 232 225
250 247 237 259 238 223 213 216 217 223 230 217 220 225 225 216 229 152 132 131 134 194 225 217 213 211 204 204 201 197 201 201 199 205 203 203 205 224 223 232 233 209 200 202
248 248 238 251 247 225 223 224 217 224 219 214 223 219 224 136 222 215 218 222 219 220 135 217 213 209 211 210 214 211 207 208 208 215 231 215 218 233 224 200 198 202 193 196
229 248 251 250 244 228 222 228 223 217 221 222 220 230 219 214 206 216 217 215 212 218 214 211 214 212 214 211 217 235 222 217 210 223 223 216 208 199 203 197 193 194 202 211
231 229 233 245 239 236 221 217 222 233 215 226 225 227 220 220 218 215 215 212 209 211 222 227 228 223 218 213 207 209 226 232 215 210 198 195 200 198 194 195 201 213 206 212
232 226 239 231 237 234 216 228 237 217 210 220 222 215 204 199 215 216 227 228 220 215 217 208 188 209 219 213 220 226 209 203 201 192 198 188 195 196 200 219 207 195 195 209
225 200 236 224 220 218 228 237 219 219 219 218 214 214 218 220 223 226 218 224 209 200 207 206 217 218 214 219 213 205 199 198 189 198 184 196 204 205 220 201 203 199 201 203
209 239 227 224 223 222 223 223 227 218 218 222 228 219 222 218 206 208 211 216 214 215 225 219 214 211 218 211 203 198 191 188 199 194 192 196 191 194 204 198 197 208 205 209
209 230 229 230 227 227 225 202 210 218 214 215 214 208 209 215 210 205 209 211 211 210 212 212 222 221 214 206 199 193 193 198 195 191 192 191 192 195 206 206 205 208 210 205
212 214 231 231 216 209 213 224 213 209 206 205 206 208 211 210 216 218 214 207 207 202 222 222 217 208 199 200 197 190 194 193 193 190 191 193 199 205 207 213 225 205 199 188
210 209 226 214 210 210 206 207 209 210 207 211 215 215 202 207 180 217 202 207 209 217 228 219 208 202 198 189 189 195 197 193 197 196 202 199 204 211 215 203 198 185 193 195
208 210 212 214 212 214 208 206 206 210 210 208 211 211 228 211 206 205 208 210 221 228 219 207 202 190 191 191 192 190 187 191 193 197 203 212 206 197 196 196 198 200 202 205
207 216 214 216 218 215 213 227 206 207 210 205 216 223 214 210 205 206 224 230 229 219 206 196 192 194 193 192 191 193 196 201 209 211 202 200 207 202 187 195 205 205 198 209
210 214 232 248 210 232 220 219 203 207 214 221 209 211 206 209 209 240 230 222 203 203 193 192 193 195 192 192 197 205 215 203 202 197 196 201 192 193 205 207 205 206 208 218
228 227 231 240 242 229 204 218 216 213 215 207 204 203 208 208 252 234 210 203 199 194 192 191 193 197 201 207 217 192 195 189 197 195 198 195 203 200 205 204 206 214 222 247
228 219 231 241 240 237 204 208 216 213 212 200 206 203 211 203 200 208 201 196 194 194 197 199 203 206 212 199 193 193 199 197 202 197 189 201 200 207 203 212 213 226 242 210
228 230 210 227 224 204 217 213 214 218 209 198 207 202 207 211 204 198 195 196 197 199 202 205 202 206 198 184 194 203 191 200 195 198 202 200 205 204 213 214 226 211 209 229
228 224 209 231 216 202 211 212 221 207 203 201 201 207 206 208 206 201 199 199 202 203 203 202 206 211 185 199 200 191 201 183 203 191 206 199 208 208 213 223 215 210 230 236
229 220 212 231 225 208 206 217 143 205 204 203 200 206 201 202 199 195 197 199 199 198 201 203 201 192 202 191 191 200 185 203 183 205 195 206 207 214 224 221 217 235 237 244
230 217 213 228 221 208 206 211 209 205 203 204 201 201 197 196 198 200 201 204 203 201 195 196 192 191 190 194 200 193 202 186 204 195 210 209 214 217 216 232 235 239 253 265
232 214 206 229 220 211 201 202 210 209 201 201 198 201 199 192 193 196 198 201 204 197 196 200 191 193 195 202 198 206 199 203 194 210 207 212 213 224 233 238 242 258 267 276
238 211 214 223 222 212 207 203 209 213 210 203 202 200 200 201 202 201 194 192 198 201 201 192 196 191 204 199 185 205 199 200 210 205 214 214 232 233 238 245 259 273 281 268
223 210 210 207 225 211 209 200 209 211 210 207 202 202 203 205 205 205 205 203 206 208 198 195 192 203 200 208 205 191 206 201 214 218 218 233 230 239 244 262 265 282 263 275
214 221 214 215 219 220 215 201 203 208 207 204 203 205 205 203 200 199 198 191 194 193 193 200 205 212 207 202 192 206 204 216 217 226 230 232 238 246 258 267 280 274 264 278

GFSCGP_2pvu_pres_051.txt.gz
Presure
227 288 242 242 249 248 236 229 235 163 240 236 233 240 237 188 176 205 122 141 132 122 129 129 129 126 128 119 119 126 125 127 132 218 216 215 192 218 197 195 185 184 197 204
225 265 243 240 251 242 231 226 193 240 229 227 165 229 118 209 215 163 154 134 131 125 160 129 126 128 219 204 133 151 128 156 226 209 220 218 213 203 216 217 207 204 199 196
224 266 245 236 255 238 236 218 223 210 228 213 116 117 223 228 177 127 121 132 121 174 128 129 124 168 214 144 127 176 227 212 200 219 219 211 211 206 199 193 194 199 203 208
226 236 261 244 244 241 243 222 217 221 214 222 152 217 121 127 134 116 139 208 224 137 129 205 228 225 147 133 185 208 207 213 218 215 207 201 200 200 208 215 214 219 211 219
297 238 232 258 238 254 239 218 212 214 215 225 220 218 217 132 222 228 223 225 222 226 230 223 138 134 159 221 210 216 215 208 209 210 213 219 216 229 223 226 220 203 196 196
264 222 237 252 244 237 252 213 215 217 222 229 219 218 221 218 189 221 220 160 158 133 160 213 214 217 219 215 219 217 217 217 223 218 218 210 216 228 214 206 199 191 202 200
263 214 236 244 236 243 237 228 216 223 226 220 231 223 224 230 219 215 213 211 215 220 219 220 218 217 216 214 227 224 215 207 206 218 216 222 212 202 203 194 198 196 194 189
261 217 217 230 236 231 228 235 215 216 219 241 231 226 215 217 217 220 219 220 213 213 216 225 230 224 222 209 196 202 201 219 211 209 218 197 203 201 194 203 189 189 189 194
251 224 232 238 236 233 243 233 216 215 241 219 215 213 216 217 209 210 213 205 216 220 211 212 201 200 196 203 215 219 208 210 202 208 202 202 195 195 196 193 191 193 194 194
248 238 215 213 239 239 220 217 225 226 226 217 217 209 211 210 215 224 221 213 205 208 202 201 201 210 215 213 209 206 220 214 203 200 197 196 191 192 193 194 192 190 196 209
213 253 219 213 217 230 227 219 220 230 225 221 215 211 217 217 214 207 209 207 203 202 207 216 214 209 207 208 218 210 208 200 194 193 191 189 192 194 190 193 196 210 208 200
223 253 225 210 222 241 225 219 221 209 212 223 215 212 213 205 205 207 204 202 206 217 215 214 210 204 205 217 214 208 201 196 195 186 185 194 191 191 199 215 207 194 193 197
210 237 243 264 216 233 216 213 216 217 218 211 208 215 200 203 204 204 206 213 217 214 213 213 202 220 219 218 205 201 199 191 195 194 192 195 208 213 209 195 193 188 184 192
206 230 242 261 214 215 202 205 211 215 209 209 211 209 201 203 208 209 209 207 209 214 219 206 223 216 209 203 196 198 199 199 191 193 202 208 207 195 185 184 194 198 200 197
216 203 242 267 233 212 205 209 215 216 206 202 200 204 213 217 215 204 205 208 212 214 243 238 218 210 201 200 198 199 193 193 200 202 207 201 185 190 196 200 196 197 204 203
214 215 234 255 242 209 251 227 210 218 228 205 197 207 220 218 209 204 204 203 201 252 232 220 208 199 199 198 195 196 195 198 198 204 185 184 191 199 202 196 197 195 202 195
209 224 216 246 251 232 230 242 236 230 234 224 212 216 218 209 207 205 206 258 229 229 214 206 202 199 192 192 197 197 195 194 208 192 183 194 186 200 190 205 196 201 194 210
208 224 241 246 253 227 224 247 208 242 201 206 213 213 218 209 205 205 200 204 201 204 202 199 196 196 197 198 199 199 205 210 191 187 199 197 197 196 204 202 204 194 211 206
224 225 215 251 248 229 220 240 237 219 220 212 210 219 215 209 198 206 202 212 210 208 204 200 198 197 198 196 195 201 195 190 189 194 197 200 199 204 203 198 196 205 206 218
208 216 246 251 249 226 220 234 226 222 205 216 215 219 208 209 201 200 203 199 200 200 199 200 200 200 200 203 200 196 198 193 193 197 203 203 197 206 195 199 204 207 216 217
218 219 239 263 256 223 218 218 213 219 216 210 216 220 211 209 208 204 204 205 200 196 197 196 197 196 199 198 199 201 197 193 199 203 204 207 206 193 204 203 211 217 218 229
204 244 249 259 226 225 217 215 231 133 221 209 213 217 209 206 203 203 202 202 204 202 199 200 201 201 202 204 202 196 198 194 204 209 211 204 192 205 206 214 216 224 231 231
217 246 266 248 248 221 215 215 225 228 228 216 207 204 216 215 211 207 207 206 203 203 206 204 207 202 204 195 194 194 188 203 210 206 205 191 209 215 214 217 226 230 233 241
233 290 263 236 231 223 217 214 209 219 220 216 210 208 208 213 214 214 210 206 208 206 202 203 197 200 194 194 203 203 195 207 205 206 192 214 211 212 218 225 232 234 246 245
268 245 240 227 217 230 217 212 211 208 217 225 213 202 199 204 210 212 210 206 201 201 201 198 197 199 202 198 205 211 206 206 212 213 213 210 222 217 231 233 236 246 250 246
250 238 240 231 226 224 222 226 212 211 210 214 216 214 212 214 213 214 213 209 206 202 201 201 205 204 208 209 212 202 211 214 215 207 213 224 218 242 232 244 249 248 246 252

GFSCGP_2pvu_pres_054.txt.gz
Presure
200 229 240 255 254 247 244 237 237 236 240 240 242 238 235 243 239 115 141 167 186 130 135 158 220 124 139 122 131 120 155 128 123 118 114 126 210 207 181 124 217 210 207 205
200 217 242 267 257 243 240 236 234 236 240 166 233 235 196 217 192 224 222 212 190 175 120 225 229 120 127 116 127 127 127 135 139 148 165 191 120 191 156 215 205 198 207 206
183 242 251 218 249 258 232 230 231 188 227 224 226 224 187 232 232 210 209 185 127 174 134 128 141 132 126 119 138 129 127 122 128 200 188 132 170 190 201 207 212 213 207 203
213 244 254 217 257 259 233 233 218 220 220 188 220 221 223 222 221 154 211 128 138 216 209 165 137 148 126 126 149 127 130 174 226 216 134 133 205 203 216 200 193 197 197 206
214 211 276 213 256 249 231 236 211 215 219 218 215 228 225 150 222 224 130 223 223 134 132 168 126 128 213 189 141 223 219 173 135 143 202 203 205 207 204 208 207 228 219 206
205 197 263 223 232 254 240 249 217 210 212 215 214 231 220 221 218 122 166 128 126 153 140 192 220 221 219 188 135 211 221 219 209 213 212 207 225 235 218 205 211 211 210 199
201 202 219 239 205 234 251 246 224 210 213 215 219 221 222 218 197 221 214 214 218 218 220 216 211 211 213 215 218 223 222 215 213 217 209 199 202 216 222 224 208 202 205 201
210 228 208 302 227 225 247 240 240 221 214 211 212 224 231 220 219 218 224 219 210 210 212 213 216 220 218 219 223 220 221 212 200 194 201 224 214 219 218 201 205 197 198 194
215 218 216 241 229 213 233 238 234 228 231 226 212 223 212 211 215 217 213 210 209 208 212 208 218 220 216 211 203 203 203 199 197 215 220 214 213 209 200 200 195 191 190 194
207 217 227 221 264 218 234 231 218 234 221 225 225 212 214 206 202 200 204 202 206 215 215 214 208 208 206 203 171 203 206 211 205 222 210 205 205 200 198 197 189 191 193 190
203 214 230 221 259 236 214 235 216 219 219 218 214 205 207 213 209 207 209 215 215 210 208 208 205 204 202 204 207 205 210 209 197 221 208 206 198 197 196 193 195 191 194 210
209 194 218 227 220 296 221 233 227 223 217 218 223 220 218 215 216 213 210 208 204 201 203 204 210 211 213 210 210 204 202 219 217 203 199 198 195 193 192 195 190 204 207 192
199 203 185 227 209 228 294 207 223 223 203 210 212 216 212 208 208 208 201 202 205 206 208 211 222 221 213 211 211 209 225 221 205 210 198 194 205 202 192 201 210 205 183 184
197 198 216 206 224 218 246 234 207 217 204 217 214 202 206 202 199 205 206 207 212 218 223 212 213 212 206 222 233 228 228 214 198 193 200 197 194 201 202 208 207 185 185 191
211 206 190 221 215 225 216 284 224 209 206 204 210 206 211 201 197 198 202 200 219 216 216 209 209 205 256 235 223 204 200 199 200 195 193 200 203 205 206 202 187 185 193 192
187 202 218 212 239 214 242 249 256 202 245 208 208 205 208 238 195 210 208 211 207 208 205 213 212 263 236 212 205 202 202 196 197 201 203 196 202 196 195 185 184 192 188 185
193 204 216 212 215 216 219 255 263 238 226 243 243 209 234 227 203 207 216 208 204 201 207 211 249 203 215 207 199 194 196 199 200 197 199 196 195 185 189 190 192 193 199 201
212 218 221 218 218 219 211 238 258 248 234 218 251 248 226 196 203 209 215 209 205 203 209 202 209 214 212 209 204 201 195 199 197 194 197 194 193 187 193 195 197 206 204 211
204 200 208 219 211 211 220 232 264 248 228 218 242 206 241 207 215 214 216 213 208 201 201 203 202 199 201 201 199 197 194 191 191 194 192 195 202 197 195 204 200 209 214 202
210 216 216 220 220 196 215 225 258 245 220 229 240 233 220 205 213 214 219 211 209 208 201 201 202 200 196 192 192 192 190 194 196 199 201 196 194 195 205 195 207 214 212 203
219 218 220 225 224 206 208 225 257 250 235 222 217 232 219 212 207 209 226 216 210 209 205 203 201 200 201 201 200 200 202 200 205 199 202 196 205 211 202 203 214 210 206 197
206 208 227 216 192 215 214 221 254 251 235 224 217 224 227 222 218 209 209 212 215 212 210 207 205 205 204 204 205 204 201 204 197 201 203 213 211 203 197 214 205 208 202 218
225 225 222 195 220 199 221 222 250 253 246 223 218 211 221 218 221 218 210 204 205 208 211 212 210 208 206 205 202 201 205 203 205 212 212 210 194 208 213 204 211 225 221 230
224 220 200 220 213 218 228 240 249 239 233 217 221 219 210 217 223 219 210 215 202 197 201 211 214 215 215 211 212 210 208 208 209 211 214 211 203 211 207 215 224 226 234 243
227 214 213 217 220 238 238 261 239 236 230 223 223 220 221 217 212 217 218 217 219 211 211 207 207 210 210 207 207 210 211 209 213 205 209 212 211 213 219 227 231 237 238 230
216 219 221 232 181 248 260 241 236 234 238 227 212 227 232 223 212 217 216 217 216 213 211 208 211 214 215 215 215 213 216 213 220 209 213 212 224 229 232 238 244 233 229 246

GFSCGP_2pvu_pres_057.txt.gz
Presure
204 207 216 222 244 259 247 243 242 244 240 237 238 250 243 244 247 259 268 253 224 152 218 139 130 128 218 126 163 218 125 126 145 137 121 126 121 145 124 195 125 127 203 204
183 211 211 222 247 269 246 228 229 229 240 241 241 231 147 231 228 247 225 212 221 229 128 160 135 152 193 123 127 149 137 124 121 119 123 125 183 131 125 128 135 132 217 212
207 201 211 203 256 227 250 242 230 227 241 232 226 227 233 231 234 253 252 131 215 230 134 221 184 142 130 126 156 136 129 128 118 125 117 160 165 133 159 174 201 230 218 196
206 207 188 222 271 215 258 248 225 225 224 220 224 221 223 227 229 240 235 226 164 140 219 143 121 209 198 139 205 125 120 147 132 126 130 217 145 194 213 207 188 209 210 207
199 200 181 216 240 234 223 243 232 218 214 224 217 222 212 196 219 220 226 231 225 217 122 119 131 118 193 137 137 123 127 134 128 135 134 215 206 204 207 209 208 208 210 239
203 185 204 209 241 251 218 258 243 220 206 212 214 213 222 224 224 155 221 154 166 226 154 163 165 159 122 123 131 132 160 165 216 216 215 217 213 222 216 211 219 217 200 202
201 201 202 211 227 245 204 230 259 232 210 209 212 216 220 224 182 211 214 216 219 218 127 146 135 131 144 213 213 211 212 211 214 216 212 212 216 218 215 206 194 205 228 223
201 200 206 201 198 227 249 201 239 246 222 211 215 213 211 215 226 213 212 218 221 219 214 215 214 215 215 212 210 216 215 216 219 220 208 205 198 195 198 206 222 223 220 220
207 187 204 205 215 216 245 220 237 242 232 219 211 221 213 222 227 213 210 215 218 220 219 216 214 215 215 210 212 214 218 212 205 200 190 201 203 206 221 226 215 217 216 198
190 187 193 196 203 205 227 248 215 225 228 224 216 211 225 219 214 207 206 210 211 210 209 209 211 221 221 217 211 208 206 202 204 200 204 203 212 219 210 210 209 217 200 195
199 182 219 205 193 206 211 225 233 226 220 220 221 218 219 215 207 208 209 208 208 207 210 213 220 218 212 211 206 205 205 205 204 216 204 208 195 201 212 207 213 194 198 207
171 179 190 193 189 207 200 231 232 215 229 214 217 225 223 219 215 217 210 209 211 217 219 217 210 206 209 207 205 203 209 210 202 204 211 201 208 209 204 207 196 201 196 197
207 195 189 202 191 188 224 231 216 245 209 218 215 224 223 217 215 211 217 215 209 209 202 201 206 205 207 205 216 211 209 209 209 211 204 211 203 211 209 193 197 192 196 199
172 168 195 195 208 203 182 213 209 226 278 211 208 207 213 218 216 216 207 205 205 201 208 205 203 205 208 212 207 204 203 204 228 233 224 221 212 199 197 192 194 196 194 193
175 163 196 184 207 206 203 200 218 238 227 255 209 203 205 204 207 208 207 200 203 196 201 209 207 225 208 206 201 205 212 241 232 236 214 208 196 194 195 194 194 194 197 198
173 196 203 187 202 196 215 211 226 215 215 264 238 196 214 211 210 207 205 202 231 197 201 211 223 215 213 201 205 251 251 235 230 211 206 199 195 195 192 199 195 199 196 195
165 194 199 203 209 208 206 227 194 219 229 236 254 233 227 215 234 236 209 224 211 201 202 210 212 208 204 208 237 202 205 209 207 204 202 199 194 198 193 199 199 198 197 201
199 191 199 212 203 207 207 222 207 218 229 225 257 245 234 222 240 245 229 216 218 196 210 208 214 209 209 204 203 204 204 202 200 200 198 193 195 198 199 195 197 202 195 199
203 211 203 183 209 197 198 211 220 239 217 232 259 261 239 226 238 237 210 232 212 211 209 214 213 210 206 208 204 204 205 205 204 202 202 202 197 194 199 196 203 199 201 207
202 201 201 205 204 203 207 219 230 241 226 222 236 255 237 221 229 228 221 216 210 204 203 209 216 209 204 206 203 201 201 200 197 199 200 198 197 201 199 202 203 203 210 208
196 206 202 206 216 211 212 228 218 203 208 227 232 263 242 223 214 220 224 219 215 211 208 202 211 216 211 206 206 207 206 204 204 204 204 204 205 199 204 205 211 214 211 207
209 201 222 209 217 211 227 226 226 221 230 225 229 258 248 231 222 218 210 227 223 219 217 208 204 204 201 205 205 208 208 207 210 212 213 210 205 208 210 214 223 221 209 212
214 218 216 217 216 222 222 223 217 226 213 225 236 247 245 235 228 221 219 214 216 221 219 216 218 213 213 211 203 203 213 209 204 205 209 213 214 215 222 215 210 208 215 223
206 217 222 228 223 225 225 224 214 221 230 267 235 242 241 242 226 195 224 225 224 217 214 215 216 220 215 221 215 211 205 206 206 208 212 204 216 216 206 205 215 223 226 226
215 217 225 219 222 226 227 230 222 226 226 225 254 243 240 235 227 235 227 202 203 220 224 224 217 221 220 218 217 215 204 208 213 214 216 218 209 212 214 223 226 225 231 239
217 218 219 222 215 220 225 223 221 219 224 226 264 238 243 241 244 236 238 218 223 233 221 227 224 214 228 224 217 216 213 212 214 221 219 215 220 231 219 223 227 238 237 231

GFSCGP_2pvu_pres_060.txt.gz
Presure
193 193 209 201 214 212 249 259 243 235 237 234 227 245 244 251 262 244 256 232 229 224 213 212 220 133 133 134 168 139 224 253 224 204 146 122 195 186 129 129 118 126 128 124
186 193 207 180 189 222 255 265 246 231 233 240 229 234 204 232 240 247 254 248 230 223 220 220 208 123 209 209 203 202 204 213 144 134 201 192 124 127 125 126 127 124 134 123
195 200 207 203 193 216 256 251 251 234 235 234 245 230 226 226 234 222 262 259 239 226 224 218 161 213 209 171 142 211 202 131 201 173 133 134 160 125 126 132 131 119 161 198
197 202 202 186 206 219 257 228 261 234 219 230 223 229 232 236 172 233 231 247 255 252 225 183 210 210 207 206 203 212 219 204 193 132 205 184 134 132 122 181 128 154 231 228
197 202 190 201 206 206 216 240 231 243 225 216 229 230 228 221 223 220 221 222 230 226 145 231 219 143 138 121 225 128 206 131 132 203 134 130 120 130 143 230 217 216 216 213
196 187 181 191 189 198 208 257 219 248 233 217 215 218 216 223 190 168 216 195 218 189 216 203 199 132 140 152 136 128 118 121 153 125 158 220 229 219 222 224 223 224 225 225
202 190 184 180 180 200 198 234 236 230 242 215 206 213 214 221 227 216 220 219 214 212 213 213 180 121 218 123 123 226 227 162 185 228 219 215 217 219 220 214 214 219 218 206
194 192 188 207 178 197 189 214 245 210 248 227 217 225 215 216 212 218 213 212 217 221 218 214 212 212 215 218 217 220 220 218 213 211 219 215 218 220 218 205 204 207 207 212
195 193 185 198 188 198 201 204 221 235 215 247 228 223 216 210 213 219 225 224 220 219 220 225 220 216 215 212 209 213 216 219 215 216 217 217 205 204 205 203 205 204 212 208
199 184 204 175 205 204 185 206 210 231 231 208 233 231 220 224 210 229 222 222 212 212 217 218 223 220 215 214 212 217 218 215 209 204 202 204 203 204 203 209 210 218 202 199
189 196 202 170 199 207 212 193 203 208 218 239 206 228 225 220 228 222 216 219 218 213 212 216 215 218 217 223 221 205 204 208 206 206 207 207 205 209 204 207 204 210 196 211
188 196 185 203 185 208 209 207 195 207 215 237 233 212 211 218 215 226 229 219 217 218 217 219 221 214 211 205 204 205 206 205 206 206 210 213 206 203 204 217 198 209 205 218
198 195 194 174 199 192 181 195 203 212 208 237 233 241 203 216 216 217 224 218 217 218 219 208 209 206 205 208 204 207 209 209 214 219 213 207 203 200 203 203 213 215 212 200
191 195 195 159 195 169 211 184 218 200 222 207 217 224 252 229 213 202 203 211 210 206 202 205 207 208 203 205 211 207 213 221 211 204 204 208 205 207 227 232 205 218 203 196
187 194 195 187 197 188 186 204 182 210 185 200 226 219 231 265 233 208 202 204 206 211 205 205 202 221 202 202 206 211 215 205 205 204 207 207 230 240 229 210 203 201 197 194
199 200 196 191 180 196 176 208 203 218 213 197 213 196 81 268 258 238 213 209 209 202 207 208 210 219 210 204 205 213 207 203 197 202 206 228 209 205 205 203 199 194 195 192
193 201 198 196 169 194 176 208 204 202 213 184 210 234 220 251 254 244 233 210 228 230 216 209 224 218 200 204 210 208 209 205 201 201 199 197 200 202 202 199 195 193 192 197
180 207 184 175 168 165 200 201 178 211 205 205 245 221 211 224 249 240 231 225 218 227 240 224 218 213 204 207 211 214 216 212 207 203 204 199 197 197 197 197 198 199 202 203
204 213 173 167 172 191 187 208 196 199 204 218 187 223 223 222 223 243 234 225 220 231 237 235 232 228 212 205 207 205 214 214 210 206 205 202 203 205 205 206 205 206 206 207
209 208 201 166 167 198 191 199 205 181 205 217 234 229 190 219 231 254 240 225 219 219 225 221 216 212 211 205 204 203 203 205 208 208 209 211 208 208 205 202 205 208 205 203
202 198 175 189 174 202 196 203 178 182 233 219 239 220 224 210 229 239 249 233 222 219 219 219 213 213 210 211 211 211 205 204 204 204 202 203 202 198 203 206 200 203 203 207
210 205 189 173 198 205 179 207 207 228 215 231 235 222 223 211 230 239 248 248 237 225 218 215 215 217 218 220 216 215 216 213 215 214 212 211 213 212 206 203 209 208 206 211
209 198 193 193 195 203 201 207 213 216 227 229 231 222 229 226 222 230 237 245 247 241 229 222 225 225 222 218 218 220 211 208 204 218 221 219 212 214 210 210 209 213 212 213
203 198 203 207 199 207 216 218 212 222 225 227 228 213 224 222 224 240 235 245 246 244 237 211 196 223 193 219 222 222 216 214 213 215 212 211 221 221 221 213 214 218 225 216
213 207 200 202 212 211 212 217 214 225 223 220 222 222 211 227 226 215 245 245 238 245 235 228 236 227 230 212 212 213 216 220 227 220 217 222 222 229 230 227 228 237 240 236
212 208 209 204 207 213 211 207 216 220 221 213 217 224 215 223 225 229 248 240 234 237 230 235 229 232 216 219 218 246 215 234 249 218 212 218 221 219 224 226 238 237 243 242

GFSCGP_2pvu_pres_063.txt.gz
Presure
192 188 193 187 210 192 208 210 247 258 246 238 232 236 234 233 246 244 221 232 231 228 224 230 124 223 223 223 153 218 228 133 135 234 123 121 126 122 158 203 120 150 132 147
191 179 189 196 210 194 193 207 251 249 234 234 238 236 240 248 255 250 247 243 231 226 228 138 145 208 204 144 147 228 129 180 133 139 166 224 130 169 128 199 196 140 193 196
188 184 196 194 197 188 201 198 258 256 245 236 236 239 229 232 236 243 253 238 245 237 229 197 219 136 151 211 213 172 214 205 135 132 187 136 147 188 210 190 172 187 124 118
190 180 196 194 193 207 176 213 245 230 241 231 245 234 235 233 231 231 226 248 242 216 223 225 212 214 206 208 212 135 132 135 187 157 148 143 219 220 131 164 144 120 122 163
205 185 194 188 195 190 189 211 212 238 253 233 219 233 229 227 230 228 229 232 245 259 232 216 217 220 229 211 214 215 198 198 191 209 197 119 216 198 123 120 122 144 132 192
195 188 195 184 194 178 189 214 203 247 221 246 222 207 212 221 218 218 147 218 230 221 233 242 218 205 221 155 126 209 179 149 125 123 139 119 185 122 159 211 216 220 225 227
178 197 192 177 197 192 190 184 192 213 236 240 235 215 201 215 215 220 219 219 220 223 221 223 229 232 224 221 226 182 186 228 124 178 214 212 209 205 212 213 232 228 222 228
194 193 183 187 197 177 205 211 187 214 251 229 243 224 209 227 218 223 225 217 219 217 216 221 220 222 223 223 222 223 223 225 231 230 228 227 226 225 227 224 218 223 224 220
185 190 184 189 197 190 176 198 186 189 196 228 243 239 226 219 218 216 216 220 222 216 216 212 217 221 221 219 219 222 226 226 221 217 218 220 221 222 221 224 227 229 206 209
185 190 186 198 188 201 171 207 190 210 205 202 225 244 228 225 219 215 221 212 227 233 221 216 215 214 216 220 218 216 216 214 212 212 217 221 222 217 208 206 207 211 212 214
186 184 187 190 196 194 191 175 196 184 200 215 211 237 242 219 219 224 219 226 228 224 223 218 215 213 215 213 211 209 206 207 215 221 214 207 207 221 208 207 209 212 210 211
192 196 174 196 178 191 198 201 173 185 216 186 211 217 200 255 229 216 220 220 220 229 224 212 210 214 214 213 214 215 217 212 207 203 205 204 211 208 211 209 203 204 204 205
189 186 189 182 194 180 194 194 180 196 178 222 203 193 194 239 249 237 222 214 213 220 224 223 215 218 220 211 212 208 205 208 205 204 201 208 214 214 206 203 201 201 207 198
189 190 179 187 193 186 191 177 178 197 195 182 219 189 198 200 230 240 252 231 214 210 206 211 212 210 205 210 211 207 203 202 207 211 217 219 211 206 204 204 202 205 230 237
173 176 179 185 186 190 186 181 169 179 171 198 206 186 206 237 227 229 246 247 239 206 208 207 208 210 214 215 216 205 233 220 206 206 215 219 211 210 206 204 204 204 200 200
169 184 173 193 184 192 194 195 194 195 189 184 204 194 205 204 229 225 255 261 243 238 222 211 212 208 212 212 210 230 226 213 203 213 212 211 213 211 206 202 204 205 203 201
180 189 189 196 186 192 185 200 180 194 198 185 192 208 184 188 229 222 221 233 259 239 230 222 211 224 217 231 237 219 222 214 203 207 205 203 208 209 205 201 199 199 198 194
194 197 183 195 194 197 186 191 204 169 193 195 205 199 186 211 224 230 211 229 249 250 236 227 222 217 219 229 235 239 223 218 216 207 206 204 200 206 208 208 204 203 202 204
201 200 195 189 191 193 200 189 189 165 170 199 208 193 195 224 214 230 228 218 222 235 247 237 227 223 221 216 226 229 219 214 210 210 204 205 211 210 206 204 204 204 203 207
204 192 194 187 189 171 193 197 210 205 176 197 196 209 185 179 216 230 224 228 234 196 244 241 235 227 224 224 225 226 220 215 211 213 215 215 215 215 215 211 214 213 208 207
201 198 195 196 189 176 200 198 186 169 190 215 208 133 202 217 225 224 227 221 213 223 223 232 248 238 229 222 222 215 218 220 220 224 222 215 210 209 208 207 208 212 207 206
208 213 206 201 199 187 194 200 206 202 201 210 205 180 218 214 228 229 224 227 215 225 224 242 238 240 250 235 223 220 221 222 214 200 199 203 212 210 217 211 209 215 216 215
201 200 211 204 188 189 193 206 200 206 202 202 199 210 220 215 227 224 223 214 211 225 224 220 242 245 237 237 242 228 221 205 219 214 201 210 211 210 207 216 217 225 230 224
214 207 206 206 191 197 206 206 207 201 201 207 201 215 215 217 224 221 220 222 211 215 229 227 249 247 239 240 230 223 222 195 209 219 232 225 215 223 229 211 206 206 214 213
221 216 208 201 202 206 205 206 207 199 206 201 215 212 216 209 226 178 214 221 214 213 222 225 241 246 241 243 239 235 233 233 236 229 216 215 227 218 212 214 214 218 220 212
157 219 217 213 208 208 207 207 198 210 202 214 211 214 218 214 223 212 213 221 217 213 227 222 206 246 246 245 228 227 238 229 209 217 204 209 226 221 228 225 223 228 234 237

GFSCGP_2pvu_pres_066.txt.gz
Presure
200 199 206 192 192 179 197 205 197 204 261 246 238 250 252 225 239 255 242 240 243 247 235 161 221 191 225 214 148 181 127 191 184 129 153 184 179 135 183 134 185 184 190 148
196 190 196 195 190 185 204 203 200 196 262 248 234 226 237 242 239 243 250 241 219 239 255 238 146 131 203 195 202 220 204 163 203 172 189 185 194 164 177 173 180 168 136 134
217 201 197 195 195 182 202 203 186 196 242 244 239 227 238 247 229 232 255 250 232 225 221 234 232 254 236 234 227 194 236 192 168 211 134 198 140 194 139 136 135 207 135 198
200 202 196 187 197 185 202 194 195 179 209 266 244 225 237 237 239 229 232 250 255 237 239 209 222 221 220 205 151 146 226 244 230 228 230 217 243 239 201 129 220 126 191 196
172 195 197 186 184 187 186 192 190 190 194 244 256 235 229 228 232 231 233 223 250 239 230 235 214 222 210 210 216 223 214 215 211 206 204 131 119 124 136 214 203 198 121 123
203 189 195 187 193 195 185 190 188 202 193 246 242 249 222 204 222 224 227 228 230 234 232 236 233 227 220 209 207 207 209 213 217 192 215 204 155 204 202 192 125 151 207 151
197 190 196 199 180 190 181 192 187 191 190 189 227 252 233 221 211 212 223 220 222 224 222 227 241 227 203 209 221 211 208 207 207 213 212 211 164 172 176 125 130 201 211 219
198 189 189 192 194 192 184 194 192 185 187 202 220 224 235 238 216 214 214 231 224 223 225 226 223 226 236 235 217 207 199 204 223 203 220 225 145 146 209 206 227 223 216 219
200 191 196 194 193 184 189 195 190 175 192 186 211 201 249 233 244 222 217 210 220 222 222 218 218 221 224 225 229 232 233 231 215 215 222 226 230 232 230 230 227 220 221 221
199 193 190 186 188 187 189 188 195 178 175 179 184 194 190 250 246 227 224 216 212 212 217 224 228 221 215 217 222 224 225 224 217 215 218 223 222 224 219 225 227 228 236 231
198 197 196 193 182 184 181 192 190 198 169 197 194 192 212 214 210 248 233 224 224 213 215 223 232 233 214 213 210 215 222 222 222 223 222 221 226 219 216 216 202 204 207 208
206 197 196 192 190 175 183 189 193 195 195 174 179 183 211 188 205 200 210 242 231 221 222 218 216 218 213 203 209 208 210 213 215 221 212 208 227 210 187 196 207 206 208 213
204 199 202 187 187 179 188 184 189 184 193 196 178 197 181 178 216 186 228 226 251 244 231 214 220 216 220 210 221 217 216 212 208 213 184 186 179 188 194 205 207 210 221 211
188 197 184 173 189 180 192 178 187 193 174 188 194 192 187 192 177 205 213 226 215 233 257 242 220 217 214 214 216 213 220 215 190 187 195 192 192 197 201 207 207 215 208 203
198 205 196 190 187 173 192 171 183 191 187 198 179 169 180 181 221 197 190 224 190 225 258 265 266 245 222 214 211 212 212 232 217 209 207 203 228 220 216 205 203 207 216 216
197 196 205 191 175 189 197 176 178 186 191 190 200 168 205 191 215 181 169 201 231 233 222 214 213 257 247 241 238 230 215 225 229 229 231 227 236 227 208 202 217 213 213 207
198 196 202 185 173 191 181 178 189 188 188 195 193 177 195 176 196 206 203 174 218 237 232 235 224 260 251 235 233 229 222 228 223 217 237 244 236 232 231 223 216 214 211 207
197 198 179 192 207 192 170 167 188 192 188 196 193 194 172 190 191 194 205 206 210 238 234 230 229 215 238 210 236 237 230 228 231 227 225 231 230 224 221 214 211 212 219 223
206 195 171 196 183 167 176 118 174 187 185 192 197 189 170 171 189 210 206 205 218 185 228 227 226 242 246 246 225 240 238 236 230 227 224 222 227 221 218 218 224 224 212 214
201 203 197 197 197 174 175 193 194 195 187 193 196 199 194 210 203 208 200 205 218 225 231 221 218 214 228 229 243 249 243 251 242 232 220 217 211 185 220 195 217 209 212 208
204 199 197 200 199 190 188 196 199 194 187 149 192 204 198 183 168 201 201 209 215 212 224 223 212 210 217 230 228 229 246 240 237 240 243 235 225 221 202 209 208 199 207 203
173 206 203 200 201 192 195 140 192 179 191 191 185 198 161 183 204 169 199 207 210 212 223 222 215 219 211 215 220 230 237 251 249 237 229 230 232 230 229 223 211 217 216 221
202 209 210 204 206 203 199 187 202 195 200 200 200 202 203 209 177 198 199 205 212 211 222 213 216 223 217 208 214 224 227 237 249 244 242 239 229 228 214 213 228 230 230 233
206 205 206 209 192 191 199 193 202 206 212 208 205 196 203 211 208 203 201 209 213 216 220 222 213 204 219 215 208 224 247 253 242 239 241 237 229 229 214 227 229 230 234 230
214 211 209 207 204 201 205 197 206 201 205 203 202 200 206 202 201 207 208 210 215 210 208 222 214 209 214 220 231 217 246 260 254 259 244 241 241 241 236 229 217 224 233 245
213 215 210 203 205 207 205 205 206 208 191 205 201 208 211 212 205 210 209 210 215 206 213 218 205 213 210 227 217 222 236 255 248 249 259 264 255 249 247 245 243 229 229 243

GFSCGP_2pvu_pres_069.txt.gz
Presure
189 204 170 202 172 200 193 195 187 196 211 195 249 254 231 245 246 248 227 206 217 235 253 254 279 244 125 175 115 219 207 214 206 182 192 191 187 173 191 182 177 203 159 193
158 166 202 166 211 207 193 195 187 191 202 206 228 268 241 240 243 212 224 209 221 244 247 258 226 220 222 144 234 227 219 203 193 188 188 175 192 188 190 176 125 124 181 174
193 191 200 191 203 205 196 195 187 200 203 199 199 263 241 239 252 262 234 246 273 227 234 257 222 224 207 155 124 126 223 208 160 186 182 181 170 178 182 185 187 184 174 175
175 191 167 187 196 203 195 196 186 192 200 191 209 247 252 234 259 247 239 235 248 265 230 227 247 244 209 183 202 208 215 212 182 184 192 193 191 198 186 179 189 175 190 195
177 197 195 188 166 211 195 195 187 196 194 202 205 202 270 239 229 244 239 240 233 251 264 239 213 235 241 214 220 219 206 205 241 202 191 195 189 193 179 181 137 127 126 126
191 187 197 196 180 211 194 193 193 187 191 203 184 197 263 247 223 219 222 234 236 238 249 253 248 238 228 233 235 230 238 231 191 218 235 220 188 185 191 190 206 241 231 206
187 189 188 194 167 209 193 199 187 184 190 207 199 198 205 250 238 226 221 219 229 231 235 241 236 236 244 224 214 216 220 221 225 227 224 226 231 236 234 227 227 216 214 223
184 180 194 188 197 207 174 195 193 190 195 188 184 190 185 206 264 242 228 213 221 230 224 184 230 237 246 249 241 214 220 212 214 214 216 213 214 217 221 221 220 224 243 226
209 193 194 194 205 204 191 191 187 190 195 197 193 180 203 214 236 268 252 231 218 211 221 219 219 215 210 228 234 244 248 235 233 226 232 210 224 225 242 238 230 232 222 221
204 209 199 197 223 206 193 195 186 181 191 191 196 183 190 190 194 199 241 253 242 231 219 213 210 213 219 224 220 220 221 223 227 231 231 230 231 232 225 215 208 205 212 213
211 216 204 213 212 203 190 193 191 181 190 190 195 185 185 187 183 192 205 198 198 243 231 243 224 219 224 228 235 238 222 227 232 222 224 218 215 212 211 202 192 195 195 207
216 205 194 197 212 199 192 193 191 184 186 186 193 196 178 178 211 207 220 189 249 246 252 242 235 232 226 232 222 216 241 206 182 193 207 199 201 210 208 192 213 197 193 212
218 208 207 194 217 201 196 195 187 177 192 189 185 186 197 197 198 190 187 200 198 197 242 240 251 254 235 223 216 217 231 203 183 197 196 191 188 201 177 192 182 188 188 186
217 202 205 210 213 202 197 185 192 188 177 188 189 187 171 184 187 187 179 183 197 182 174 245 236 235 263 263 241 220 213 173 182 187 166 172 175 176 210 182 189 190 188 188
220 219 190 218 204 205 196 196 189 189 184 180 188 194 190 190 172 187 198 194 189 185 212 177 242 236 252 240 290 271 231 228 197 211 201 202 187 188 189 190 194 197 197 193
226 208 220 222 211 208 200 200 181 188 186 177 175 185 186 195 183 178 204 198 187 189 172 218 219 241 233 236 248 275 278 255 231 229 209 208 202 205 231 226 220 236 232 233
234 216 216 213 208 200 201 177 181 192 182 192 182 180 188 195 197 201 171 201 196 186 213 199 225 239 241 243 232 216 233 240 248 229 242 241 231 228 228 222 239 238 232 227
238 218 214 208 206 204 201 182 188 184 177 194 185 192 191 190 198 198 200 170 174 190 206 186 221 228 231 231 232 235 235 234 251 263 264 254 249 245 241 239 234 231 226 226
232 225 211 207 207 205 201 186 199 180 185 194 178 180 194 193 192 196 199 199 201 177 128 201 211 219 224 226 214 213 213 219 224 236 243 246 271 258 256 256 247 232 228 223
228 228 214 212 207 200 188 199 203 191 181 183 180 192 183 196 184 192 197 201 182 181 206 185 204 213 213 225 222 218 221 221 219 212 217 238 234 253 264 251 240 239 238 238
228 230 211 212 205 204 200 178 195 195 203 177 193 191 184 196 192 190 193 198 188 211 197 205 200 210 216 214 224 214 211 216 218 226 239 221 241 258 257 253 247 246 238 239
222 229 220 214 203 202 196 197 197 202 184 185 147 197 201 197 190 187 196 200 203 204 202 206 202 208 209 220 214 225 222 218 212 214 224 228 231 243 279 255 248 247 247 246
224 223 213 216 211 203 199 198 195 200 201 207 199 201 202 190 189 199 194 203 200 205 203 200 206 204 206 216 212 215 221 214 215 216 222 235 234 234 247 260 251 258 247 243
225 233 220 217 210 205 199 192 196 200 206 199 201 200 190 195 195 201 209 209 202 201 204 212 207 205 204 210 215 209 215 213 212 219 215 218 227 233 242 258 255 258 249 258
223 235 221 211 212 210 207 201 203 204 200 201 200 202 200 194 206 202 204 202 199 206 213 202 208 203 206 209 211 206 212 211 215 205 214 224 229 229 251 264 265 248 246 233
230 233 227 162 211 211 208 207 206 205 209 211 209 203 200 206 193 197 203 200 209 211 207 208 208 206 209 211 209 205 210 204 209 208 215 222 227 224 240 274 256 256 246 243

GFSCGP_2pvu_pres_072.txt.gz
Presure
200 192 200 207 180 202 197 185 209 202 197 196 194 204 200 261 240 246 226 223 240 213 243 222 258 269 224 192 184 229 171 179 178 157 170 170 176 171 175 194 171 178 178 169
199 205 208 196 179 205 184 187 167 198 195 195 188 203 205 260 241 233 237 249 239 223 220 230 248 264 245 237 225 204 192 211 207 202 189 183 178 200 181 170 174 181 175 187
191 195 205 190 150 200 200 192 191 203 196 189 188 198 205 274 241 263 249 228 222 235 267 252 245 247 264 231 210 218 214 216 216 204 235 204 183 184 183 180 182 181 182 185
197 186 174 187 155 194 194 181 182 203 197 189 186 197 195 230 242 239 259 249 241 236 255 266 234 247 237 233 222 195 235 175 127 215 210 216 165 202 183 201 187 175 164 183
197 194 196 188 195 199 191 192 178 197 202 195 190 201 181 201 253 227 212 239 234 243 242 267 256 241 227 215 211 217 220 204 166 217 208 213 224 210 216 204 198 209 190 189
209 202 194 151 191 193 189 195 175 199 200 196 187 200 216 192 238 239 225 219 222 232 238 248 257 254 247 226 219 208 214 206 208 217 203 213 197 200 197 176 214 193 194 183
195 199 214 196 174 189 191 193 189 207 203 197 197 191 184 188 202 261 238 215 223 222 230 229 243 244 242 246 245 248 203 205 194 196 203 195 211 215 194 205 187 189 188 182
203 196 193 159 175 181 191 183 171 192 203 200 182 193 194 203 215 208 266 252 225 225 232 232 228 229 233 239 244 252 228 237 235 238 235 227 206 221 225 213 191 221 222 216
220 210 207 205 203 184 193 168 191 185 210 201 184 193 196 183 193 205 201 265 254 236 227 222 238 230 227 231 231 234 241 244 215 213 210 203 201 200 212 220 217 208 233 229
240 225 220 213 210 190 188 182 193 187 208 197 191 191 195 190 190 188 189 191 197 227 235 225 226 222 222 226 228 166 169 236 237 241 243 252 236 229 228 228 217 215 219 223
251 247 225 229 209 211 195 188 183 187 210 200 185 188 193 194 187 183 178 218 205 229 227 224 237 232 230 224 224 233 242 245 228 224 210 201 201 199 203 202 205 222 204 201
239 234 234 225 226 211 205 204 211 210 208 200 181 186 189 182 199 178 214 192 194 198 199 221 234 219 246 246 236 239 232 237 210 193 200 191 212 195 205 191 197 195 204 204
275 262 231 221 236 215 206 204 204 207 204 181 193 186 189 181 180 188 182 182 196 176 184 218 185 235 246 230 254 256 234 212 217 187 192 177 201 157 188 183 181 164 178 188
260 254 245 232 225 209 205 208 199 214 203 191 192 181 187 187 193 174 180 200 187 170 195 205 218 196 252 252 256 232 276 241 191 200 180 192 194 180 197 185 184 176 186 208
250 246 235 222 217 223 215 194 202 206 205 196 198 180 189 185 195 182 176 180 186 183 205 187 210 175 228 255 253 249 221 275 212 194 206 186 183 182 190 189 184 180 182 196
245 236 236 227 219 221 215 198 196 208 211 197 195 189 177 185 190 186 192 185 203 178 194 214 191 210 206 232 255 254 258 241 274 202 198 192 195 221 204 189 189 190 206 191
248 237 232 220 229 223 217 199 195 214 209 204 194 191 198 179 175 185 189 194 202 197 183 184 190 180 186 203 185 227 247 247 217 226 251 255 220 217 200 198 199 208 218 202
244 240 235 231 231 223 196 208 196 215 208 198 195 188 194 195 186 179 192 192 196 201 196 188 200 204 181 168 182 217 220 232 237 236 230 231 231 235 242 245 248 248 248 263
246 240 234 230 230 225 212 217 213 209 211 195 200 179 200 179 190 187 190 193 196 199 195 196 183 201 210 190 202 189 193 199 227 227 223 213 219 236 216 240 230 228 233 267
247 238 222 235 229 218 214 211 218 210 210 199 199 187 196 189 193 180 181 184 195 194 200 197 197 205 200 209 209 163 209 207 222 213 218 217 218 220 222 213 228 226 236 244
246 231 227 240 228 225 218 213 216 219 202 186 194 194 198 195 189 189 192 183 194 193 192 190 208 200 198 204 201 209 204 207 208 216 204 209 217 215 214 217 221 222 229 233
196 247 230 234 231 221 213 208 209 213 193 218 203 201 204 208 205 191 191 191 198 200 189 150 196 208 205 185 202 210 205 206 209 209 211 209 212 212 212 220 208 219 217 235
267 253 228 234 227 224 215 201 210 218 199 210 198 186 208 199 207 202 185 192 199 195 179 198 176 205 202 195 204 207 209 210 212 206 212 175 212 211 206 224 206 214 214 226
264 263 247 223 230 224 215 214 208 210 208 205 200 203 202 185 186 211 203 213 193 191 200 194 209 200 201 208 206 211 212 209 213 207 208 206 213 213 202 220 215 212 210 223
261 267 252 226 232 225 216 212 210 207 209 209 200 212 199 204 200 200 201 195 184 198 199 199 193 192 200 216 212 212 210 207 209 211 204 204 212 203 208 217 217 206 201 223
261 266 250 226 237 223 221 217 213 208 203 206 208 209 203 200 204 204 201 201 201 200 199 193 202 200 204 217 216 214 211 207 210 213 210 205 214 214 207 219 215 213 219 223

GFSCGP_2pvu_pres_075.txt.gz
Presure
202 206 192 204 195 196 214 202 196 202 179 191 202 202 204 202 213 210 264 234 229 242 264 222 185 200 234 180 198 181 202 186 180 167 181 168 168 169 189 138 191 164 190 192
178 195 196 193 196 194 190 205 193 192 193 191 193 202 197 194 207 204 274 245 231 232 247 241 243 233 262 282 192 181 182 191 178 182 173 172 183 185 167 171 195 185 154 166
201 191 214 178 201 183 187 194 196 197 202 191 187 205 202 191 199 205 264 237 252 247 224 219 265 250 256 261 227 231 242 198 191 185 147 168 173 172 162 173 190 177 170 166
198 206 205 211 201 203 195 186 187 192 201 177 181 211 200 192 217 202 255 223 259 244 239 246 259 235 245 251 254 217 224 183 200 140 157 179 163 182 181 183 170 164 168 171
209 198 203 207 201 206 191 200 194 190 198 190 183 193 196 189 209 196 258 238 218 245 245 237 261 235 230 240 241 216 228 189 179 145 198 188 173 127 162 169 179 178 163 179
211 202 202 198 203 203 205 195 200 190 191 194 179 208 196 185 198 201 259 252 221 227 232 233 253 250 232 237 243 240 231 220 224 190 218 203 190 166 184 167 174 181 166 180
217 204 204 205 208 196 185 192 181 192 193 190 184 200 196 187 198 186 218 234 252 224 232 224 232 242 244 218 242 234 243 224 221 244 215 241 234 233 214 211 248 224 221 209
196 206 205 206 210 206 204 198 191 176 190 189 185 191 203 193 189 200 211 212 268 243 223 221 231 226 233 237 244 230 243 219 225 227 222 229 230 171 220 222 220 226 210 225
217 202 202 206 205 210 197 204 211 190 184 183 189 185 207 190 195 195 190 197 202 209 249 225 222 229 226 232 238 242 245 198 252 255 234 243 214 217 239 217 216 211 192 209
212 211 208 213 217 222 249 208 192 212 183 185 187 183 200 194 182 188 187 187 194 203 242 262 246 229 219 215 222 225 233 236 182 170 240 220 223 219 218 184 233 224 223 221
225 228 223 229 229 222 224 235 210 205 184 178 187 181 194 194 195 190 177 190 202 194 194 211 244 252 250 243 233 217 216 221 226 222 225 226 227 234 229 212 205 214 210 207
240 237 228 227 226 228 266 232 227 207 203 191 192 178 185 201 180 192 189 174 166 196 209 199 227 209 241 252 236 248 240 216 221 224 231 217 220 210 211 205 200 204 197 197
276 281 274 268 263 274 267 238 232 225 206 192 179 182 206 202 185 192 190 177 189 192 195 182 198 213 200 234 255 258 239 250 221 219 227 228 209 208 203 205 197 205 201 203
279 262 272 266 241 233 241 222 221 221 214 203 200 203 208 195 182 184 189 174 197 191 190 190 196 193 211 205 229 252 260 247 265 224 214 219 210 199 216 198 183 193 191 198
289 289 277 267 263 260 243 240 237 227 215 203 196 206 207 194 187 179 188 187 181 179 185 179 197 207 195 215 208 224 243 256 246 239 236 221 216 210 202 204 197 192 202 187
279 270 267 277 270 263 268 226 237 220 223 212 206 193 206 198 187 178 187 193 196 195 196 191 189 162 211 181 205 204 216 226 239 244 247 249 230 209 201 206 202 206 189 184
274 265 259 267 257 252 258 242 214 228 219 197 209 194 201 207 195 184 181 188 192 189 192 198 193 191 192 179 186 197 199 188 214 228 222 222 224 204 197 192 202 183 182 183
258 261 249 256 251 252 244 231 226 224 211 220 195 196 208 207 197 190 181 180 179 180 189 197 202 199 178 195 193 192 209 197 179 180 221 220 219 225 223 226 225 222 218 217
268 271 260 260 252 250 239 227 222 217 220 213 196 198 207 209 193 192 197 187 183 188 182 196 195 194 192 199 193 198 179 172 209 216 205 204 208 217 208 215 214 213 212 210
268 264 263 264 255 254 232 224 223 222 216 210 199 200 210 206 187 198 199 200 192 189 193 190 191 196 191 194 187 208 197 211 193 201 210 206 208 209 180 211 211 210 213 214
258 252 262 259 257 250 232 230 230 227 210 216 206 201 214 205 201 200 202 194 179 189 183 180 182 185 192 192 184 181 183 202 206 199 200 214 208 206 215 214 212 210 211 212
261 253 259 262 257 187 237 228 228 232 211 215 207 209 212 199 206 206 194 198 196 189 193 196 196 191 192 176 186 192 200 208 206 205 210 218 211 212 211 214 215 206 209 205
264 254 255 268 257 233 232 233 235 231 216 211 216 216 212 209 209 206 192 192 188 193 201 209 184 183 195 194 129 199 197 203 192 204 208 215 216 212 213 205 214 213 213 203
258 267 240 270 250 234 235 238 231 228 223 215 219 218 218 210 209 213 203 197 192 200 209 215 216 191 200 191 193 202 202 204 191 206 204 211 223 215 214 214 215 214 208 206
267 275 248 269 252 221 238 233 227 223 221 218 219 217 220 219 210 203 208 214 200 198 194 189 196 192 201 193 205 199 204 196 200 212 204 206 223 221 217 213 215 213 210 209
274 272 264 256 265 253 234 223 234 222 222 227 177 221 217 210 210 201 200 210 199 198 211 204 196 210 196 209 199 201 199 204 197 213 209 206 221 219 216 213 214 214 217 206

GFSCGP_2pvu_pres_078.txt.gz
Presure
164 189 197 207 216 195 195 189 193 203 198 207 177 199 190 160 214 209 208 200 267 261 250 236 239 260 241 224 212 202 188 194 199 179 181 180 178 181 172 182 186 166 167 171
190 188 198 198 197 197 191 193 202 189 188 208 177 197 187 195 216 208 201 208 240 238 248 246 250 249 246 200 204 228 181 206 197 193 176 194 179 181 163 179 174 155 164 164
197 201 209 195 194 187 197 195 212 203 198 188 190 196 191 188 197 203 200 207 222 236 259 260 245 225 270 199 198 247 194 188 209 194 189 178 191 187 184 175 169 164 161 139
212 203 202 201 197 208 196 206 213 209 206 202 201 192 197 193 176 206 198 202 230 237 225 246 246 265 251 254 248 247 238 184 230 204 194 198 187 132 158 183 180 127 163 163
191 195 208 199 184 197 206 193 207 212 205 199 201 187 195 191 186 206 193 200 207 243 231 243 239 271 246 246 241 251 228 210 193 196 220 199 193 191 181 188 169 183 175 192
207 193 197 181 195 201 212 209 219 203 209 195 198 190 193 193 194 203 190 190 205 248 227 227 234 260 248 237 243 236 238 235 232 188 199 193 181 196 192 176 175 175 178 166
208 207 198 196 198 208 208 204 202 186 207 198 162 185 196 185 194 204 196 203 200 225 243 222 228 230 244 247 236 235 230 235 228 217 228 210 190 187 186 184 184 191 184 184
199 190 199 198 199 204 206 215 216 209 183 197 189 178 181 184 193 204 198 201 192 184 232 244 226 227 226 239 244 247 235 231 235 241 225 232 229 193 187 183 181 183 166 189
209 212 207 204 201 214 208 200 209 212 204 202 193 161 194 177 178 196 198 188 192 187 187 229 240 231 222 225 223 228 232 235 238 135 223 233 214 139 187 212 194 183 186 212
217 214 213 213 212 203 210 220 211 211 206 200 207 190 184 179 179 191 199 186 194 184 219 211 241 249 232 223 222 222 222 230 232 234 242 240 238 231 220 227 233 221 214 204
218 221 222 222 221 217 219 214 206 208 211 214 227 193 200 178 181 184 196 197 197 192 193 197 199 204 241 241 236 225 218 214 216 221 226 228 231 232 219 199 197 228 208 175
225 222 223 219 215 221 218 214 220 209 218 209 182 188 207 185 181 183 186 194 184 202 182 209 200 191 200 204 241 247 229 238 223 214 218 222 227 227 230 235 236 229 218 235
242 235 236 227 218 216 222 223 223 223 227 232 225 179 190 191 180 185 180 194 193 188 200 185 177 199 194 208 192 224 250 248 238 238 232 237 239 236 228 234 235 233 229 226
261 262 251 245 232 224 229 222 222 224 225 222 224 211 206 194 180 186 179 196 192 179 191 199 194 195 177 187 205 202 218 246 253 263 238 232 230 244 252 230 215 223 213 215
300 303 299 268 278 271 259 262 270 262 256 249 251 215 207 196 190 184 182 198 194 182 189 184 190 190 192 199 197 196 210 205 225 244 235 230 230 227 226 222 228 212 199 199
286 294 295 298 278 283 282 268 261 272 271 277 240 216 205 204 184 189 197 197 190 179 181 183 182 181 182 188 189 208 178 218 200 209 228 237 238 249 240 233 228 223 217 215
309 311 304 273 262 271 291 263 252 262 249 263 237 220 205 205 196 196 197 197 190 182 184 181 187 189 196 180 196 188 189 193 198 208 207 197 216 227 222 219 214 218 210 204
304 285 269 305 260 255 286 266 268 263 246 256 224 212 215 208 201 198 199 200 183 187 183 182 187 196 186 193 198 190 192 194 181 173 203 179 207 208 207 209 216 219 216 216
301 327 257 280 264 253 267 128 267 274 266 249 242 226 219 214 212 206 199 200 194 191 189 191 185 182 180 188 197 191 193 191 193 203 192 167 168 201 198 202 209 203 204 207
284 272 270 294 269 261 255 267 274 275 265 233 243 221 217 216 208 206 192 200 199 193 199 195 195 181 182 186 193 197 196 192 190 186 185 206 200 200 198 198 208 207 212 211
297 291 271 274 272 267 263 267 275 271 259 257 236 216 223 213 203 208 197 194 201 199 193 189 197 194 198 188 192 187 189 191 196 201 188 162 200 203 204 204 203 197 213 221
277 271 282 269 264 262 265 268 267 262 254 245 226 225 228 214 209 211 200 191 198 200 194 201 198 195 199 199 181 180 183 189 187 196 202 196 200 204 201 192 200 205 203 203
260 256 276 274 275 246 274 260 268 261 249 240 234 229 225 214 219 210 202 197 191 202 201 203 188 201 200 182 193 200 215 199 184 192 199 190 198 203 204 192 199 211 206 204
262 264 278 278 250 261 270 262 261 256 246 244 236 232 223 217 222 213 206 202 200 202 200 202 204 193 207 204 207 194 162 230 184 200 197 193 199 195 202 204 195 211 212 204
289 271 266 265 257 250 249 263 256 259 251 244 235 231 228 219 221 217 207 209 200 211 206 207 201 206 200 195 127 192 187 183 200 203 199 199 193 202 201 198 200 213 210 205
280 297 278 270 271 260 250 262 257 221 250 240 239 235 229 228 227 216 212 146 211 203 209 203 200 198 192 208 209 214 199 204 198 210 200 194 206 204 196 196 210 209 215 213

GFSCGP_2pvu_pres_084.txt.gz
Presure
209 219 227 178 208 195 200 205 192 214 205 191 203 190 191 198 205 204 199 195 196 205 217 207 205 252 283 254 249 255 229 221 194 212 208 193 189 207 183 160 190 175 186 175
208 208 232 219 198 202 208 211 195 205 216 198 197 195 192 195 215 204 199 192 206 202 215 204 212 264 269 258 260 258 226 231 216 228 185 209 198 224 190 155 176 170 161 174
230 227 203 216 215 202 204 201 206 200 209 194 189 196 190 205 226 205 201 201 198 200 212 204 210 251 244 254 246 263 233 221 218 213 207 204 196 213 200 189 186 180 167 178
230 216 223 210 206 203 195 213 208 202 210 185 205 191 198 201 220 203 200 199 196 198 210 203 212 247 231 250 269 270 220 226 213 225 215 201 195 198 211 195 191 189 182 181
228 214 221 215 212 209 191 208 200 204 204 185 207 199 199 200 216 202 198 197 197 198 210 203 204 215 238 246 263 259 271 220 236 209 215 206 201 193 197 205 193 185 177 171
236 221 212 209 214 208 215 197 208 197 209 214 203 193 189 207 207 202 200 198 199 200 203 204 196 215 241 235 253 252 240 263 208 189 205 215 195 201 190 192 200 184 184 184
233 229 212 218 206 205 213 212 207 204 210 210 188 178 191 203 197 200 195 194 198 193 200 200 199 194 231 239 256 246 255 247 224 209 201 189 209 209 191 206 195 202 197 189
230 231 216 204 212 202 203 223 223 200 202 195 187 199 186 198 201 191 194 193 188 193 190 202 193 210 200 222 226 247 234 246 243 233 219 215 210 197 204 195 186 198 194 178
230 218 213 208 215 212 207 208 204 202 204 209 195 183 196 199 207 187 197 195 191 190 190 197 201 189 208 203 240 225 247 236 232 220 222 219 219 207 196 196 194 192 193 192
233 115 218 204 212 210 206 208 206 204 218 206 195 189 193 191 206 199 196 200 189 190 181 189 199 196 185 201 206 237 221 244 248 234 226 223 218 216 209 206 209 182 204 205
233 114 177 211 214 213 213 214 215 219 227 209 202 188 189 185 201 212 195 193 195 187 183 189 196 196 194 189 205 197 225 232 225 247 245 226 222 215 219 221 221 219 216 216
223 219 219 218 213 206 211 211 211 210 217 224 203 194 191 201 194 207 217 194 199 192 186 182 187 191 196 192 181 188 204 204 250 233 228 236 245 234 223 223 220 217 216 216
234 235 221 221 221 219 216 211 211 219 223 221 195 188 198 189 193 199 207 206 196 209 188 187 181 183 191 196 192 182 197 196 194 190 268 252 229 221 223 226 226 227 224 217
236 234 237 231 221 223 223 222 222 222 220 222 206 212 199 197 192 188 209 205 199 205 201 190 182 181 181 191 197 190 183 199 204 204 195 202 248 256 250 240 238 239 238 214
240 237 235 233 235 233 227 223 227 219 208 221 198 209 209 197 214 205 203 213 195 192 209 201 187 182 183 187 191 197 189 193 193 188 200 204 223 218 220 227 243 250 254 260
247 245 248 247 243 239 244 226 224 226 227 226 221 221 222 200 203 203 210 205 184 195 218 196 200 179 187 180 191 189 185 184 186 191 191 193 198 197 188 188 215 216 214 213
273 263 264 266 259 256 258 248 245 230 229 228 226 212 216 211 210 209 208 207 200 208 200 206 207 200 182 186 186 191 193 185 183 180 182 183 189 194 196 194 205 205 201 209
264 271 280 276 274 273 266 261 255 253 247 247 237 238 233 226 202 209 214 217 213 212 229 220 208 200 200 188 186 192 197 191 191 185 184 184 191 191 192 196 198 197 199 200
294 295 296 296 294 306 302 272 204 273 271 262 258 257 250 243 239 217 223 222 223 227 233 222 212 197 197 199 182 192 199 197 186 192 192 196 193 184 185 189 193 191 193 192
285 284 281 278 280 290 287 290 295 285 282 277 270 267 261 256 253 248 245 249 249 249 256 227 227 212 201 204 200 188 192 198 193 192 192 193 191 180 181 181 182 186 186 177
281 280 277 285 278 204 223 269 271 286 301 327 360 286 275 269 265 259 252 258 256 262 261 226 231 219 214 205 202 193 193 199 203 195 188 197 174 183 192 184 195 188 180 193
279 278 284 283 291 288 279 278 274 259 275 269 300 298 292 289 287 277 267 252 253 259 249 244 228 221 213 211 204 203 199 198 194 203 200 191 193 191 189 194 202 162 183 176
295 307 347 313 304 295 283 254 274 272 259 273 303 291 285 275 282 275 266 256 253 250 245 255 232 221 213 214 207 203 199 200 200 192 192 201 194 193 192 195 124 177 206 181
282 287 304 291 281 270 278 270 269 275 277 279 254 317 253 272 257 276 264 247 250 243 245 249 232 219 215 210 206 203 202 188 190 192 195 198 198 204 203 199 196 194 211 195
273 273 294 295 272 266 266 268 262 278 275 270 275 272 278 260 243 275 243 253 240 242 243 240 234 224 218 210 210 205 192 204 189 202 198 194 192 187 191 200 203 199 163 201
274 269 269 281 282 275 264 265 259 256 262 262 287 274 250 255 250 265 261 248 239 238 230 229 234 224 216 213 213 210 205 205 203 204 202 202 203 202 196 198 201 206 204 205

GFSCGP_2pvu_pres_087.txt.gz
Presure
157 195 201 161 259 189 189 222 207 181 200 203 186 194 207 199 199 205 202 200 198 208 202 202 209 218 214 237 267 272 255 234 223 207 184 218 207 218 219 202 214 198 181 193
179 168 208 188 255 241 211 208 210 201 205 194 208 187 191 198 197 208 207 193 222 209 202 204 197 217 216 254 288 275 257 235 213 224 218 208 202 206 226 210 201 180 188 172
229 220 225 279 251 233 208 226 213 201 207 194 206 209 197 190 191 190 200 214 219 203 203 206 200 212 209 260 252 261 260 259 219 207 224 207 203 197 205 232 195 170 183 185
259 308 217 275 248 223 215 222 215 206 208 206 210 188 181 193 188 207 196 215 204 205 193 206 210 206 207 246 239 269 241 272 232 214 219 236 177 191 188 216 186 175 194 172
300 300 276 269 230 225 221 230 216 209 204 211 198 207 185 193 190 195 187 205 211 202 199 205 199 209 204 216 242 278 271 265 219 219 234 218 222 215 212 194 209 194 191 161
288 284 287 258 225 222 210 207 214 196 210 209 202 200 189 200 195 195 191 199 213 198 205 203 202 208 204 213 258 265 261 261 222 209 219 222 198 217 201 187 196 206 196 188
282 287 268 245 218 222 216 206 204 206 212 204 199 196 210 199 215 195 189 203 210 203 191 197 196 210 196 203 215 243 255 245 240 207 219 222 213 212 214 200 196 194 202 186
271 261 254 243 217 213 210 213 218 215 205 208 202 206 206 201 202 192 191 208 201 194 198 199 198 177 200 208 207 257 239 270 255 214 223 209 217 214 211 206 194 198 175 194
267 249 256 230 234 222 221 213 207 220 215 218 219 196 197 196 194 194 191 188 200 201 194 198 186 190 203 193 203 211 244 255 254 254 204 196 198 195 192 195 201 195 193 195
181 245 244 240 234 221 214 206 205 207 206 210 201 213 207 196 196 201 196 199 202 198 191 197 193 191 200 197 194 209 219 241 255 247 228 227 210 215 204 198 195 199 199 194
173 248 243 244 230 226 220 213 208 214 207 203 201 210 200 199 199 202 189 190 209 211 195 198 193 191 187 197 195 187 207 205 244 242 240 234 225 223 216 208 208 209 204 194
134 246 241 239 227 236 223 222 213 205 215 202 208 207 198 203 204 197 213 197 202 213 205 192 204 190 181 192 193 200 192 192 200 215 237 241 231 228 230 227 232 215 214 213
243 244 240 232 238 233 219 224 213 212 215 204 204 197 204 201 199 217 204 197 206 195 215 201 197 203 190 183 190 194 196 193 197 195 192 215 231 229 237 226 225 221 226 222
242 242 231 236 219 230 232 217 216 216 208 210 212 210 210 213 226 200 195 215 192 208 196 212 192 204 201 186 188 190 192 195 185 183 205 210 242 275 249 237 235 232 226 221
236 246 245 233 235 228 229 226 220 229 204 212 207 213 220 208 212 210 202 207 208 200 200 216 211 188 208 192 183 186 187 192 193 192 185 189 186 203 191 206 211 265 260 257
259 244 236 246 231 235 227 237 221 217 217 211 217 214 209 213 217 222 213 205 194 197 204 205 215 197 206 204 193 187 181 190 192 194 190 191 190 199 193 195 190 184 194 174
255 249 244 243 244 243 233 229 234 231 226 221 216 211 216 218 220 207 196 204 215 211 208 206 215 203 193 200 206 201 189 176 187 196 189 186 185 188 189 188 195 193 197 193
233 246 246 242 242 243 246 245 240 238 233 228 218 216 220 223 221 211 216 212 201 203 209 205 216 213 208 198 207 201 202 191 184 186 192 187 194 193 191 185 186 193 191 190
255 254 251 248 254 249 239 244 247 246 243 235 239 239 233 229 230 212 222 215 223 218 220 210 208 215 213 204 217 212 206 196 201 185 196 191 197 191 192 195 198 196 193 185
245 223 218 261 260 254 264 262 255 256 109 251 253 255 248 243 241 217 233 217 219 222 218 212 216 216 209 214 204 223 212 208 197 192 194 182 196 194 193 193 194 185 189 188
283 274 270 257 260 269 279 284 279 280 282 277 283 285 275 273 270 241 234 229 225 227 229 232 234 234 225 214 218 224 224 217 202 191 194 198 190 193 193 193 192 192 191 182
288 292 292 293 296 295 231 296 281 280 282 274 264 294 314 304 314 272 279 271 255 252 254 250 248 250 247 236 251 246 222 225 205 204 199 201 202 194 197 203 200 187 191 192
273 269 271 276 282 285 278 246 260 262 277 270 252 264 270 260 161 361 282 278 271 263 259 258 256 259 258 261 252 248 232 223 224 217 207 207 196 200 203 199 194 193 191 194
262 264 273 273 310 274 272 272 258 263 260 259 267 268 266 265 276 274 314 306 292 269 261 260 258 259 271 251 247 238 230 216 216 216 218 206 205 205 201 194 192 191 191 191
285 278 271 275 300 327 304 309 267 256 260 263 259 261 263 265 274 263 289 284 275 279 278 278 273 264 252 255 245 235 226 232 211 210 211 211 212 208 205 202 201 201 174 194
277 272 279 290 296 299 304 285 284 263 254 258 260 264 265 272 290 284 295 263 271 266 262 268 262 253 239 226 239 259 230 229 227 211 211 212 206 192 204 203 202 200 198 203

GFSCGP_2pvu_pres_090.txt.gz
Presure
208 208 225 215 172 222 225 233 227 141 165 174 191 224 201 201 189 197 207 189 205 207 212 207 206 204 213 208 214 226 272 252 247 230 218 210 226 242 227 194 236 181 199 190
210 185 223 215 230 232 244 221 190 195 185 202 229 220 202 197 188 203 197 206 194 208 201 211 213 210 210 208 215 219 253 297 262 244 218 219 217 239 220 232 193 213 197 192
222 224 221 241 240 195 169 210 219 194 198 239 229 213 190 201 200 196 207 198 192 193 205 234 221 211 202 207 211 210 250 262 282 243 233 218 217 223 209 225 195 213 203 188
211 234 251 245 252 196 245 186 186 215 245 244 223 212 196 197 199 195 204 195 197 198 188 224 193 214 203 214 200 213 253 287 283 285 230 223 221 207 215 205 200 198 178 199
240 240 261 261 236 231 256 222 287 241 243 227 220 213 196 190 198 193 200 194 187 196 201 214 214 215 209 197 213 208 254 270 282 272 225 215 194 215 202 194 204 230 194 181
232 256 229 245 308 288 248 294 271 252 234 232 218 215 197 199 199 200 196 205 188 189 198 213 208 204 202 210 180 206 231 262 268 274 255 218 209 208 201 201 173 216 224 213
249 308 314 338 272 281 296 284 266 244 231 221 213 209 205 194 193 195 196 197 198 201 195 206 192 209 201 199 205 202 209 252 262 253 222 223 220 212 218 212 201 181 223 214
327 116 315 302 268 286 287 268 264 232 220 211 222 208 197 199 192 190 190 196 202 197 195 198 202 206 200 202 207 208 206 265 249 259 226 210 223 216 220 195 212 193 193 215
311 304 298 299 273 276 278 274 249 229 221 223 212 206 209 204 207 195 196 200 188 189 203 192 209 200 199 200 184 199 206 212 253 273 229 208 206 210 222 222 207 206 203 183
299 280 284 277 273 274 268 266 235 220 221 220 210 201 202 199 199 198 191 202 195 188 203 195 195 209 204 204 196 205 193 196 213 255 266 235 214 223 224 215 211 214 204 200
292 282 277 272 264 200 261 246 229 224 209 218 206 204 210 211 198 208 198 199 180 181 193 197 195 203 205 196 203 182 201 198 205 208 254 265 236 204 212 201 201 194 199 203
291 264 281 264 258 254 258 239 228 227 217 219 211 208 205 210 213 215 213 218 195 206 199 197 185 188 212 202 202 192 200 193 196 202 209 251 275 239 225 212 208 209 199 202
271 254 260 251 254 247 247 244 231 217 220 217 218 197 207 200 199 215 189 205 208 203 196 202 185 192 188 207 190 196 189 198 195 204 193 201 204 267 255 241 231 234 220 213
237 258 261 264 241 246 238 236 233 225 228 218 219 201 200 201 201 204 202 203 208 199 196 207 207 204 202 215 203 203 194 191 189 199 185 195 199 208 215 258 241 227 232 229
231 194 254 248 256 251 238 246 246 226 224 223 211 214 204 204 200 206 201 201 202 204 194 205 212 197 194 202 214 201 198 193 193 183 203 191 186 185 190 208 221 289 258 237
264 254 251 248 245 244 246 238 235 241 223 229 227 215 209 212 199 206 208 203 205 204 199 223 207 205 204 206 204 209 199 187 199 191 191 196 196 206 196 189 179 198 201 207
260 260 241 244 250 244 231 235 234 228 239 228 223 222 210 208 207 212 208 212 211 211 218 202 208 195 214 193 212 222 203 190 198 201 189 193 183 200 198 193 195 193 189 191
258 254 247 245 243 241 241 238 228 219 229 233 235 233 224 212 214 210 207 209 208 212 208 209 216 207 216 206 195 202 210 204 202 202 197 200 190 199 190 199 185 190 191 185
261 254 259 255 249 239 236 244 234 225 227 227 224 216 210 212 228 229 230 229 222 213 209 213 217 220 200 199 208 212 210 211 201 200 206 199 198 199 191 189 193 193 192 191
263 252 251 258 242 252 245 243 242 237 240 238 227 231 231 229 185 224 221 220 220 218 218 215 216 215 212 196 194 201 226 203 207 210 213 203 207 199 189 198 190 180 196 194
272 252 269 163 229 253 252 249 249 249 251 249 237 233 231 234 236 230 221 224 225 223 217 219 225 222 216 216 214 219 223 223 221 215 208 202 210 210 202 199 185 189 192 196
280 270 267 243 215 260 257 251 247 261 252 249 249 249 245 244 241 244 239 239 235 237 167 233 245 238 228 225 224 216 216 217 218 223 210 212 211 217 212 205 202 195 191 190
174 290 279 262 270 265 260 260 249 248 233 250 250 263 282 275 265 256 236 222 257 275 306 287 268 266 262 256 237 230 229 232 231 238 245 231 211 211 221 215 209 202 199 195
274 278 281 290 294 301 307 276 288 275 266 285 297 308 276 264 274 285 276 254 230 237 255 310 309 270 273 272 256 252 251 251 249 245 236 238 234 244 243 221 217 206 201 198
265 258 261 269 275 279 283 282 280 276 280 276 287 277 278 259 273 270 258 271 263 268 264 244 314 306 270 269 272 267 260 254 254 250 251 253 246 246 233 225 211 227 220 209
260 264 260 264 266 264 265 267 284 271 270 262 269 277 262 259 253 264 267 273 271 264 263 278 309 296 286 280 273 264 260 256 254 261 242 248 233 233 228 226 215 211 210 225

GFSCGP_2pvu_pres_093.txt.gz
Presure
216 188 197 209 215 214 211 212 191 194 213 183 213 223 210 209 229 232 218 204 205 200 191 202 200 200 206 217 217 213 213 211 281 259 266 255 222 225 214 230 236 216 199 203
204 202 219 212 205 207 222 213 188 219 186 237 224 202 177 211 179 199 220 206 206 206 197 199 205 198 207 237 225 214 207 210 218 255 288 258 227 223 215 222 235 236 215 198
209 209 205 207 217 215 218 228 224 217 177 179 225 184 246 181 163 209 208 209 201 197 201 202 204 203 206 228 214 213 206 204 229 267 259 275 250 222 205 213 253 226 235 212
209 201 209 200 205 221 225 233 240 252 238 204 189 255 193 222 191 211 204 206 201 202 199 202 200 185 199 221 216 210 207 213 215 270 286 281 242 238 219 222 212 241 224 205
220 210 205 217 211 235 230 238 249 245 265 242 229 235 225 196 225 207 201 200 198 196 199 200 201 191 203 219 217 213 206 222 223 249 276 259 293 242 207 201 215 238 232 221
221 221 215 225 219 239 261 243 251 252 244 250 212 251 269 258 219 205 202 201 204 200 197 194 203 201 199 215 215 210 200 199 208 248 262 272 275 245 227 210 206 216 180 225
212 239 247 246 234 245 251 247 278 293 271 293 242 302 240 230 218 212 204 206 198 192 191 190 198 210 201 205 204 211 199 188 205 251 254 254 262 237 222 213 203 204 221 185
258 260 254 249 253 266 272 303 329 294 315 243 293 270 198 224 219 214 206 208 198 188 190 198 196 203 199 200 205 213 203 207 194 217 250 248 240 230 204 208 211 199 194 198
264 270 271 266 277 271 333 352 312 305 293 299 273 241 232 231 223 214 206 205 206 190 189 193 198 186 188 208 199 203 201 197 192 206 235 264 226 230 218 209 214 193 198 200
266 259 259 286 308 329 325 313 289 293 289 286 248 241 227 225 228 217 211 206 202 207 194 189 195 188 191 201 200 203 210 199 187 202 210 249 260 221 216 224 213 208 206 204
295 290 304 306 291 305 305 284 288 279 279 272 245 231 217 218 219 219 206 213 191 191 201 177 186 191 181 190 203 190 203 211 199 202 197 208 246 256 215 217 215 217 207 215
320 311 286 285 307 290 289 296 273 280 274 255 244 226 210 215 217 217 209 203 208 199 201 193 190 194 191 190 178 198 195 208 205 196 195 200 205 230 263 220 211 230 213 224
288 324 311 261 286 281 276 279 270 264 266 263 242 215 217 203 214 213 203 210 207 196 200 204 191 191 204 210 201 202 187 192 209 199 201 200 199 206 217 263 249 216 205 202
264 300 302 288 288 279 266 262 259 259 258 252 233 218 207 206 215 209 204 206 209 210 219 205 207 202 207 204 195 211 207 210 207 200 200 197 192 191 198 200 216 272 231 219
300 306 247 277 287 271 263 259 256 250 247 246 222 219 211 217 221 209 200 208 203 217 192 212 189 202 205 206 188 211 207 200 191 207 204 200 189 200 188 190 197 206 211 241
289 243 276 270 271 274 247 253 249 254 251 233 228 205 210 209 210 210 201 206 197 205 205 211 203 202 200 199 198 199 204 207 196 222 204 204 198 203 198 192 187 189 198 201
271 284 274 266 270 261 256 248 244 240 246 242 230 223 220 208 206 204 206 207 210 208 214 200 197 200 194 184 197 217 213 212 206 203 210 210 198 197 206 193 191 197 184 183
263 278 270 259 260 250 245 254 238 235 242 234 237 223 217 222 214 205 207 212 206 208 211 200 198 197 202 203 193 190 185 221 222 211 201 222 207 202 196 196 205 204 197 203
286 268 274 256 255 253 247 241 251 249 247 245 239 238 231 218 220 225 215 212 208 213 212 204 219 206 205 210 204 215 192 193 213 217 192 201 202 206 208 200 186 193 198 200
266 271 266 268 253 249 253 241 237 242 234 235 232 235 237 232 233 227 228 223 215 213 214 217 187 202 210 208 216 223 211 214 200 193 225 211 203 202 213 212 211 183 183 192
265 268 262 262 264 252 243 245 242 246 234 234 236 234 228 229 233 242 243 231 167 231 234 229 229 232 234 229 214 214 208 217 212 218 193 212 199 202 193 210 217 211 212 204
268 266 271 272 260 254 258 245 243 250 251 241 238 232 237 228 221 224 226 225 222 220 215 213 212 163 215 217 211 211 211 214 212 206 218 207 217 220 221 207 199 208 205 213
262 251 275 268 263 259 250 249 256 254 247 252 241 234 238 235 231 227 232 230 224 162 228 175 199 233 228 231 232 215 231 227 226 221 218 198 200 196 205 210 225 212 219 230
260 256 271 279 275 268 256 247 243 251 235 251 258 251 250 230 244 233 148 237 238 236 234 237 244 245 248 251 242 269 274 268 254 243 229 236 213 209 209 211 218 229 219 211
261 257 262 283 293 286 277 259 269 260 247 238 261 262 260 253 240 240 244 247 163 244 256 278 156 241 280 267 254 245 256 305 311 281 274 268 262 252 237 229 235 240 237 238
259 251 253 261 272 278 286 287 295 296 292 288 272 259 247 253 251 243 240 243 262 279 286 270 238 274 272 262 264 265 268 276 296 290 264 265 267 260 250 253 246 243 240 236

GFSCGP_2pvu_pres_096.txt.gz
Presure
200 199 192 189 204 208 205 210 210 203 208 197 206 243 226 227 198 221 223 210 180 213 239 212 201 200 199 202 217 213 212 234 219 213 214 243 254 269 244 233 230 210 226 204
210 202 196 200 209 208 194 205 215 216 208 213 223 228 229 204 187 217 164 174 207 170 216 203 202 195 207 198 206 197 213 219 217 211 210 216 280 236 259 224 222 236 215 217
214 219 216 208 206 209 203 204 210 210 217 220 223 233 227 215 211 194 232 184 183 236 209 199 201 199 200 212 204 201 200 218 216 211 214 220 273 285 265 228 223 215 236 213
226 218 222 221 211 207 208 211 214 217 222 229 232 205 207 209 217 217 154 200 147 199 211 206 205 203 204 193 212 201 205 219 214 206 214 260 276 305 295 249 222 222 214 239
217 235 244 235 200 224 199 205 209 216 218 226 240 237 217 226 236 267 232 189 185 220 222 216 213 182 193 202 206 219 219 222 210 202 210 242 267 254 290 266 221 213 212 219
233 228 218 239 235 221 220 216 227 238 235 237 229 220 250 229 225 240 195 230 229 227 206 201 200 187 192 204 201 216 213 211 206 194 209 221 258 262 280 275 249 205 215 207
231 234 235 229 251 246 214 224 226 226 245 253 243 69 188 252 211 230 228 218 226 224 203 202 204 202 191 197 201 208 202 211 201 203 206 204 266 253 263 277 235 214 211 194
213 218 212 251 245 244 239 246 259 256 257 265 272 251 313 358 333 228 261 240 230 220 206 204 200 196 193 191 198 202 208 212 204 193 200 194 229 255 242 260 238 196 203 198
245 230 240 241 242 238 237 246 245 251 275 282 282 361 342 340 297 272 238 231 229 220 208 198 202 196 197 199 202 183 193 207 211 202 182 193 210 263 240 240 225 205 213 191
244 249 243 241 242 247 242 248 254 271 270 258 359 336 308 249 269 243 149 222 228 217 208 196 198 200 191 198 199 196 196 207 209 211 196 195 202 220 254 227 229 208 209 197
261 251 250 253 254 263 266 271 292 279 357 346 317 297 280 275 257 233 233 228 226 90 204 191 200 211 195 200 197 192 195 180 192 197 206 199 193 204 223 257 224 222 217 203
271 267 258 266 281 277 265 301 315 315 347 305 289 279 262 256 238 223 228 219 218 219 204 207 211 197 198 197 195 180 186 204 193 211 216 194 193 196 195 215 250 260 212 209
286 279 277 313 351 331 317 302 296 318 308 292 257 261 249 239 226 225 228 221 218 219 210 201 199 206 199 180 191 195 189 193 212 203 190 213 184 195 185 194 210 228 258 240
245 329 324 302 327 307 296 282 310 312 290 269 254 249 243 229 226 225 225 216 214 219 217 206 199 199 202 204 197 194 195 169 211 200 211 205 210 195 195 191 198 198 212 238
314 276 306 292 294 299 287 272 304 301 266 265 254 241 250 224 233 227 220 212 216 225 218 201 198 203 206 200 199 202 201 186 209 195 204 208 194 200 207 191 194 188 187 197
277 322 302 281 272 288 259 291 286 285 270 266 246 244 259 231 220 213 218 222 203 214 231 217 208 204 213 215 215 213 209 212 209 171 192 211 212 198 216 208 196 191 192 198
302 295 291 290 264 293 271 279 275 270 269 263 251 243 236 249 226 216 212 205 207 206 219 213 196 193 189 195 202 197 200 198 191 193 200 215 216 212 207 200 210 201 195 191
147 292 284 289 290 275 270 279 269 254 257 257 241 241 227 235 242 216 220 211 209 207 218 218 208 196 196 191 192 188 188 184 202 203 191 198 199 218 218 208 206 204 204 199
291 280 277 297 281 270 275 274 265 252 255 247 241 232 230 228 226 238 223 212 203 209 203 208 206 204 215 211 208 192 200 194 197 188 189 202 195 191 197 204 190 210 212 210
290 274 275 294 274 269 265 256 261 245 246 248 237 231 228 220 224 223 217 222 205 209 209 209 210 212 210 210 212 205 202 200 199 198 202 199 184 189 174 193 201 212 208 210
282 272 266 281 275 268 259 262 253 253 249 242 241 237 228 224 229 225 211 211 217 214 211 211 211 212 210 214 201 215 211 204 197 203 202 212 229 216 202 198 194 195 202 199
275 269 267 266 277 264 260 251 252 257 243 253 238 238 233 232 225 228 225 221 217 219 228 226 223 223 223 223 220 206 220 220 213 206 224 229 207 205 209 211 196 197 193 193
268 264 266 269 264 273 253 253 249 251 247 236 251 242 241 238 232 236 232 237 236 234 226 225 212 221 225 230 231 225 219 240 238 227 215 213 213 204 208 211 215 202 198 202
291 267 271 263 268 261 271 258 251 250 257 248 234 234 235 236 235 238 228 235 237 230 239 237 236 236 243 246 246 247 236 213 220 207 206 204 207 210 203 205 189 213 211 206
280 269 266 264 259 259 263 262 261 263 259 254 243 244 241 232 230 226 228 175 239 240 193 235 233 231 226 230 236 238 237 229 230 236 236 237 236 234 226 224 214 207 210 201
286 265 260 262 244 251 258 265 270 267 264 263 255 252 254 249 245 241 233 235 235 197 243 232 234 240 235 243 235 249 250 269 289 293 290 289 270 227 241 244 294 253 219 213

GFSCGP_2pvu_pres_099.txt.gz
Presure
208 226 223 186 193 185 208 204 195 194 189 187 194 205 206 206 200 206 206 202 216 197 202 207 221 234 201 240 215 210 205 194 203 213 216 223 213 208 206 247 257 239 224 229
215 219 217 218 219 222 221 239 211 201 199 198 199 211 197 198 196 197 214 205 208 201 198 202 162 166 227 174 218 212 206 213 214 199 223 222 207 213 227 269 284 231 228 211
206 211 218 215 218 194 202 220 224 222 223 214 210 216 215 206 205 221 228 217 206 200 204 191 157 205 200 164 204 212 205 200 216 210 222 216 207 215 230 292 262 238 225 228
217 217 218 219 223 212 236 230 234 226 226 223 233 243 212 215 204 203 206 228 201 198 212 164 236 190 195 174 208 211 210 211 221 218 220 207 202 212 269 287 300 248 229 232
225 205 204 218 204 207 229 237 238 222 219 236 225 251 198 230 223 209 217 205 207 218 227 243 215 207 195 200 208 209 196 223 216 210 215 204 202 215 270 278 291 262 231 224
227 216 215 217 217 222 234 237 236 238 233 240 215 253 223 197 204 218 226 223 221 221 224 245 230 198 223 197 197 208 190 208 215 212 210 204 201 201 272 264 283 296 236 218
217 223 216 217 222 233 237 226 231 232 240 236 231 250 231 137 157 205 245 235 229 239 253 241 213 211 199 213 207 200 205 203 214 217 210 201 196 201 271 253 273 282 260 215
231 226 221 229 239 235 234 232 235 219 241 242 249 240 74 64 204 93 256 220 250 287 280 233 210 218 228 208 207 201 203 201 203 213 211 204 201 199 242 250 253 268 271 217
230 223 225 229 227 230 227 221 231 243 231 230 262 257 245 242 250 262 272 291 162 354 198 224 232 221 211 203 202 198 199 200 194 202 216 210 193 200 209 261 240 254 229 218
235 234 225 230 231 230 233 222 232 244 246 253 249 238 238 249 270 282 322 355 277 189 232 220 211 220 212 211 196 208 200 212 195 198 205 212 202 199 190 222 244 229 228 211
256 272 237 229 228 236 231 239 242 239 244 260 254 257 256 282 306 355 324 301 277 255 241 229 209 230 223 212 198 197 198 189 194 200 190 194 210 202 195 201 222 257 215 214
274 256 238 235 232 235 238 237 244 249 246 261 260 265 297 359 347 290 260 257 248 237 242 232 225 221 217 205 198 199 200 196 200 185 197 194 210 221 196 185 197 221 257 205
273 272 261 256 248 240 245 271 270 265 265 264 280 305 322 323 300 261 266 239 242 234 232 223 213 208 219 202 199 199 200 205 197 183 203 199 213 193 207 193 189 192 206 245
267 262 271 281 287 277 266 276 262 275 284 315 304 308 300 301 277 264 241 242 235 230 219 217 214 200 211 208 211 204 193 194 199 181 199 202 216 203 217 212 190 192 191 196
260 258 181 312 313 278 288 334 325 329 313 297 316 292 281 283 264 249 239 219 244 234 217 226 216 201 206 209 193 202 202 197 201 201 207 215 215 192 208 205 206 207 192 194
305 326 157 164 332 312 309 305 311 313 288 312 285 276 265 272 247 248 228 223 217 223 224 210 210 200 222 212 215 201 201 195 201 165 207 192 203 199 183 207 214 198 205 193
321 325 322 302 298 282 296 242 306 298 295 309 279 272 261 247 239 230 222 234 216 222 220 217 215 212 196 197 202 199 197 195 192 203 192 197 189 189 205 206 218 219 196 205
304 298 303 309 307 288 101 303 300 261 293 293 276 260 261 244 241 225 233 250 216 231 230 228 214 206 203 204 191 193 195 202 203 200 202 192 195 194 197 206 200 203 211 222
294 294 302 301 311 276 291 289 310 287 272 281 271 254 257 246 252 234 219 232 241 217 219 222 233 214 205 208 211 184 197 186 189 192 186 186 180 201 200 184 197 196 191 202
294 297 295 266 282 278 273 251 287 307 263 271 259 249 245 248 237 228 221 217 222 226 233 224 231 221 199 204 208 126 192 187 188 190 195 190 192 212 188 175 198 192 192 203
323 310 292 292 280 278 283 282 278 289 267 268 259 246 243 244 245 242 230 220 234 218 209 212 217 218 208 183 210 220 201 205 200 208 205 203 196 192 196 192 196 210 211 193
299 315 284 293 275 282 280 275 269 274 264 251 258 253 243 240 240 249 233 223 216 212 211 209 211 216 211 211 195 204 210 206 204 198 202 198 210 195 199 201 199 208 200 212
308 296 304 274 271 287 271 266 262 267 277 246 249 242 252 241 237 238 228 232 243 230 218 216 212 211 207 221 219 216 206 203 206 208 210 202 204 204 200 205 208 220 229 225
303 311 307 270 268 282 276 264 253 263 252 266 244 246 239 235 238 226 229 222 221 221 232 237 233 232 228 216 208 224 226 230 225 214 222 218 219 230 227 222 229 240 218 209
284 288 280 279 265 266 278 261 261 255 260 247 250 253 240 238 232 240 231 222 219 220 220 219 221 223 222 223 222 223 190 222 224 227 227 223 219 222 227 229 219 214 221 204
301 284 302 265 265 266 258 269 266 260 255 256 245 247 241 246 237 237 236 236 234 234 229 226 226 224 221 236 237 236 234 232 232 233 233 193 232 229 223 219 207 213 214 216

GFSCGP_2pvu_pres_102.txt.gz
Presure
197 209 195 191 195 185 211 168 213 193 203 203 206 194 181 200 196 199 200 188 195 203 200 209 207 184 181 160 206 173 171 233 227 214 208 217 207 212 225 227 206 226 239 223
198 220 209 201 209 198 205 207 176 216 202 226 231 213 194 228 201 201 201 188 189 198 195 202 198 184 207 207 181 169 197 209 223 213 208 217 201 225 219 216 216 217 269 235
204 210 213 224 223 227 225 212 216 216 203 227 232 218 221 221 229 213 195 203 199 204 192 227 213 209 197 198 206 159 242 221 167 208 212 223 215 224 216 213 219 277 289 234
234 241 237 234 225 210 217 224 225 224 230 228 227 207 219 221 234 217 216 200 215 228 224 198 208 204 197 217 226 160 241 226 216 206 209 218 222 219 213 211 217 287 300 245
234 239 235 231 230 218 228 228 225 218 226 222 230 217 217 221 231 207 220 226 224 231 212 201 185 208 193 202 162 174 236 225 207 204 196 220 214 217 208 210 216 277 301 243
220 228 230 227 223 216 226 221 226 226 227 223 205 231 227 216 226 228 232 221 230 238 131 198 219 200 211 215 227 159 218 194 202 205 194 216 218 212 211 204 224 265 260 259
242 233 224 218 215 221 224 219 223 221 229 231 220 229 71 242 223 227 235 170 235 235 147 212 198 210 203 208 229 251 210 208 203 205 191 220 217 207 209 204 280 258 279 294
245 240 235 227 224 224 224 221 217 222 224 222 223 210 239 200 97 79 104 234 229 233 242 243 211 257 228 217 248 261 207 196 212 195 197 209 215 206 203 202 216 256 278 293
249 241 231 238 235 229 224 215 219 227 216 221 228 240 237 193 100 79 229 253 247 229 249 249 257 266 270 270 247 229 207 215 206 191 190 204 208 216 206 203 213 248 265 271
231 231 220 232 228 228 224 227 229 231 226 231 244 232 235 231 235 241 262 259 255 222 248 221 201 283 214 264 246 221 214 205 201 198 209 204 203 211 204 204 202 253 247 250
222 226 216 227 240 240 236 222 236 237 231 226 238 235 226 234 242 245 262 250 252 265 311 339 345 367 293 194 229 199 206 208 204 204 193 209 199 199 213 210 193 205 235 230
231 226 220 224 229 231 226 224 225 227 232 235 231 229 234 242 239 253 265 255 269 318 339 341 341 254 240 234 225 200 215 198 202 202 194 190 190 191 213 227 203 198 214 235
236 233 233 230 235 230 229 232 237 247 237 269 253 235 243 250 255 284 273 332 285 270 293 294 276 231 229 229 228 207 214 200 200 200 191 195 212 211 197 223 216 196 196 202
273 275 269 251 240 242 239 230 246 261 266 248 251 251 255 256 291 287 361 278 255 258 262 256 236 232 230 215 220 212 211 194 201 195 193 202 208 195 201 213 187 217 196 192
251 276 284 284 279 276 275 275 272 276 276 269 266 294 305 299 321 369 275 244 239 252 247 236 220 223 233 221 219 214 203 197 187 194 209 197 194 182 202 223 214 217 213 196
275 273 276 271 264 268 271 266 270 269 274 286 289 302 310 323 332 261 256 250 241 233 229 237 216 218 236 236 219 210 201 201 200 197 198 192 200 192 205 200 210 201 209 199
300 302 300 304 288 278 177 278 259 327 349 305 333 335 312 310 327 257 253 259 235 237 229 220 223 224 216 208 229 201 200 198 188 186 194 208 189 201 186 203 202 202 188 216
311 322 311 307 306 155 330 320 315 307 307 316 313 309 298 298 273 262 237 241 225 223 238 223 222 215 213 212 201 206 213 204 196 214 210 206 197 199 203 204 203 197 183 203
302 294 295 295 283 304 302 294 295 293 308 306 310 307 282 284 262 262 237 215 211 215 253 229 222 129 213 217 208 205 201 208 205 200 187 190 198 203 202 217 208 192 191 203
308 315 323 321 318 295 274 315 289 303 301 300 290 306 273 273 259 247 229 227 224 225 222 221 225 229 221 229 212 212 206 196 197 190 192 208 213 205 215 208 210 183 198 204
308 307 293 299 301 282 283 302 285 278 291 287 292 297 273 264 263 256 240 235 224 210 206 229 216 227 214 214 220 210 204 201 194 192 194 193 198 203 200 191 193 200 193 193
306 307 296 295 286 283 294 297 279 270 290 275 280 287 270 256 257 249 245 225 221 220 216 224 232 207 215 219 213 205 209 205 204 205 201 203 200 189 194 193 193 195 196 198
325 299 295 286 279 286 289 277 276 276 272 276 274 274 274 253 255 246 247 236 228 232 236 225 236 218 216 220 214 230 223 211 179 197 197 196 205 201 192 201 204 212 209 207
315 286 283 286 285 289 272 276 279 260 269 278 269 261 260 255 265 252 242 232 227 220 217 236 224 234 222 213 211 207 229 200 216 203 198 196 214 217 214 202 202 186 198 196
300 312 293 307 308 279 267 276 287 275 273 264 262 256 268 263 249 260 245 239 236 232 218 219 222 223 213 220 234 225 220 216 216 225 211 213 219 222 228 218 209 214 219 222
292 294 283 287 306 312 291 264 277 272 266 263 269 250 247 256 260 246 248 239 225 233 225 229 229 223 224 215 215 214 222 221 219 230 213 219 230 226 226 217 213 207 206 218

GFSCGP_2pvu_pres_105.txt.gz
Presure
235 223 197 147 201 202 198 183 179 182 182 196 195 187 176 201 194 194 198 187 206 200 180 191 210 202 191 197 182 202 184 160 190 204 190 212 221 216 208 225 209 238 205 220
249 237 224 215 215 204 186 194 195 194 178 186 197 210 192 184 191 181 215 202 200 216 204 191 223 207 194 199 185 210 194 156 214 208 254 218 186 208 209 223 231 229 224 209
270 235 224 205 202 207 207 205 202 202 203 195 198 206 194 122 154 211 191 203 213 217 218 220 219 233 201 204 189 191 210 223 209 219 255 224 189 202 215 212 229 226 225 215
257 267 263 258 235 219 212 206 206 212 212 198 194 204 194 227 233 212 234 218 207 208 209 219 230 229 205 209 225 214 175 217 209 174 247 209 215 207 215 218 225 223 222 217
252 247 248 253 93 237 224 223 222 214 217 211 207 220 206 238 208 214 232 212 224 225 207 242 231 221 222 209 229 203 181 215 205 194 240 207 208 207 206 203 221 218 213 222
244 245 242 238 239 235 227 220 227 232 209 223 235 237 223 216 231 217 215 223 214 209 229 248 225 221 228 236 223 200 203 206 193 219 210 194 197 207 210 207 218 218 212 240
242 245 249 246 239 233 222 224 221 223 222 235 231 235 216 109 131 213 211 227 209 230 255 237 138 231 229 236 231 201 221 216 216 238 215 192 182 205 202 221 215 218 206 256
236 228 242 239 237 234 236 228 233 235 226 231 231 228 84 126 223 217 219 221 100 230 246 230 243 238 233 230 221 232 220 213 203 248 214 205 209 203 194 215 218 215 205 261
226 230 237 240 233 229 229 231 227 229 228 233 231 222 220 222 218 217 200 176 81 89 247 231 232 236 232 230 232 245 216 206 220 247 213 201 209 198 197 201 214 217 203 254
229 224 230 233 242 238 233 229 229 231 232 227 222 223 223 221 218 222 229 230 96 86 241 236 243 258 259 251 259 256 246 264 216 237 206 214 194 193 209 204 207 206 205 243
231 183 228 225 221 235 238 242 241 239 233 230 231 232 221 221 223 230 230 242 214 241 244 232 256 250 255 263 219 220 187 281 245 229 214 204 190 196 213 194 198 233 210 221
244 231 204 228 225 227 229 220 246 245 242 244 242 239 234 226 224 236 231 240 241 244 226 250 264 267 258 260 268 271 274 292 244 213 213 191 183 204 189 202 192 223 210 202
253 236 234 231 228 228 224 226 235 245 230 229 227 231 232 231 224 230 232 229 268 244 242 254 278 334 366 374 387 313 305 210 222 216 211 196 202 188 188 192 210 201 219 201
272 264 238 251 248 237 233 233 224 226 222 220 222 224 231 233 236 237 233 252 275 234 248 300 300 288 306 298 336 303 244 224 225 215 195 194 199 189 198 194 188 198 206 207
277 276 274 268 270 267 259 244 228 228 230 229 231 233 239 232 242 244 267 275 233 250 278 266 268 258 283 281 259 246 228 208 222 190 197 197 204 188 191 197 200 200 200 215
254 262 271 273 264 266 259 255 236 233 235 234 241 244 243 295 289 288 288 282 343 286 273 237 216 223 262 250 223 215 218 209 207 200 195 196 198 199 188 202 190 192 208 216
279 272 271 276 271 263 261 258 253 265 279 282 285 284 280 283 280 293 314 332 279 261 256 253 235 237 236 231 212 220 209 206 193 213 201 197 198 188 190 188 194 196 198 205
307 309 282 268 271 267 254 254 269 202 284 269 271 260 270 288 304 357 328 277 260 249 256 241 237 219 239 226 220 216 207 208 213 204 202 202 201 202 195 191 193 196 208 213
310 315 310 306 303 293 279 277 283 292 293 283 321 335 340 338 337 264 275 266 247 240 221 234 229 220 217 219 202 220 214 204 208 208 201 198 203 194 184 192 191 206 198 200
309 316 306 303 299 300 299 299 296 208 320 323 320 308 327 331 300 307 263 247 242 233 229 226 236 211 213 215 220 205 210 222 213 204 202 194 204 194 194 211 182 193 206 200
314 301 290 292 308 291 326 319 300 298 303 301 295 306 315 307 304 289 252 245 235 228 222 210 230 214 230 213 230 217 208 208 218 206 207 205 208 207 211 209 197 192 193 202
314 297 306 292 293 297 288 269 289 293 291 304 290 306 308 301 281 262 243 231 245 238 244 237 234 209 215 208 206 210 231 215 208 206 203 204 203 204 195 195 197 198 202 198
342 303 303 293 309 300 291 312 281 277 289 285 289 269 290 294 260 266 243 247 228 220 232 224 224 226 219 216 233 211 218 207 213 205 199 197 197 198 199 195 197 201 198 197
325 313 316 302 292 306 304 300 279 285 283 279 288 274 288 298 274 252 245 232 225 228 213 228 224 226 235 234 230 215 224 221 215 212 207 203 202 197 194 198 200 200 203 206
310 311 307 298 291 296 291 299 275 280 282 278 272 271 277 291 277 285 253 241 229 222 220 222 224 210 222 218 214 211 224 235 214 227 213 210 199 206 199 196 190 201 202 204
307 289 280 308 300 292 286 288 291 296 279 280 265 276 263 263 290 270 268 250 225 229 222 222 220 232 212 220 220 217 221 216 253 234 225 218 218 216 220 220 213 206 209 201

GFSCGP_2pvu_pres_108.txt.gz
Presure
267 265 301 238 238 227 180 199 200 180 188 192 193 185 178 181 183 184 180 181 185 185 182 188 181 195 188 211 196 82 172 178 201 162 186 206 172 173 236 238 231 216 215 217
274 264 278 251 245 235 227 168 172 203 193 190 196 186 187 196 183 178 179 201 205 172 191 179 184 185 197 197 210 212 206 212 233 199 184 186 170 174 228 241 222 216 224 229
273 264 273 262 256 235 235 224 175 185 183 176 198 201 202 195 188 179 178 185 196 193 191 208 195 196 206 209 208 216 215 222 222 219 182 211 184 159 233 218 220 211 225 229
268 264 262 270 255 254 237 228 222 216 206 208 205 199 210 200 184 186 198 176 186 189 193 211 197 221 201 225 212 214 212 217 222 209 197 223 201 230 260 234 214 220 228 231
267 259 254 252 255 249 224 231 226 226 224 215 176 209 211 175 202 202 200 205 192 183 193 195 219 205 223 214 222 224 214 228 224 221 207 175 220 215 197 230 202 212 228 213
278 260 250 259 262 261 235 224 214 235 233 218 207 217 193 196 207 205 202 196 203 210 202 234 210 218 222 215 227 236 248 228 216 222 228 220 213 221 231 220 204 208 223 213
289 259 251 241 243 256 262 261 246 247 232 226 214 204 186 209 208 207 212 210 209 220 227 230 219 216 220 214 237 252 243 230 224 226 233 214 198 170 241 214 176 207 220 221
290 259 252 242 227 234 243 250 249 252 256 244 217 235 233 223 89 235 225 224 228 232 227 220 224 224 221 206 229 77 234 228 231 240 235 214 217 217 238 207 195 208 216 226
294 285 249 242 234 223 231 246 247 244 243 237 236 232 221 228 223 195 215 226 233 228 80 143 222 225 212 223 90 238 236 233 229 222 232 213 223 207 236 206 205 209 204 216
293 275 269 245 232 224 225 228 238 242 234 230 227 227 223 216 142 204 224 223 228 223 149 168 95 228 231 233 243 241 236 242 232 228 225 217 215 212 226 202 204 200 202 212
288 273 278 247 231 230 225 226 236 240 233 230 226 221 226 225 221 227 219 229 228 227 227 223 186 99 239 236 238 239 243 250 240 247 247 218 218 241 217 205 207 204 201 200
275 93 279 263 233 233 227 216 225 235 232 233 232 233 228 229 234 228 233 233 228 228 230 229 225 227 235 241 236 235 241 258 265 264 251 203 229 234 213 194 205 210 196 199
265 278 80 259 243 231 226 228 221 217 237 234 233 233 231 231 239 236 235 229 225 227 233 239 236 225 231 238 231 243 258 271 194 265 249 260 248 232 205 204 197 181 204 197
263 281 281 268 268 246 234 232 229 226 236 218 241 218 218 240 238 238 239 240 235 234 235 227 231 234 245 253 252 278 311 312 288 260 254 259 235 226 203 195 201 188 189 195
273 266 285 282 267 263 238 235 229 225 224 221 221 219 221 228 251 252 239 237 235 241 235 232 244 236 273 307 316 313 322 358 372 345 271 253 226 215 201 197 198 201 199 203
290 259 264 280 278 268 247 236 233 231 227 227 224 228 224 229 227 234 227 233 234 237 241 247 267 281 258 246 286 303 314 356 296 289 251 217 220 200 192 195 204 190 192 191
294 253 267 274 278 271 259 246 239 234 234 233 233 240 237 237 235 236 233 240 244 250 320 313 256 235 233 243 286 280 272 265 257 237 196 212 206 200 189 197 205 193 192 197
311 302 267 275 277 276 270 258 250 246 249 256 263 265 261 256 252 241 254 266 301 294 334 243 237 225 239 228 228 246 241 233 225 208 212 208 201 202 199 199 211 192 200 199
307 305 299 269 262 277 278 274 266 272 275 275 271 269 262 256 254 294 303 273 282 327 323 249 232 209 224 207 210 244 228 212 217 212 205 204 205 194 194 197 196 194 186 197
298 297 305 304 297 284 258 257 262 269 271 273 273 277 274 278 286 282 284 301 295 334 263 242 234 213 202 224 212 227 220 214 213 214 202 201 205 205 204 201 193 195 201 207
309 314 305 290 291 302 302 294 272 264 271 276 261 268 290 316 320 343 347 322 327 279 247 238 244 221 220 208 222 223 224 209 215 213 213 204 197 201 210 203 195 200 180 189
312 314 317 313 306 301 298 292 296 290 289 143 250 312 315 319 315 321 327 307 269 258 249 248 251 221 221 216 204 232 210 213 196 213 194 204 194 203 221 208 203 167 183 199
328 322 308 299 294 322 279 289 290 314 284 306 301 303 312 303 313 303 274 285 256 244 242 235 224 227 239 211 227 225 214 201 236 210 210 204 204 200 201 197 194 191 189 201
328 330 306 300 293 310 291 283 286 293 285 289 294 281 303 297 298 272 249 256 256 238 225 230 231 218 209 210 211 199 220 228 192 202 201 216 212 212 211 205 204 205 205 199
334 311 320 294 288 307 298 292 288 274 281 277 288 295 294 294 293 291 290 255 252 236 245 232 219 214 218 223 205 208 227 220 227 219 215 225 213 212 206 199 199 193 191 193
362 300 318 306 288 289 290 298 294 294 302 291 285 281 293 290 289 285 287 249 250 237 233 224 226 214 213 228 235 213 217 212 222 210 215 218 211 206 205 212 208 206 200 195

GFSCGP_2pvu_pres_111.txt.gz
Presure
274 258 274 270 252 245 244 246 222 233 217 204 211 187 196 177 179 191 189 181 185 189 191 191 186 181 183 197 205 179 189 202 190 199 190 214 211 174 221 169 163 212 232 239
301 274 259 248 255 254 249 246 253 233 230 216 201 201 196 187 186 178 174 182 186 186 189 190 194 181 175 179 186 175 182 204 196 203 215 205 216 212 225 220 183 217 208 246
351 349 308 291 269 266 280 286 238 245 239 226 218 209 202 198 197 185 181 184 186 196 190 186 189 180 179 196 186 189 192 202 192 214 204 206 214 221 218 225 203 198 226 245
325 330 319 301 294 286 285 279 263 255 242 231 217 222 206 202 189 189 198 192 188 188 192 197 196 192 176 190 186 190 188 185 194 207 201 222 221 214 184 224 211 226 202 243
353 331 321 301 289 272 264 270 273 259 250 230 223 225 213 201 187 190 191 186 178 190 190 196 202 208 196 193 185 195 172 149 212 214 213 214 222 223 211 180 143 231 224 235
345 321 315 290 273 266 260 255 262 268 271 276 217 235 227 212 200 190 193 187 184 182 191 202 205 210 210 210 198 185 200 214 220 209 224 230 231 221 207 223 210 165 202 230
326 316 308 289 273 269 259 253 256 256 265 262 242 237 220 225 218 201 195 204 200 201 201 201 163 205 204 203 202 206 220 220 214 222 217 239 252 236 223 214 203 222 225 226
343 301 308 291 270 262 251 242 241 245 252 258 243 238 211 221 220 220 224 196 205 215 213 190 194 192 204 210 239 221 216 218 215 210 225 236 246 234 228 222 231 211 247 218
349 302 290 287 273 261 253 235 237 243 250 244 245 243 229 224 224 218 218 203 209 203 222 212 192 215 213 220 217 219 217 212 71 216 219 230 242 233 220 246 224 222 233 216
364 280 300 286 278 263 259 243 236 237 251 254 249 244 206 209 225 225 146 222 217 212 218 223 222 218 223 237 224 218 220 219 217 221 231 247 177 226 230 242 230 212 231 215
318 288 286 289 277 266 255 250 234 232 227 234 246 255 258 250 239 239 234 233 164 221 219 219 216 173 93 221 134 222 219 214 219 214 243 248 238 233 235 223 231 208 225 212
309 283 296 278 276 266 256 243 237 231 229 234 230 242 247 252 232 234 235 228 239 228 225 219 211 215 224 225 230 218 215 225 228 183 231 239 245 249 229 237 189 213 220 208
306 288 260 284 277 271 262 247 234 227 232 220 220 228 229 235 230 229 223 224 221 224 220 221 221 228 215 224 227 223 229 228 227 179 221 235 240 235 253 252 213 195 215 199
307 277 266 263 279 237 271 250 236 232 228 228 215 230 234 239 238 227 229 227 222 216 222 227 230 225 230 227 233 227 233 234 224 237 236 224 236 253 265 247 241 238 213 202
303 294 279 268 273 280 256 269 243 235 228 225 227 223 222 237 241 238 234 238 234 231 232 237 243 242 251 251 238 245 232 220 221 265 260 262 245 185 246 213 252 232 196 201
308 297 273 268 275 283 269 271 256 241 227 225 227 231 220 211 223 235 235 235 237 234 241 244 245 246 244 247 228 234 234 260 289 306 313 303 300 261 244 242 243 227 212 203
307 306 296 273 264 273 281 268 269 252 238 228 226 226 226 227 229 224 223 236 228 225 227 242 242 232 232 236 242 259 268 264 274 296 309 328 332 250 241 243 233 213 194 200
298 304 301 289 278 254 273 274 266 260 247 235 229 229 231 229 229 224 222 226 229 229 239 236 229 235 247 277 260 245 264 290 389 310 333 317 253 250 245 234 221 205 193 194
298 294 295 294 283 262 255 281 278 269 261 253 240 234 236 237 232 234 231 235 243 245 252 253 266 262 249 244 234 238 272 267 266 262 252 251 246 240 235 219 206 200 199 194
306 297 300 290 287 284 259 254 263 273 273 265 262 248 239 239 236 236 243 246 258 282 293 274 290 239 248 235 221 223 224 249 239 220 239 236 232 224 212 192 198 186 183 190
306 304 294 302 300 289 269 255 259 266 265 273 269 262 255 251 251 255 270 299 292 286 306 295 237 231 226 240 240 220 220 220 226 225 216 224 224 212 201 197 201 201 201 192
314 307 301 293 294 297 299 287 271 263 266 277 278 280 280 277 284 293 289 287 271 333 280 233 228 227 223 216 227 219 210 226 199 209 213 208 208 211 213 209 203 201 197 191
310 315 302 305 318 287 292 290 293 288 285 274 259 258 262 270 275 296 286 340 354 333 335 233 224 228 218 215 197 217 212 192 198 206 204 191 217 204 208 215 195 185 202 184
336 314 333 307 301 305 316 279 281 298 290 302 291 302 298 299 300 325 326 315 313 323 297 235 225 239 225 225 221 204 196 215 230 226 223 214 210 209 196 181 213 221 202 193
341 346 309 312 312 299 302 309 305 293 297 296 301 294 291 293 305 309 313 318 307 289 291 235 236 231 223 208 214 207 212 190 205 227 233 223 222 214 206 196 214 213 204 211
368 344 310 316 299 292 290 293 295 293 293 282 285 290 291 290 299 297 307 280 302 269 289 239 239 228 215 212 221 212 203 200 224 200 204 209 206 205 194 203 208 212 195 199

GFSCGP_2pvu_pres_114.txt.gz
Presure
67 269 285 273 265 221 247 241 235 213 221 224 215 237 221 211 214 205 196 198 178 201 173 180 180 184 186 181 173 182 192 191 181 196 164 159 173 192 203 197 225 212 219 224
555 502 350 305 191 119 261 261 243 242 233 221 229 247 234 220 200 215 207 197 191 188 190 184 175 180 172 184 183 188 191 184 186 183 159 191 183 194 196 197 221 208 227 215
511 508 580 408 239 306 281 269 277 264 236 249 244 249 237 230 219 211 211 202 198 197 180 194 183 179 187 179 181 184 182 184 176 181 187 184 186 199 195 201 231 212 202 224
409 433 531 526 390 334 304 280 271 258 264 259 267 256 249 235 226 216 211 207 207 204 197 196 196 187 176 173 185 189 190 183 179 179 181 184 193 190 207 202 226 221 225 232
363 358 478 455 386 348 329 289 266 273 265 259 260 260 250 242 244 220 218 213 208 199 204 191 198 196 196 189 186 187 194 192 191 209 200 192 167 199 212 215 226 228 235 212
358 340 439 416 366 334 317 304 293 274 269 260 247 252 253 247 239 243 210 218 211 206 198 196 197 192 193 193 200 177 191 190 207 194 204 180 202 209 213 221 222 233 227 232
325 360 379 433 359 326 321 312 305 299 289 274 272 277 269 282 257 238 235 223 220 210 201 197 199 199 200 177 185 178 185 199 192 185 201 206 208 222 205 219 219 230 248 237
329 314 342 372 352 292 322 310 291 282 280 264 269 277 271 273 249 233 237 229 228 213 209 204 200 200 191 192 187 189 197 194 194 194 195 233 223 214 216 216 220 234 245 238
321 292 297 436 316 313 303 295 278 274 263 256 255 254 260 260 248 247 243 233 220 212 213 219 210 202 196 190 201 200 205 204 192 192 213 224 214 216 199 217 221 232 241 237
308 299 301 324 324 294 303 279 268 262 253 243 244 245 255 253 257 259 267 273 222 214 215 223 212 209 209 213 218 193 208 205 195 211 223 189 216 219 222 218 215 243 239 224
305 288 333 310 342 297 290 268 258 258 250 239 238 241 243 245 255 254 250 253 249 223 221 193 177 214 215 204 146 216 215 221 212 200 236 223 219 217 219 224 227 250 238 236
293 311 295 350 275 295 283 263 254 249 241 236 235 237 237 248 249 239 252 247 232 89 206 82 167 210 214 215 211 206 211 146 178 122 210 223 223 224 224 239 240 238 207 211
304 313 311 313 275 282 280 133 254 249 249 234 234 231 232 240 249 248 233 233 237 249 238 231 237 231 217 212 217 214 230 173 197 216 219 223 226 216 226 230 232 239 209 242
290 287 277 279 285 268 274 270 263 254 247 242 232 229 233 228 239 240 253 248 257 237 231 227 252 233 227 234 216 216 220 213 213 163 223 225 162 197 226 231 226 248 236 227
287 282 274 274 256 276 276 248 262 256 245 242 236 232 228 228 220 232 238 239 245 247 231 231 232 223 229 230 232 152 220 219 218 223 210 235 239 224 226 214 240 232 235 253
287 281 297 270 268 262 297 273 266 253 247 244 237 234 230 228 225 233 231 243 239 227 231 223 219 218 216 223 222 219 150 228 230 228 244 221 262 241 247 233 247 258 250 261
311 288 285 285 271 259 268 278 274 272 259 250 240 229 231 225 230 229 229 224 233 242 240 231 234 234 236 236 234 237 247 254 250 247 246 245 244 249 258 274 282 195 239 246
298 304 296 282 284 268 256 254 274 269 265 253 235 233 227 229 228 230 231 225 224 231 237 242 242 245 247 247 241 242 241 242 229 232 231 238 273 283 267 273 311 251 206 245
297 295 294 295 286 282 275 257 256 271 275 263 248 236 231 231 231 227 231 230 226 212 225 232 226 228 223 219 219 246 226 226 230 245 287 282 356 308 302 298 278 260 243 244
305 295 297 287 288 291 289 265 256 269 269 256 260 260 242 239 232 235 232 226 226 236 236 231 242 238 230 243 261 277 227 274 259 253 266 275 321 324 324 285 258 249 239 224
322 300 289 288 288 292 290 285 276 257 257 267 271 268 266 252 248 245 242 235 234 230 232 240 239 240 250 263 312 326 264 250 242 251 251 249 250 238 243 241 239 239 234 230
306 321 295 284 280 294 290 289 280 268 250 264 277 283 276 268 262 256 250 246 243 243 245 240 245 254 260 317 300 245 241 230 228 246 241 241 228 239 237 235 236 227 221 215
332 304 318 297 285 288 294 302 293 287 267 256 253 260 266 273 279 279 272 270 268 265 258 257 253 312 293 287 241 227 231 222 224 246 236 228 224 226 231 228 216 223 214 212
337 329 305 309 294 302 301 299 296 295 285 283 259 262 270 276 273 277 283 285 287 286 287 297 287 272 246 248 232 236 225 224 228 227 202 214 195 225 212 197 199 211 213 212
302 343 331 322 303 300 295 298 296 287 293 292 292 285 277 274 267 270 265 263 260 286 340 339 262 260 234 229 220 226 230 209 216 207 200 211 209 212 210 210 219 213 204 218
279 358 346 336 318 314 298 297 303 302 283 282 286 286 294 296 300 299 299 302 321 331 335 287 285 241 230 224 222 228 216 218 202 215 219 220 200 207 198 189 195 202 205 207

GFSCGP_2pvu_pres_117.txt.gz
Presure
268 284 305 292 153 266 280 258 253 236 226 245 236 277 256 246 239 212 201 199 204 204 208 222 173 157 190 194 199 185 189 192 189 190 192 188 183 192 180 190 187 185 198 205
366 131 65 66 297 340 305 245 320 300 261 225 218 269 264 251 251 241 224 217 208 203 204 223 207 204 201 187 186 191 173 179 186 183 190 192 191 187 184 182 178 183 198 205
571 518 527 327 159 412 308 420 293 310 292 268 259 267 255 242 248 240 226 217 219 219 210 224 217 212 204 196 179 189 173 179 171 173 180 182 188 187 185 185 185 184 184 190
441 414 408 394 449 487 578 485 410 327 268 274 262 262 268 253 248 249 240 227 214 214 211 216 220 212 207 199 190 181 180 184 185 179 174 176 182 188 180 192 200 203 167 199
397 378 368 376 383 491 553 461 400 354 298 294 278 267 256 261 68 236 224 222 213 212 214 220 221 214 205 211 199 189 184 177 192 180 180 175 177 184 192 190 197 209 202 205
379 358 359 353 444 464 522 461 370 348 316 302 287 283 270 261 251 251 232 222 219 219 224 224 225 221 211 216 208 197 168 182 186 186 186 188 187 190 187 197 195 174 195 188
337 332 328 355 420 460 394 364 341 334 323 303 296 286 264 255 246 258 249 233 232 230 236 227 227 226 214 212 207 198 189 197 197 192 190 177 189 172 182 193 200 190 195 210
330 318 315 349 345 427 371 354 330 329 320 313 299 311 274 270 253 258 256 250 245 247 240 242 232 220 217 219 213 202 184 192 194 200 188 192 177 143 196 167 180 194 200 221
319 315 310 354 322 355 403 356 336 326 341 309 297 292 285 277 258 261 257 245 242 244 249 239 223 224 221 209 209 205 202 196 199 200 190 199 189 199 194 203 200 214 221 201
311 299 300 304 320 345 339 304 298 301 295 291 295 284 286 276 276 270 261 235 236 242 242 243 238 230 231 214 210 217 203 202 202 203 206 197 190 187 218 215 213 212 214 216
299 288 279 277 290 330 316 300 290 280 277 280 273 270 269 270 266 264 267 269 266 271 298 272 243 223 232 230 223 221 209 200 199 203 203 189 199 224 210 209 210 221 218 217
305 285 280 278 292 311 293 284 269 276 285 275 257 250 252 251 255 253 250 251 244 252 266 257 246 231 89 82 225 223 200 203 209 218 206 212 215 211 214 203 215 210 210 225
289 280 306 285 274 302 287 274 269 266 272 263 249 244 253 245 240 243 240 237 247 255 256 264 134 212 236 230 117 205 208 233 222 208 214 160 212 228 224 208 215 208 207 221
291 280 284 292 293 285 278 275 275 267 263 257 245 242 238 235 236 233 233 241 243 247 252 253 260 269 241 232 227 217 223 214 217 212 215 211 151 109 218 217 205 214 209 221
279 292 289 280 288 280 280 274 271 264 258 253 244 241 236 232 231 231 234 233 242 244 239 242 246 250 249 228 230 220 222 210 214 219 220 216 216 220 214 196 212 212 196 233
283 283 270 265 277 280 264 271 266 256 250 251 245 244 235 224 240 246 253 234 244 260 236 236 233 240 225 238 239 233 215 215 220 213 210 220 217 215 216 222 137 152 197 237
280 277 265 271 268 280 268 252 264 265 255 247 246 246 232 222 222 229 229 233 227 236 247 235 233 238 247 250 247 225 247 236 235 236 234 235 236 230 223 219 226 227 241 250
278 282 273 263 264 261 258 274 273 249 249 260 251 245 243 237 232 229 231 230 237 230 228 236 238 237 237 243 235 234 228 231 224 222 224 225 225 226 230 234 240 258 259 253
294 275 265 263 268 262 265 256 273 293 252 255 267 259 254 245 234 230 231 233 234 237 235 226 219 236 237 242 226 226 226 233 233 235 239 245 242 251 254 251 251 252 239 239
312 288 286 268 268 267 261 265 263 258 276 266 261 253 252 250 248 239 233 233 235 238 236 232 226 214 224 234 243 253 251 253 255 259 224 221 233 230 240 244 247 258 271 266
307 307 302 294 278 268 275 270 268 267 249 267 279 269 263 255 252 251 236 234 234 233 235 235 236 234 221 221 223 235 230 221 217 215 216 223 278 234 253 330 340 323 295 278
344 315 305 299 292 294 294 278 280 271 268 264 249 257 276 271 264 256 245 241 237 237 235 236 237 238 237 228 238 239 244 236 257 265 369 281 227 264 266 287 328 299 292 271
288 357 347 328 293 298 295 295 288 290 288 277 259 266 263 272 277 276 270 265 255 249 247 245 245 247 249 252 252 249 254 268 261 359 266 266 248 259 251 244 249 246 240 238
269 281 349 336 336 310 296 286 321 297 303 296 285 276 263 260 265 272 277 272 268 270 271 269 262 260 260 264 264 277 287 345 271 250 233 242 248 241 230 234 235 232 215 229
266 269 281 334 331 323 310 305 305 295 286 310 310 293 277 269 260 256 262 267 268 273 279 284 287 289 294 300 291 301 289 273 236 230 256 213 228 212 214 220 217 223 214 227
264 265 270 284 338 317 313 304 303 292 295 296 298 313 297 281 278 269 260 262 269 274 272 276 273 263 262 278 304 254 300 243 239 229 214 228 221 212 215 210 211 215 226 224

GFSCGP_2pvu_pres_123.txt.gz
Presure
200 172 218 202 191 242 248 255 259 264 235 106 243 272 269 62 280 263 237 224 221 224 222 214 206 203 200 193 182 188 202 197 194 182 181 182 183 187 200 191 176 175 191 191
184 228 177 191 246 259 261 269 272 229 232 352 186 85 76 261 136 233 73 162 239 227 229 224 223 215 214 212 207 202 197 192 175 195 187 195 199 196 105 191 181 193 199 186
210 239 216 220 230 245 264 279 70 135 255 86 87 509 591 454 77 289 254 266 248 241 238 237 232 239 225 230 214 230 221 165 200 198 190 178 209 207 176 221 183 202 213 219
186 222 193 252 255 269 390 109 349 397 384 420 396 424 604 496 459 182 230 247 266 253 234 232 232 246 244 228 234 78 227 196 214 213 188 190 192 199 186 190 172 167 172 172
192 251 245 260 289 380 377 353 365 389 447 96 471 433 537 97 80 381 352 265 83 234 221 251 225 245 250 242 245 248 232 217 228 228 213 200 181 180 171 215 195 184 200 171
251 258 271 313 366 367 369 358 415 454 452 423 516 495 448 445 426 493 338 324 296 235 229 259 244 252 248 239 255 215 233 228 220 221 217 204 179 188 206 168 183 169 170 175
254 273 369 370 359 359 367 375 389 395 361 386 404 409 404 400 368 403 321 308 310 291 277 255 251 255 256 237 255 246 237 232 235 219 197 190 177 176 172 168 168 169 172 173
270 364 355 339 338 348 338 341 330 339 336 336 358 404 410 358 339 351 314 304 300 287 291 256 248 256 254 253 253 246 236 228 220 213 216 211 201 199 180 179 192 207 206 198
393 341 335 323 335 342 329 311 318 310 319 321 339 328 311 317 330 325 307 291 294 274 227 231 237 257 249 254 247 242 200 225 219 215 215 213 210 208 213 207 211 211 208 199
355 340 319 317 300 325 309 308 299 306 299 310 337 335 293 340 312 304 286 289 290 277 255 257 253 259 254 245 241 238 230 226 214 217 217 212 201 205 207 210 206 206 206 204
335 320 303 294 304 304 323 303 292 279 300 296 306 327 302 297 325 340 312 282 281 256 251 254 261 256 258 242 237 229 229 154 217 217 217 215 216 216 213 206 208 204 204 203
315 301 296 307 291 312 301 296 291 295 285 284 277 274 286 281 322 303 277 292 272 266 257 254 250 251 257 247 235 230 230 232 226 226 225 221 222 215 217 215 211 209 205 210
359 300 294 296 299 300 324 287 277 276 275 269 250 247 248 256 268 285 313 316 273 262 260 256 251 246 246 247 242 239 237 235 231 231 229 225 223 223 218 225 223 215 210 206
334 302 288 289 281 310 302 290 285 284 269 255 234 243 232 253 247 245 254 253 251 253 266 272 258 257 251 248 246 247 248 247 242 232 238 150 232 227 235 243 240 145 216 205
329 304 289 291 281 283 286 290 274 270 264 249 242 252 238 250 255 246 244 230 235 237 254 242 262 263 265 259 261 260 255 252 258 133 146 213 243 236 246 237 229 225 223 229
287 320 293 293 290 279 282 279 261 270 261 249 247 234 225 237 243 232 239 232 231 229 233 250 237 259 258 259 261 260 263 267 288 242 237 230 228 228 244 233 230 223 220 215
290 319 294 283 280 293 308 276 284 262 261 251 248 255 240 247 246 249 240 220 236 233 231 237 235 247 247 248 246 250 251 250 252 254 272 269 253 260 235 231 225 219 225 224
416 322 289 279 266 284 287 276 279 250 257 253 249 242 257 241 237 233 242 236 235 233 235 236 238 247 245 241 246 249 246 248 250 248 250 256 250 251 249 241 228 219 216 214
411 325 286 275 276 273 291 288 276 252 255 258 250 243 242 254 261 252 235 235 229 240 247 242 242 236 235 239 237 232 235 237 239 239 240 248 251 254 241 244 224 219 220 224
329 315 281 276 278 285 276 297 279 277 261 260 245 251 256 231 242 258 247 238 241 237 238 245 235 238 240 242 244 238 243 243 237 239 245 240 241 237 234 240 230 225 225 221
285 355 288 267 267 274 277 274 291 279 280 252 257 249 242 250 252 258 241 244 247 245 246 238 239 248 239 231 236 236 240 246 250 245 238 240 235 235 240 243 236 227 229 231
278 311 306 274 269 279 262 267 266 291 287 267 263 254 262 247 244 249 254 246 238 244 249 239 238 246 261 264 242 237 234 238 243 243 238 238 238 242 250 243 247 242 235 235
293 274 306 292 266 259 272 264 258 269 270 271 286 276 258 254 257 266 252 244 252 243 245 240 241 245 247 242 251 252 229 234 236 226 234 237 246 243 234 249 236 229 231 227
293 289 268 292 313 277 265 266 265 263 265 261 268 270 265 267 269 270 261 256 248 247 244 242 244 247 249 252 252 255 255 254 229 238 236 232 228 230 236 238 233 235 237 240
296 290 292 271 269 297 291 269 272 268 269 269 268 268 267 270 272 259 267 278 275 269 263 260 254 252 253 254 258 260 262 263 269 267 267 239 240 229 226 233 223 234 231 214
292 295 298 305 274 272 274 290 307 303 270 273 275 275 279 280 277 277 277 275 276 275 263 266 268 282 288 287 285 286 283 287 296 302 306 308 263 315 284 249 233 242 220 252